     2              OBSERVATION DATA    GPS                 RINEX VERSION / TYPE
teqc 1999Jul19 19991123 02:56:01UTC                         PGM / RUN BY / DATE
                                                            COMMENT
Original Marker Name: 0307                                  COMMENT
Campaign Name: HPGN 1991                                    COMMENT
4-Character Station Name: 0307                              COMMENT
6-Character Antenna Code: TRMSST                            COMMENT
Vertical Measurement Point: BPA                             COMMENT
Vertical Offset to Rinex Ref. Point: 0.0000                 COMMENT
Radial Measurement Point: RRP                               COMMENT
Radial Offset to Rinex Ref. Point: 0.0000                   COMMENT
Antenna Height from Field Measurement: 2.2200 m             COMMENT
                                                            COMMENT
Original XYZ: -2480401.2816 -4271665.9623 4024213.5013      COMMENT
New XYZ position is based on association with SCEC monument COMMENT
E1O5O6K4+0011. Position of that monument is believed to be  COMMENT
valid to within 1 m horizontally; vertical accuracy         COMMENT
should be no worse than 3-times this value.                 COMMENT
                                                            COMMENT
Revised Rinex header created by UCSD GPS archive for        COMMENT
GSAC on 10-Mar-2000 (2000:070) 04:56:43 GMT                 COMMENT
For assistance contact dagnew@ucsd.edu or hjohnson@ucsd.edu COMMENT
                                                            COMMENT
POLARIS                                                     MARKER NAME
0307                                                        MARKER NUMBER
-Unknown- CALIF DEPT TRANSPORTATION                         OBSERVER / AGENCY
0482 TRIMBLE 4000 SST NP 4.30 / SP 4.20                     REC # / TYPE / VERS
0020 TR 4000SST L1/L2 GEO                                   ANT # / TYPE
 -2480404.2365 -4271669.5232  4024213.0767                  APPROX POSITION XYZ
        2.2200        0.0000        0.0000                  ANTENNA: DELTA H/E/N
     1     1     0                                          WAVELENGTH FACT L1/2
     5    C1    L1    L2    S1    S2                        # / TYPES OF OBSERV
     0                                                      INTERVAL
  1991     5    23    17    48   15.000000                  TIME OF FIRST OBS
  1991     5    23    23    44   30.000000                  TIME OF LAST OBS
                                                            END OF HEADER
 91  5 23 17 48 15.0000000  0  5G18G11G 2G16G19
  20877536.945          -0.44118        -0.01733        29.000           2.813
  24243420.656          -0.23016        -0.23031        12.000           0.500
  24311666.891          -0.42815        -0.48331         8.500           0.438
  24361143.094          -0.16515        -0.47731        11.500           0.344
  20785740.102          -0.43717        -0.48032        22.750           2.156
 91  5 23 17 48 30.0000000  0  5G18G11G 2G16G19
  20880582.734       16007.660 8     12473.82523        29.000           2.875
  24235066.367      -43889.597 6    -34199.68621        12.250           0.469
  24300921.555      -56478.372 5    -44009.21021         9.000           0.406
  24353781.398      -38704.911 5    -30160.03821        11.000           0.281
  20784019.891       -9050.800 7     -7052.72222        22.000           2.094
 91  5 23 17 48 45.0000000  0  5G18G11G 2G16G19
  20883653.219       32143.110 8     25046.89423        29.500           2.750
  24226733.859      -87680.824 6    -68322.65821        12.500           0.531
  24290184.734     -112903.302 5    -87976.62921         9.500           0.500
  24346439.227      -77280.904 5    -60219.24321        11.000           0.250
  20782310.781      -18023.954 7    -14044.78922        22.250           2.125
 91  5 23 17 49  0.0000000  0  5G18G11G 2G16G19
  20886747.594       48402.299 8     37716.37623        29.250           2.781
  24218421.914     -131377.137 6   -102371.67821        13.750           0.500
  24279452.539     -169278.623 5   -131905.40621         9.500           0.469
  24339120.672     -115731.475 5    -90180.72221        10.500           0.344
  20780617.133      -26923.414 7    -20979.43122        21.500           2.188
 91  5 23 17 49 15.0000000  0  5G18G11G 2G16G19
  20889865.461       64788.945 8     50485.17123        29.000           2.875
  24210124.164     -174974.325 6   -136343.45721        13.250           0.563
  24268737.273     -225600.430 5   -175792.46621         9.750           0.500
  24331829.594     -154052.640 5   -120041.37221         9.750           0.250
  20778938.461      -35745.287 7    -27853.60322        22.750           2.188
 91  5 23 17 49 30.0000000  0  5G18G11G 2G16G19
  20893007.219       81300.334 8     63351.18123        29.000           2.906
  24201844.813     -218474.705 6   -170239.80321        13.250           0.438
  24258030.508     -281871.282 5   -219639.83521        10.750           0.531
  24324560.469     -192246.692 5   -149802.95721         9.250           0.281
  20777274.680      -44492.474 7    -34669.57822        22.250           2.219
 91  5 23 17 49 45.0000000  0  5G18G11G 2G16G19
  20896173.406       97936.155 8     76314.14923        28.750           2.875
  24193586.109     -261877.935 6   -204060.44021        13.500           0.531
  24247331.844     -338090.989 5   -263447.35621        11.000           0.594
  24317316.375     -230313.596 5   -179465.46821         9.250           0.281
  20775623.117      -53164.985 7    -41427.35922        23.000           2.219
 91  5 23 17 50  0.0000000  0  5G18G11G 2G16G19
  20899363.570      114695.736 8     89373.55523        29.000           2.875
  24185344.063     -305184.235 6   -237805.55021        13.000           0.594
  24236645.367     -394260.133 5   -307215.47121        11.250           0.531
  24310094.250     -268253.727 5   -209029.21521        10.000           0.313
  20773988.969      -61763.623 7    -48127.58022        22.250           2.250
 91  5 23 17 50 15.0000000  0  5G18G11G 2G16G19
  20902576.313      131583.238 8    102532.63623        29.250           2.938
  24177122.859     -348389.011 6   -271471.54721        13.000           0.469
  24225962.047     -450374.275 5   -350940.72721        11.250           0.531
  24302905.141     -306062.513 5   -238490.61421         9.000           0.344
  20772363.563      -70284.054 7    -54766.86222        22.750           2.188
 91  5 23 17 50 30.0000000  0  5G18G11G 2G16G19
  20905813.547      148589.517 8    115784.27223        29.500           2.844
  24168916.211     -391501.051 6   -305065.29621        13.250           0.406
  24215293.313     -506442.490 5   -394630.19621        11.500           0.406
  24295730.141     -343748.739 5   -267856.49621         9.500           0.406
  20770759.641      -78735.416 7    -61352.34022        21.750           2.125
 91  5 23 17 50 45.0000000  0  5G18G11G 2G16G19
  20909071.023      165712.201 8    129126.62123        29.500           2.875
  24160731.531     -434522.145 6   -338588.17121        13.250           0.563
  24204631.438     -562466.698 5   -438285.40321        11.000           0.438
  24288584.445     -381314.584 5   -297128.57721         9.750           0.438
  20769162.453      -87120.054 7    -67885.83222        23.000           2.125
 91  5 23 17 51  0.0000000  0  5G18G11G 2G16G19
  20912353.344      182960.874 8    142567.14523        30.000           2.969
  24152563.594     -477442.395 6   -372032.46721        13.000           0.438
  24193979.242     -618437.118 5   -481898.65121        10.500           0.500
  24281458.344     -418750.581 5   -326299.47721         9.750           0.469
  20767584.055      -95428.512 7    -74359.95622        21.250           2.031
 91  5 23 17 51 15.0000000  0  5G18G11G 2G16G19
  20915659.547      200334.135 8    156104.75323        29.250           2.875
  24144416.672     -520262.561 6   -405398.76121        12.000           0.406
  24183341.977     -674354.554 5   -525470.63621        11.250           0.438
  24274360.383     -456057.372 5   -355369.67721        10.250           0.406
  20766015.336     -103661.772 7    -80775.49022        23.250           2.156
 91  5 23 17 51 30.0000000  0  5G18G11G 2G16G19
  20918987.789      217824.647 8    169733.71723        29.500           2.844
  24136283.672     -562989.667 5   -438692.56921        11.500           0.469
  24172707.648     -730226.245 5   -569006.98621        11.000           0.438
  24267283.820     -493241.881 5   -384344.62421        10.750           0.375
  20764462.711     -111827.515 7    -87138.41522        23.000           2.031
 91  5 23 17 51 45.0000000  0  5G18G11G 2G16G19
  20922339.133      235431.266 8    183453.14323        29.250           2.813
  24128172.883     -605624.431 5   -471914.40021        11.750           0.438
  24162087.250     -786053.299 5   -612508.55121        11.250           0.500
  24260232.484     -530305.260 5   -413225.17321        10.750           0.438
  20762919.344     -119926.847 7    -93449.58822        23.250           2.031
 91  5 23 17 52  0.0000000  0  5G18G11G 2G16G19
  20925710.375      253151.256 8    197260.91323        28.750           2.813
  24120078.313     -648168.992 6   -505065.94921        12.250           0.375
  24151469.914     -841838.022 5   -655977.12621        11.250           0.531
  24253200.781     -567249.730 5   -442013.05321        11.000           0.531
  20761393.586     -127962.333 7    -99711.02222        22.000           2.094
 91  5 23 17 52 15.0000000  0  5G18G11G 2G16G19
  20929105.531      270991.120 8    211162.08823        28.750           2.688
  24111999.977     -690616.572 5   -538141.93721        11.750           0.531
  24140864.188     -897573.917 5   -699407.64321        11.250           0.531
  24246195.492     -604068.599 5   -470703.08721        11.250           0.625
  20759874.758     -135927.586 7   -105917.71822        23.250           2.094
 91  5 23 17 52 30.0000000  0  5G18G11G 2G16G19
  20932522.438      288948.391 8    225154.74623        28.750           2.750
  24103938.922     -732969.060 6   -571143.81921        12.250           0.531
  24130269.320     -953263.016 6   -742801.70321        12.000           0.563
  24239211.477     -640764.144 5   -499296.99821        11.000           0.469
  20758372.383     -143824.893 7   -112071.47822        22.500           2.094
 91  5 23 17 52 45.0000000  0  5G18G11G 2G16G19
  20935961.445      307028.176 8    239242.87223        28.500           2.750
  24095897.461     -775220.839 6   -604067.22321        12.250           0.500
  24119680.820    -1008899.946 5   -786155.12421        11.500           0.531
  24232255.000     -677330.721 5   -527790.43121        11.250           0.469
  20756882.375     -151649.125 7   -118168.29722        23.000           2.156
 91  5 23 17 53  0.0000000  0  5G18G11G 2G16G19
  20939426.555      325227.542 8    253424.17623        28.000           2.688
  24087876.547     -817374.420 6   -636914.11721        13.000           0.500
  24109098.102    -1064487.268 5   -829469.88221        11.500           0.563
  24225319.141     -713770.926 5   -556185.39121        11.250           0.500
  20755408.313     -159403.146 7   -124210.39322        23.000           2.000
 91  5 23 17 53 15.0000000  0  5G18G11G 2G16G19
  20942911.695      343548.737 8    267700.41323        28.250           2.719
  24079878.617     -859426.984 6   -669682.30321        13.000           0.500
  24098529.648    -1120022.520 5   -872744.06221        11.000           0.531
  24218410.438     -750082.376 5   -584480.02321        11.500           0.500
  20753944.891     -167084.565 7   -130195.91522        23.250           2.063
 91  5 23 17 53 30.0000000  0  5G18G11G 2G16G19
  20946423.000      361994.964 8    282074.08323        28.750           2.750
  24071893.820     -901374.914 6   -702368.94521        13.000           0.500
  24087976.414    -1175502.107 5   -915974.88921        10.500           0.531
  24211522.102     -786261.334 5   -612671.42821        10.750           0.563
  20752500.438     -174690.061 7   -136122.27522        22.750           2.156
 91  5 23 17 53 45.0000000  0  5G18G11G 2G16G19
  20949956.195      380564.327 8    296543.70823        28.500           2.844
  24063926.734     -943219.626 6   -734975.16821        13.000           0.469
  24077428.047    -1230927.768 5   -959163.67321        10.000           0.563
  24204663.063     -822309.529 5   -640760.91721        11.750           0.531
  20751064.344     -182221.730 7   -141991.10522        23.000           2.125
 91  5 23 17 54  0.0000000  0  5G18G11G 2G16G19
  20953513.297      399256.905 8    311109.34323        28.250           2.781
  24055984.578     -984960.621 6   -767500.56321        13.000           0.406
  24066889.461    -1286299.279 5  -1002310.26221        10.000           0.438
  24197831.219     -858226.714 6   -668748.32421        12.500           0.500
  20749650.070     -189679.330 7   -147802.22222        21.750           2.125
 91  5 23 17 54 15.0000000  0  5G18G11G 2G16G19
  20957091.227      418058.388 8    325759.82923        28.000           2.844
  24048061.906    -1026611.851 6   -799956.03221        13.250           0.375
  24056361.930    -1341630.627 5  -1045425.55421        10.000           0.469
  24191018.141     -894026.724 6   -696644.42621        12.250           0.469
  20748238.547     -197077.076 7   -153566.69622        23.250           2.125
 91  5 23 17 54 30.0000000  0  5G18G11G 2G16G19
  20960690.828      436979.526 7    340503.56023        27.750           2.875
  24040152.703    -1068162.165 6   -832332.84921        13.250           0.406
  24045845.320    -1396910.896 5  -1088501.06721        10.500           0.500
  24184229.406     -929698.604 6   -724440.68421        12.500           0.438
  20746844.734     -204404.314 7   -159276.23222        23.250           2.063
 91  5 23 17 54 45.0000000  0  5G18G11G 2G16G19
  20964315.281      456021.284 7    355341.27723        27.500           2.906
  24032268.367    -1109609.947 6   -864629.78321        13.750           0.500
  24035332.438    -1452138.672 5  -1131535.66621        10.500           0.594
  24177467.125     -965241.214 6   -752136.23821        12.250           0.500
  20745462.766     -211659.912 7   -164929.95422        23.500           2.156
 91  5 23 17 55  0.0000000  0  5G18G11G 2G16G19
  20967963.273      475189.891 7    370277.84123        27.250           2.906
  24024399.328    -1150948.682 6   -896841.73021        13.750           0.344
  24024836.414    -1507307.765 5  -1174524.53321        11.500           0.656
  24170726.750    -1000648.196 6   -779726.08721        12.000           0.594
  20744098.742     -218837.672 7   -170523.02122        22.500           2.156
 91  5 23 17 55 15.0000000  0  5G18G11G 2G16G19
  20971631.703      494477.338 7    385306.99423        27.000           3.000
  24016554.094    -1192185.837 6   -928974.54621        14.000           0.438
  24014346.078    -1562425.860 5  -1217473.65421        11.000           0.500
  24164016.602    -1035926.927 6   -807216.01321        12.250           0.438
  20742745.852     -225945.635 7   -176061.69422        23.500           2.188
 91  5 23 17 55 30.0000000  0  5G18G11G 2G16G19
  20975324.773      513880.576 7    400426.38223        27.500           2.906
  24008724.336    -1233323.929 6   -961030.15921        14.000           0.563
  24003866.266    -1617495.647 5  -1260385.13921        11.000           0.625
  24157327.102    -1071080.007 6   -834608.04021        12.000           0.313
  20741407.047     -232986.615 7   -181548.16822        22.000           1.906
 91  5 23 17 55 45.0000000  0  5G18G11G 2G16G19
  20979041.258      533411.738 7    415645.45423        27.750           2.969
  24000918.180    -1274350.197 6   -992998.64921        14.000           0.531
  23993402.234    -1672504.503 5  -1303249.14021        10.750           0.563
  24150661.891    -1106094.886 5   -861892.34721        11.000           0.375
  20740080.016     -239948.199 7   -186972.75222        23.000           2.031
 91  5 23 17 56  0.0000000  0  5G18G11G 2G16G19
  20982781.828      553063.884 8    430958.80323        28.250           3.031
  23993128.852    -1315271.207 6  -1024885.10221        13.750           0.531
  23982940.406    -1727459.171 5  -1346070.91221        11.250           0.563
  24144022.625    -1140978.426 5   -889074.32121        10.750           0.438
  20738769.781     -246837.628 7   -192341.12522        22.000           2.094
 91  5 23 17 56 15.0000000  0  5G18G11G 2G16G19
  20986544.211      572838.451 8    446367.54523        28.000           3.000
  23985366.594    -1356085.148 6  -1056688.12721        14.500           0.563
  23972493.883    -1782357.965 6  -1388849.13821        12.250           0.563
  24137410.023    -1175729.069 5   -916152.74621        10.250           0.375
  20737471.383     -253653.533 7   -197652.21422        22.750           2.063
 91  5 23 17 56 30.0000000  0  5G18G11G 2G16G19
  20990331.102      592736.140 8    461872.23023        28.000           2.938
  23977619.086    -1396790.653 6  -1088406.66121        14.500           0.563
  23962057.500    -1837199.733 6  -1431582.96621        12.000           0.594
  24130823.078    -1210345.609 5   -943126.66321        10.500           0.406
  20736192.547     -260394.805 7   -202905.14622        21.500           2.125
 91  5 23 17 56 45.0000000  0  5G18G11G 2G16G19
  20994140.695      612753.071 8    477469.82823        28.000           3.063
  23969893.391    -1437391.261 6  -1120043.45521        14.250           0.625
  23951632.734    -1891988.435 5  -1474275.41321        11.750           0.625
  24124263.156    -1244831.307 5   -969998.63821        10.750           0.344
  20734918.680     -267065.291 7   -208102.93222        22.750           2.188
 91  5 23 17 57  0.0000000  0  5G18G11G 2G16G19
  20997973.555      632889.166 8    493160.28323        28.750           2.906
  23962186.820    -1477886.823 6  -1151598.40521        14.000           0.563
  23941219.945    -1946723.946 6  -1516926.43021        12.000           0.656
  24117723.688    -1279186.538 5   -996768.94821        10.000           0.406
  20733666.227     -273665.166 7   -213245.70422        22.250           2.094
 91  5 23 17 57 15.0000000  0  5G18G11G 2G16G19
  21001828.391      653147.664 8    508946.11923        28.500           3.000
  23954501.602    -1518273.521 6  -1183068.52021        13.750           0.469
  23930811.422    -2001402.644 6  -1559533.15621        12.250           0.594
  24111209.703    -1313407.688 5  -1023434.77521         9.750           0.344
  20732422.219     -280191.015 7   -218330.79322        22.750           2.125
 91  5 23 17 57 30.0000000  0  5G18G11G 2G16G19
  21005703.680      673525.166 8    524824.68423        28.250           3.031
  23946835.375    -1558554.084 6  -1214455.94721        13.500           0.688
  23920417.734    -2056027.466 6  -1602097.92521        12.500           0.625
  24104720.773    -1347497.455 5  -1049998.23021         9.750           0.406
  20731197.156     -286646.186 7   -223360.81922        22.000           2.094
 91  5 23 17 57 45.0000000  0  5G18G11G 2G16G19
  21009606.430      694025.069 7    540798.62723        27.750           2.938
  23939193.445    -1598724.669 6  -1245757.64921        14.250           0.531
  23910035.391    -2110594.809 6  -1644617.89721        12.500           0.594
  24098262.648    -1381452.237 5  -1076456.51021        10.250           0.406
  20729978.391     -293027.149 7   -228333.01922        23.000           2.063
 91  5 23 17 58  0.0000000  0  5G18G11G 2G16G19
  21013530.195      714646.434 8    556867.20623        28.000           2.906
  23931566.727    -1638785.942 6  -1276974.19621        13.500           0.500
  23899660.023    -2165105.559 6  -1687093.77621        12.000           0.688
  24091828.180    -1415272.708 5  -1102810.10521        10.250           0.469
  20728780.516     -299334.975 7   -233248.24022        22.000           2.188
 91  5 23 17 58 15.0000000  0  5G18G11G 2G16G19
  21017475.867      735384.908 8    573027.04023        28.250           2.938
  23923962.805    -1678741.786 6  -1308108.58121        13.750           0.531
  23889296.555    -2219563.780 6  -1729528.71521        12.000           0.625
  24085417.656    -1448963.001 5  -1129062.28021        10.500           0.406
  20727592.695     -305573.769 7   -238109.65222        23.000           2.188
 91  5 23 17 58 30.0000000  0  5G18G11G 2G16G19
  21021445.688      756244.395 8    589281.16923        28.250           2.844
  23916381.188    -1718587.723 6  -1339157.33621        14.250           0.656
  23878945.055    -2273965.145 5  -1771919.34221        11.250           0.688
  24079031.758    -1482518.765 5  -1155209.63821        10.750           0.406
  20726423.148     -311739.577 7   -242914.19122        21.250           2.188
 91  5 23 17 58 45.0000000  0  5G18G11G 2G16G19
  21025439.969      777230.038 8    605633.60123        28.500           2.781
  23908820.063    -1758317.998 6  -1370115.95121        14.000           0.563
  23868602.391    -2328304.020 5  -1814261.28921        11.250           0.656
  24072672.188    -1515934.492 5  -1181247.86921        10.750           0.500
  20725259.844     -317826.940 7   -247657.60122        22.250           2.125
 91  5 23 17 59  0.0000000  0  5G18G11G 2G16G19
  21029456.141      798335.390 8    622079.31023        28.500           2.844
  23901279.008    -1797938.735 6  -1400989.22221        13.750           0.594
  23858275.914    -2382586.882 5  -1856559.58421        11.500           0.750
  24066338.508    -1549216.539 5  -1207181.91821        10.750           0.500
  20724116.430     -323842.445 7   -252345.01322        22.000           2.250
 91  5 23 17 59 15.0000000  0  5G18G11G 2G16G19
  21033494.469      819563.140 7    638620.39023        27.750           2.813
  23893764.563    -1837446.908 6  -1431774.77221        14.000           0.563
  23847960.727    -2436810.768 5  -1898811.92221        11.750           0.719
  24060031.836    -1582362.040 5  -1233009.58221        11.250           0.500
  20722985.547     -329783.588 7   -256974.47622        22.500           2.094
 91  5 23 17 59 30.0000000  0  5G18G11G 2G16G19
  21037557.922      840913.584 8    655257.07223        28.250           2.844
  23886265.094    -1876841.827 6  -1462472.07121        13.500           0.563
  23837651.391    -2490975.369 5  -1941018.06421        11.750           0.656
  24053751.914    -1615370.352 5  -1258730.33421        11.750           0.531
  20721869.875     -335650.162 7   -261545.83422        21.750           2.125
 91  5 23 17 59 45.0000000  0  5G18G11G 2G16G19
  21041643.633      862385.152 8    671988.14523        28.000           2.844
  23878791.727    -1916124.316 6  -1493081.76321        13.500           0.563
  23827351.375    -2545081.718 5  -1983178.82421        10.750           0.625
  24047496.461    -1648242.616 6  -1284345.06721        12.000           0.406
  20720765.570     -341443.317 7   -266059.98322        22.500           2.125
 91  5 23 18  0  0.0000000  0  5G18G11G 2G16G19
  21045752.688      883978.366 7    688814.01123        27.750           2.781
  23871338.641    -1955293.482 6  -1523603.16621        14.000           0.469
  23817069.531    -2599128.999 5  -2025293.53421        11.250           0.625
  24041265.602    -1680978.386 6  -1309853.46921        12.750           0.563
  20719679.688     -347162.485 7   -270516.48022        21.750           2.156
 91  5 23 18  0 15.0000000  0  5G18G11G 2G16G19
  21049883.016      905691.309 7    705733.18623        27.500           2.813
  23863907.445    -1994350.637 6  -1554037.28721        13.500           0.469
  23806793.828    -2653118.715 5  -2067363.39421        11.750           0.688
  24035063.625    -1713578.679 6  -1335256.31021        12.750           0.438
  20718605.852     -352809.192 7   -274916.50922        21.500           2.219
 91  5 23 18  0 30.0000000  0  5G18G11G 2G16G19
  21054040.539      927524.157 8    722745.79123        28.250           2.844
  23856495.047    -2033294.961 6  -1584383.48121        13.500           0.531
  23796531.352    -2707050.145 5  -2109387.85121        11.750           0.625
  24028883.930    -1746042.960 6  -1360553.13821        12.250           0.531
  20717545.633     -358383.226 7   -279259.91022        21.250           2.094
 91  5 23 18  0 45.0000000  0  5G18G11G 2G16G19
  21058217.555      949477.129 7    739851.99623        27.750           2.719
  23849103.141    -2072125.973 6  -1614641.38521        13.000           0.594
  23786280.797    -2760923.005 6  -2151366.66021        12.500           0.656
  24022732.977    -1778370.837 6  -1385743.70121        12.500           0.563
  20716497.273     -363884.586 7   -283546.67922        21.750           2.125
 91  5 23 18  1  0.0000000  0  5G18G11G 2G16G19
  21062416.273      971549.312 7    757051.09023        27.750           2.844
  23841736.703    -2110844.154 6  -1644811.35721        12.750           0.625
  23776040.828    -2814738.006 6  -2193300.39421        12.500           0.531
  24016609.039    -1810563.109 6  -1410828.58521        12.500           0.594
  20715464.469     -369313.972 7   -287777.36222        22.000           2.156
 91  5 23 18  1 15.0000000  0  5G18G11G 2G16G19
  21066638.680      993738.961 8    774341.71523        28.000           2.750
  23834392.109    -2149450.950 6  -1674894.52121        13.500           0.500
  23765808.898    -2868496.809 6  -2235190.33021        12.250           0.594
  24010505.195    -1842621.359 6  -1435809.03821        12.250           0.594
  20714444.102     -374673.043 7   -291953.25322        22.000           2.156
 91  5 23 18  1 30.0000000  0  5G18G11G 2G16G19
  21070884.023     1016042.832 7    791721.33923        27.250           2.813
  23827062.469    -2187949.121 6  -1704893.07021        13.000           0.563
  23755589.570    -2922202.335 6  -2277038.74821        13.000           0.563
  24004432.664    -1874548.373 6  -1460687.22121        12.250           0.625
  20713437.797     -379965.186 7   -296076.99722        22.000           2.219
 91  5 23 18  1 45.0000000  0  5G18G11G 2G16G19
  21075150.031     1038461.938 7    809190.75623        26.750           2.875
  23819759.828    -2226337.070 6  -1734805.72721        13.500           0.531
  23745381.492    -2975853.162 6  -2318844.55321        13.750           0.594
  23998379.391    -1906342.719 6  -1485462.01921        12.250           0.500
  20712443.695     -385189.159 7   -300147.62522        22.250           2.094
 91  5 23 18  2  0.0000000  0  5G18G11G 2G16G19
  21079439.344     1060999.609 7    826752.56423        27.000           2.906
  23812476.328    -2264610.732 6  -1764629.33221        13.750           0.438
  23735181.250    -3029445.575 6  -2360604.85921        13.500           0.563
  23992357.813    -1938000.619 6  -1510130.51721        12.250           0.531
  20711462.164     -390341.431 7   -304162.39722        21.750           2.125
 91  5 23 18  2 15.0000000  0  5G18G11G 2G16G19
  21083750.266     1083656.143 7    844406.99423        27.250           2.906
  23805215.750    -2302769.776 6  -1794363.61721        14.000           0.531
  23724993.266    -3082979.423 6  -2402319.49921        13.250           0.594
  23986359.828    -1969521.826 6  -1534692.47621        12.000           0.563
  20710495.477     -395421.863 7   -308121.19422        22.000           2.188
 91  5 23 18  2 30.0000000  0  5G18G11G 2G16G19
  21088082.555     1106424.748 7    862148.74523        26.750           2.938
  23797972.711    -2340820.361 6  -1824013.38721        14.250           0.594
  23714819.609    -3136461.005 6  -2443993.42321        13.250           0.719
  23980383.820    -2000913.052 5  -1559153.16121        11.750           0.500
  20709540.625     -400437.260 7   -312029.31322        22.250           2.188
 91  5 23 18  2 45.0000000  0  5G18G11G 2G16G19
  21092438.266     1129307.942 7    879979.79123        26.750           2.906
  23790753.984    -2378759.447 6  -1853576.28521        14.500           0.594
  23704651.289    -3189887.432 6  -2485624.34821        12.500           0.719
  23974437.773    -2032171.168 5  -1583510.13821        11.750           0.531
  20708603.281     -405384.803 7   -315884.53622        22.000           2.125
 91  5 23 18  3  0.0000000  0  5G18G11G 2G16G19
  21096814.773     1152313.232 7    897905.97923        27.000           2.969
  23783561.055    -2416579.179 6  -1883046.17421        14.500           0.625
  23694494.313    -3243250.885 6  -2527206.21821        12.250           0.750
  23968513.555    -2063288.357 5  -1607757.28221        11.000           0.531
  20707674.977     -410256.960 7   -319681.01722        21.500           2.000
 91  5 23 18  3 15.0000000  0  5G18G11G 2G16G19
  21101215.250     1175432.384 7    915920.88523        26.750           2.844
  23776382.805    -2454287.324 6  -1912429.11421        15.000           0.625
  23684352.461    -3296559.469 6  -2568745.31821        13.250           0.813
  23962618.781    -2094272.646 5  -1631900.86821        11.000           0.563
  20706757.250     -415061.864 7   -323425.08522        21.500           2.031
 91  5 23 18  3 30.0000000  0  5G18G11G 2G16G19
  21105636.383     1198668.997 7    934027.32623        26.250           2.781
  23769228.164    -2491879.595 6  -1941721.76921        15.000           0.563
  23674221.359    -3349809.048 6  -2610238.46621        13.750           0.781
  23956749.398    -2125119.971 5  -1655937.74721        11.000           0.594
  20705861.336     -419795.470 7   -327113.59322        20.750           2.000
 91  5 23 18  3 45.0000000  0  5G18G11G 2G16G19
  21110079.836     1222019.376 7    952222.40723        26.000           2.875
  23762095.172    -2529359.227 6  -1970926.65221        15.000           0.563
  23664096.945    -3403003.054 6  -2651688.29921        14.250           0.844
  23950903.953    -2155833.660 5  -1679870.46621         9.750           0.500
  20704969.906     -424461.480 7   -330749.43222        22.000           2.094
 91  5 23 18  4  0.0000000  0  5G18G11G 2G16G19
  21114547.063     1245490.325 7    970511.43823        26.500           2.781
  23754989.406    -2566718.998 6  -2000038.12521        15.500           0.500
  23653987.672    -3456134.383 6  -2693089.30421        13.750           0.813
  23945082.938    -2186406.830 5  -1703693.68921         9.250           0.469
  20704095.633     -429053.065 7   -334327.27022        22.250           2.031
 91  5 23 18  4 15.0000000  0  5G18G11G 2G16G19
  21119035.609     1269079.740 7    988892.78623        26.750           2.906
  23747902.164    -2603960.684 6  -2029057.60021        15.250           0.563
  23643884.656    -3509205.092 6  -2734443.07221        13.000           0.750
  23939291.289    -2216841.270 5  -1727408.84021         9.500           0.469
  20703236.477     -433572.546 7   -337848.93622        21.500           2.031
 91  5 23 18  4 30.0000000  0  5G18G11G 2G16G19
  21123546.414     1292784.703 7   1007364.16923        27.000           2.938
  23740835.609    -2641086.584 6  -2057986.84521        15.000           0.563
  23633801.930    -3562217.667 6  -2775751.52221        13.750           0.844
  23933528.703    -2247139.609 5  -1751017.92421         9.750           0.469
  20702389.000     -438022.436 7   -341316.37622        20.750           2.000
 91  5 23 18  4 45.0000000  0  5G18G11G 2G16G19
  21128079.453     1316602.013 7   1025923.10123        27.000           3.031
  23733792.688    -2678099.490 6  -2086828.05321        14.500           0.563
  23623722.344    -3615175.085 6  -2817016.99721        14.500           0.813
  23927788.445    -2277304.514 5  -1774523.01321        10.250           0.500
  20701553.797     -442405.934 7   -344732.08322        21.000           2.063
 91  5 23 18  5  0.0000000  0  5G18G11G 2G16G19
  21132632.789     1340534.705 7   1044571.94123        26.500           2.906
  23726771.352    -2714995.795 6  -2115578.39021        15.000           0.594
  23613657.195    -3668073.874 6  -2858236.79821        14.750           0.906
  23922076.055    -2307332.446 5  -1797921.39521        10.250           0.438
  20700736.531     -446719.936 7   -348093.63822        20.750           2.031
 91  5 23 18  5 15.0000000  0  5G18G11G 2G16G19
  21137210.625     1364586.802 7   1063313.81423        27.000           2.969
  23719771.555    -2751771.038 6  -2144234.40621        14.500           0.594
  23603602.227    -3720909.708 6  -2899407.52821        14.750           0.844
  23916385.758    -2337219.396 5  -1821209.90521        10.250           0.531
  20699925.789     -450960.239 7   -351397.78222        21.000           2.063
 91  5 23 18  5 30.0000000  0  5G18G11G 2G16G19
  21141809.625     1388754.643 7   1082145.89023        27.250           2.938
  23712795.836    -2788428.563 6  -2172798.68421        14.750           0.656
  23593555.563    -3773686.205 6  -2940532.02921        14.000           0.781
  23910727.813    -2366969.095 5  -1844391.46221        10.750           0.406
  20699133.805     -455130.660 7   -354647.47822        21.500           1.906
 91  5 23 18  5 45.0000000  0  5G18G11G 2G16G19
  21146431.250     1413038.702 7   1101068.52123        27.250           3.000
  23705843.078    -2824967.291 6  -2201270.39321        14.500           0.656
  23583525.266    -3826402.455 6  -2981609.57221        13.750           0.781
  23905092.789    -2396580.367 5  -1867465.19321        11.750           0.406
  20698354.500     -459230.353 7   -357842.06822        21.500           2.063
 91  5 23 18  6  0.0000000  0  5G18G11G 2G16G19
  21151072.680     1437434.506 7   1120078.22523        27.250           3.125
  23698912.844    -2861391.201 6  -2229652.63821        14.750           0.688
  23573504.180    -3879062.785 6  -3022643.56021        14.000           0.719
  23899481.844    -2426057.377 5  -1890434.26421        11.500           0.438
  20697584.531     -463263.671 7   -360984.93122        22.000           1.969
 91  5 23 18  6 15.0000000  0  5G18G11G 2G16G19
  21155736.984     1461944.323 7   1139176.77023        27.250           2.875
  23692003.844    -2897697.692 6  -2257943.39021        14.750           0.625
  23563495.227    -3931664.588 6  -3063631.93121        14.000           0.750
  23893897.656    -2455397.551 5  -1913296.74421        11.500           0.438
  20696830.719     -467228.412 7   -364074.35422        21.750           2.000
 91  5 23 18  6 30.0000000  0  5G18G11G 2G16G19
  21160423.516     1486570.950 7   1158366.32923        27.250           3.000
  23685116.961    -2933883.402 6  -2286140.02421        14.750           0.594
  23553496.359    -3984204.528 6  -3104572.09721        13.750           0.750
  23888343.414    -2484598.013 5  -1936050.33421        11.500           0.344
  20696094.406     -471121.517 7   -367107.94622        21.250           2.000
 91  5 23 18  6 45.0000000  0  5G18G11G 2G16G19
  21165134.109     1511318.308 7   1177649.96823        27.750           3.000
  23678252.891    -2969944.067 6  -2314239.22521        14.250           0.625
  23543512.133    -4036678.774 6  -3145461.06421        14.000           0.750
  23882812.039    -2513654.807 6  -1958691.98421        12.000           0.469
  20695363.813     -474939.196 7   -370082.75622        22.000           2.063
 91  5 23 18  7  0.0000000  0  5G18G11G 2G16G19
  21169862.195     1536178.470 7   1197021.50523        27.500           3.000
  23671416.766    -3005886.978 6  -2342246.66821        14.750           0.531
  23533538.398    -4089094.559 6  -3186304.48621        14.250           0.781
  23877311.195    -2542574.941 5  -1981227.12821        11.750           0.406
  20694649.656     -478689.039 7   -373004.70822        22.750           2.031
 91  5 23 18  7 15.0000000  0  5G18G11G 2G16G19
  21174616.039     1561153.858 7   1216482.83223        27.500           3.094
  23664599.992    -3041709.365 6  -2370160.19921        15.000           0.625
  23523573.711    -4141449.546 6  -3227100.53721        13.750           0.719
  23871835.305    -2571356.033 6  -2003653.94921        12.250           0.469
  20693951.719     -482368.698 7   -375871.97122        22.000           1.969
 91  5 23 18  7 30.0000000  0  5G18G11G 2G16G19
  21179392.352     1586251.914 7   1236039.74423        27.750           3.000
  23657807.391    -3077403.280 6  -2397973.63221        15.000           0.594
  23513622.977    -4193735.856 6  -3267843.07021        14.250           0.750
  23866383.570    -2599990.233 6  -2025966.29021        12.000           0.531
  20693266.570     -485970.406 7   -378678.50122        21.750           1.938
 91  5 23 18  7 45.0000000  0  5G18G11G 2G16G19
  21184190.172     1611473.444 7   1255692.86823        27.750           3.063
  23651038.992    -3112967.556 6  -2425686.03621        15.000           0.625
  23503688.641    -4245952.407 6  -3308531.23121        14.250           0.875
  23860964.805    -2628476.740 6  -2048163.57121        12.500           0.438
  20692596.570     -489493.331 7   -381423.64522        22.000           2.031
 91  5 23 18  8  0.0000000  0  5G18G11G 2G16G19
  21189014.328     1636817.219 8   1275441.24523        28.000           3.031
  23644297.281    -3148402.888 6  -2453297.96621        14.500           0.688
  23493762.109    -4298100.263 6  -3349165.87521        14.000           0.750
  23855569.508    -2656816.326 6  -2070246.35721        12.000           0.500
  20691937.531     -492938.704 7   -384108.35122        21.500           2.000
 91  5 23 18  8 15.0000000  0  5G18G11G 2G16G19
  21193860.406     1662277.948 8   1295280.75523        28.000           3.094
  23637579.281    -3183714.008 6  -2480813.10221        15.250           0.719
  23483855.148    -4350184.155 6  -3389750.68321        14.750           0.844
  23850198.563    -2685013.816 6  -2092218.41921        12.000           0.625
  20691297.484     -496311.632 7   -386736.60622        21.500           1.969
 91  5 23 18  8 30.0000000  0  5G18G11G 2G16G19
  21198726.063     1687855.545 7   1315211.32823        27.500           2.938
  23630879.742    -3218900.265 6  -2508230.95221        14.750           0.688
  23473953.609    -4402203.459 6  -3430285.15221        14.500           0.750
  23844865.195    -2713068.637 6  -2114079.29221        12.500           0.500
  20690670.883     -499611.644 7   -389308.04922        21.500           2.031
 91  5 23 18  8 45.0000000  0  5G18G11G 2G16G19
  21203616.844     1713550.561 7   1335233.40123        27.750           3.000
  23624209.906    -3253960.993 6  -2535550.97521        15.250           0.656
  23464068.742    -4454158.035 6  -3470769.18521        14.750           0.781
  23839553.688    -2740980.354 6  -2135828.68121        13.000           0.438
  20690055.250     -502838.663 7   -391822.60922        21.250           2.000
 91  5 23 18  9  0.0000000  0  5G18G11G 2G16G19
  21208527.242     1739358.158 7   1355343.20323        27.750           2.969
  23617560.008    -3288900.548 6  -2562776.58321        15.000           0.656
  23454191.297    -4506052.358 6  -3511206.28021        15.000           0.656
  23834269.227    -2768753.528 5  -2157470.10821        11.750           0.500
  20689455.484     -505997.357 7   -394283.93722        20.500           2.094
 91  5 23 18  9 15.0000000  0  5G18G11G 2G16G19
  21213460.406     1765280.248 7   1375542.21923        27.750           2.938
  23610935.063    -3323716.515 6  -2589905.90521        15.000           0.750
  23444327.242    -4557884.116 6  -3551594.61121        14.750           0.906
  23829010.000    -2796385.997 6  -2179001.90021        12.250           0.531
  20688866.938     -509085.622 7   -396690.38922        21.500           2.031
 91  5 23 18  9 30.0000000  0  5G18G11G 2G16G19
  21218414.938     1791316.128 7   1395829.89923        27.500           3.000
  23604333.781    -3358408.892 6  -2616938.89521        15.250           0.688
  23434477.352    -4609653.743 6  -3591934.52421        14.750           0.875
  23823779.367    -2823878.171 6  -2200424.36321        12.250           0.469
  20688293.672     -512103.983 7   -399042.34722        21.250           2.000
 91  5 23 18  9 45.0000000  0  5G18G11G 2G16G19
  21223391.047     1817472.422 7   1416211.41023        27.000           2.906
  23597758.961    -3392970.736 6  -2643870.20121        15.250           0.719
  23424640.375    -4661354.156 6  -3632220.51321        15.000           0.813
  23818576.383    -2851222.925 6  -2221731.96221        12.500           0.406
  20687733.352     -515045.674 7   -401334.55922        20.750           1.969
 91  5 23 18 10  0.0000000  0  5G18G11G 2G16G19
  21228392.320     1843747.180 7   1436685.22723        26.750           2.906
  23591203.398    -3427403.784 6  -2670701.12421        14.750           0.656
  23414813.711    -4712987.287 6  -3672454.07121        14.500           0.813
  23813399.742    -2878422.329 5  -2242926.30221        11.750           0.500
  20687188.883     -517912.824 7   -403568.68422        20.500           2.125
 91  5 23 18 10 15.0000000  0  5G18G11G 2G16G19
  21233412.945     1870132.215 7   1457244.96923        26.750           2.875
  23584673.352    -3461715.532 6  -2697437.54221        15.000           0.688
  23404998.367    -4764560.733 6  -3712641.11221        15.000           0.813
  23808250.055    -2905484.105 5  -2264013.39721        11.000           0.469
  20686654.414     -520713.270 7   -405750.84022        21.250           2.156
 91  5 23 18 10 30.0000000  0  5G18G11G 2G16G19
  21238453.836     1896629.118 7   1477891.88923        26.500           2.781
  23578168.188    -3495903.954 6  -2724077.85021        14.750           0.688
  23395197.680    -4816072.661 6  -3752780.22921        15.250           0.938
  23803128.102    -2932406.436 5  -2284991.81921        11.750           0.531
  20686134.125     -523445.218 7   -407879.62222        21.000           2.000
 91  5 23 18 10 45.0000000  0  6G18G11G 2G16G19G 6
  21243518.250     1923236.674 7   1498625.03623        26.250           2.750
  23571685.656    -3529969.636 6  -2750622.53621        14.250           0.688
  23385405.453    -4867523.884 6  -3792872.03821        15.500           0.906
  23798032.773    -2959190.084 5  -2305862.19121        11.750           0.438
  20685626.555     -526109.704 7   -409955.84422        21.500           2.063
  24524823.883          -0.90415                         9.250
 91  5 23 18 11  0.0000000  0  6G18G11G 2G16G19G 6
  21248604.164     1949955.297 7   1519444.72623        26.500           2.781
  23565227.594    -3563911.891 6  -2777071.03021        15.000           0.781
  23375629.227    -4918913.978 6  -3832916.20921        15.750           0.875
  23792957.422    -2985834.440 5  -2326624.03221        10.750           0.469
  20685137.219     -528706.424 7   -411979.27022        20.250           1.906
  24516585.281      -43310.780 5                         9.500
 91  5 23 18 11 15.0000000  0  6G18G11G 2G16G19G 6
  21253708.570     1976784.968 7   1540350.94823        26.500           2.719
  23558792.125    -3597730.223 6  -2803422.95721        14.750           0.656
  23365857.227    -4970242.578 6  -3872912.45621        15.000           0.906
  23787914.469    -3012339.081 5  -2347276.97521        10.500           0.531
  20684652.828     -531235.266 7   -413949.81322        21.750           2.094
  24508346.000      -86590.526 5                         8.500
 91  5 23 18 11 30.0000000  0  6G18G11G 2G16G19G 6
  21258833.883     2003720.367 7   1561339.55723        26.250           2.719
  23552379.875    -3631429.414 6  -2829682.05921        15.500           0.688
  23356102.680    -5021514.802 6  -3912864.79921        15.000           0.938
  23782902.266    -3038709.237 5  -2367825.13521        11.250           0.531
  20684182.828     -533701.447 7   -415871.53322        21.750           1.969
  24500115.977     -129845.416 5                         7.750
 91  5 23 18 11 45.0000000  0  6G18G11G 2G16G19G 6
  21263981.688     2030768.011 7   1582415.62823        26.000           2.813
  23545990.039    -3665002.357 6  -2855842.78921        15.250           0.719
  23346358.609    -5072723.606 6  -3952767.71021        15.250           1.063
  23777907.609    -3064937.577 5  -2388262.79921        11.000           0.469
  20683727.172     -536098.017 7   -417739.01722        21.750           1.969
  24491888.602     -173068.491 4        -0.30531         6.750           0.094
 91  5 23 18 12  0.0000000  0  6G18G11G 2G16G19G 6
  21269148.617     2057923.911 7   1603576.04323        26.000           2.750
  23539624.352    -3698452.945 6  -2881908.17821        15.750           0.750
  23336622.656    -5123872.893 6  -3992624.24121        14.750           1.063
  23772939.930    -3091028.455 5  -2408593.34521        11.000           0.531
  20683283.320     -538429.139 7   -419555.49722        21.750           2.156
  24483666.484     -216264.023 4    -33659.07821         6.500           0.094
 91  5 23 18 12 15.0000000  0  6G18G11G 2G16G19G 6
  21274336.695     2085192.940 7   1624824.62123        25.500           2.781
  23533284.898    -3731775.743 6  -2907873.97821        16.000           0.625
  23326903.773    -5174957.236 6  -4032430.16221        15.000           0.906
  23768000.617    -3116976.551 5  -2428812.63621        10.250           0.594
  20682852.930     -540689.642 7   -421316.94922        21.750           1.969
  24475456.289     -259426.835 4    -67292.43321         6.750           0.188
 91  5 23 18 12 30.0000000  0  6G18G11G 2G16G19G 6
  21279548.742     2112573.083 7   1646159.78223        25.500           2.656
  23526965.898    -3764972.169 6  -2933741.30921        16.250           0.625
  23317192.813    -5225978.430 6  -4072186.86521        14.750           1.031
  23763090.828    -3142783.661 5  -2448922.04421        11.250           0.563
  20682436.563     -542881.382 7   -423024.81422        21.750           1.938
  24467245.023     -302558.743 4   -100901.66521         6.250           0.219
 91  5 23 18 12 45.0000000  0  6G18G11G 2G16G19G 6
  21284777.641     2140060.091 7   1667578.20723        25.250           2.563
  23520676.219    -3798046.180 6  -2959513.26721        16.500           0.781
  23307497.375    -5276940.637 6  -4111897.63321        15.250           0.969
  23758208.289    -3168453.650 5  -2468924.62321        11.000           0.531
  20682030.820     -545008.708 7   -424682.48822        21.750           1.875
  24459044.477     -345664.209 4   -134490.30921         6.750           0.250
 91  5 23 18 13  0.0000000  0  6G18G11G 2G16G19G 6
  21290028.883     2167652.808 7   1689079.00923        25.750           2.594
  23514401.781    -3830998.391 6  -2985190.29521        16.000           0.625
  23297809.680    -5327844.728 6  -4151563.10821        15.000           1.063
  23753352.664    -3193987.123 5  -2488820.82521        11.750           0.531
  20681638.602     -547072.513 7   -426290.66322        21.000           1.875
  24450846.266     -388743.915 4   -168058.84721         7.250           0.281
 91  5 23 18 13 15.0000000  0  6G18G11G 2G16G19G 6
  21295300.508     2195354.770 7   1710664.94023        25.750           2.656
  23508155.891    -3863824.542 6  -3010769.10721        16.000           0.656
  23288134.320    -5378686.511 6  -4191180.02421        15.000           1.031
  23748517.820    -3219380.481 5  -2508607.85021        11.750           0.500
  20681257.570     -549068.983 7   -427846.37522        21.500           2.000
  24442654.164     -431794.267 4   -201604.51721         7.000           0.250
 91  5 23 18 13 30.0000000  0  6G18G11G 2G16G19G 6
  21300591.297     2223163.609 7   1732334.14923        25.750           2.719
  23501935.711    -3896526.582 6  -3036251.20421        16.750           0.625
  23278470.242    -5429467.894 6  -4230749.87721        15.000           1.000
  23743710.836    -3244636.090 5  -2528287.53721        11.500           0.563
  20680891.516     -551000.268 7   -429351.29022        21.250           1.844
  24434469.516     -474817.297 5   -235128.92121         7.500           0.344
 91  5 23 18 13 45.0000000  0  6G18G11G 2G16G19G 6
  21305904.234     2251083.292 7   1754089.72923        26.000           2.688
  23495736.375    -3929100.244 6  -3061633.26721        16.500           0.656
  23268821.242    -5480185.071 6  -4270269.69821        15.250           1.000
  23738929.875    -3269749.591 5  -2547856.48121        11.500           0.531
  20680537.078     -552862.728 7   -430802.56922        21.250           2.000
  24426286.555     -517809.229 4   -268629.08421         7.250           0.375
 91  5 23 18 14  0.0000000  0  6G18G11G 2G16G19G 6
  21311239.617     2279113.091 7   1775931.11423        26.250           2.844
  23489559.680    -3961545.772 6  -3086915.48621        15.750           0.719
  23259183.672    -5530838.475 6  -4309739.83721        15.750           0.969
  23734177.203    -3294721.142 5  -2567314.84321        11.000           0.469
  20680194.289     -554656.711 7   -432200.48322        21.250           2.000
  24418110.438     -560770.532 5   -302105.37521         7.500           0.375
 91  5 23 18 14 15.0000000  0  6G18G11G 2G16G19G 6
  21316593.672     2307249.791 7   1797855.80023        26.000           2.844
  23483410.609    -3993866.124 6  -3112100.16121        16.000           0.688
  23249556.266    -5581431.073 6  -4349162.58721        15.750           0.969
  23729456.289    -3319554.019 5  -2586665.11021        11.750           0.469
  20679866.898     -556385.599 7   -433547.67422        21.250           2.031
  24409943.250     -603704.574 5   -335560.44321         8.500           0.313
 91  5 23 18 14 30.0000000  0  6G18G11G 2G16G19G 6
  21321968.500     2335491.717 7   1819862.47423        26.250           2.844
  23477284.273    -4026062.234 6  -3137188.03321        16.500           0.688
  23239938.984    -5631963.843 6  -4388538.72321        15.250           0.875
  23724757.383    -3344249.257 5  -2605908.15321        11.750           0.375
  20679548.477     -558050.495 7   -434844.98822        21.250           1.938
  24401778.211     -646612.647 5   -368995.25421         8.250           0.406
 91  5 23 18 14 45.0000000  0  6G18G11G 2G16G19G 6
  21327361.023     2363836.974 7   1841949.68023        26.250           2.813
  23471180.711    -4058135.733 6  -3162180.36021        15.750           0.656
  23230333.086    -5682438.767 6  -4427869.78421        15.500           0.875
  23720080.258    -3368808.605 5  -2625045.31021        11.750           0.375
  20679244.094     -559653.562 7   -436094.12622        21.250           1.938
  24393615.641     -689496.618 5   -402411.29021         8.500           0.313
 91  5 23 18 15  0.0000000  0  6G18G11G 2G16G19G 6
  21332778.680     2392294.038 7   1864124.00723        26.500           2.938
  23465103.570    -4090077.472 6  -3187070.00421        16.250           0.688
  23220741.398    -5732846.840 6  -4467148.74321        15.000           0.938
  23715437.586    -3393223.462 5  -2644069.85421        11.750           0.469
  20678952.117     -561185.948 7   -437288.18422        21.250           1.938
  24385459.953     -732347.828 5   -435801.79721         8.500           0.281
 91  5 23 18 15 15.0000000  0  6G18G11G 2G16G19G 6
  21338211.633     2420857.361 7   1886381.12623        26.250           3.063
  23459048.023    -4121892.527 6  -3211860.94821        16.250           0.625
  23211159.320    -5783193.318 6  -4506379.70821        14.750           0.906
  23710818.883    -3417499.034 6  -2662985.88821        12.250           0.500
  20678672.805     -562652.939 7   -438431.27722        21.500           1.844
  24377314.594     -775171.599 5   -469170.96421         9.000           0.281
 91  5 23 18 15 30.0000000  0  6G18G11G 2G16G19G 6
  21343670.414     2449538.281 7   1908729.87723        26.500           3.000
  23453019.219    -4153569.130 6  -3236544.00721        16.000           0.625
  23201590.703    -5833466.607 6  -4545553.64521        15.250           0.906
  23706228.875    -3441623.542 6  -2681784.19121        12.500           0.469
  20678410.992     -564043.204 7   -439514.58122        21.250           1.938
  24369171.508     -817956.524 5   -502509.81721         9.250           0.375
 91  5 23 18 15 45.0000000  0  6G18G11G 2G16G19G 6
  21349148.773     2478324.248 7   1931160.48023        26.500           3.031
  23447016.852    -4185119.415 6  -3261128.63421        16.000           0.625
  23192037.125    -5883678.967 6  -4584680.11121        15.500           0.906
  23701661.305    -3465609.047 5  -2700474.18421        11.750           0.438
  20678157.305     -565369.176 7   -440547.79122        21.500           1.906
  24361034.625     -860715.132 5   -535828.18221         8.500           0.344
 91  5 23 18 16  0.0000000  0  6G18G11G 2G16G19G 6
  21354645.734     2507212.244 7   1953670.58623        27.000           3.031
  23441033.742    -4216545.871 6  -3285616.76521        15.500           0.656
  23182494.172    -5933832.905 6  -4623761.05621        15.750           0.938
  23697122.188    -3489458.605 6  -2719058.24021        12.250           0.500
  20677918.125     -566633.547 7   -441532.99922        20.750           1.969
  24352899.328     -903450.165 5   -569128.16821         8.000           0.313
 91  5 23 18 16 15.0000000  0  6G18G11G 2G16G19G 6
  21360161.258     2536203.942 7   1976261.50023        26.250           3.063
  23435079.727    -4247846.408 6  -3310006.78121        15.750           0.500
  23172961.570    -5983926.552 6  -4662795.01521        15.750           0.781
  23692611.445    -3513170.272 6  -2737534.86321        12.250           0.406
  20677687.055     -567834.560 7   -442468.83822        21.500           1.938
  24344776.773     -946159.853 5   -602408.38321         8.750           0.313
 91  5 23 18 16 30.0000000  0  6G18G11G 2G16G19G 6
  21365698.750     2565300.741 7   1998934.31123        26.250           3.063
  23429150.383    -4279019.197 6  -3334297.24821        15.500           0.594
  23163441.039    -6033958.232 6  -4701780.68521        15.500           0.938
  23688124.211    -3536742.552 6  -2755902.87121        12.500           0.375
  20677468.648     -568970.693 7   -443354.12522        22.250           1.969
  24336653.039     -988842.647 5   -635667.65221         8.250           0.250
 91  5 23 18 16 45.0000000  0  6G18G11G 2G16G19G 6
  21371257.297     2594503.545 7   2021689.72323        26.250           3.000
  23423240.758    -4310062.934 6  -3358487.15421        15.500           0.656
  23153932.797    -6083926.847 6  -4740717.21821        15.750           0.875
  23683665.445    -3560174.051 6  -2774161.16921        12.500           0.344
  20677267.719     -570041.048 7   -444188.16122        21.750           1.875
  24328537.727    -1031497.547 5   -668905.22021         7.750           0.313
 91  5 23 18 17  0.0000000  0  6G18G11G 2G16G19G 6
  21376834.602     2623820.327 7   2044533.94823        26.000           3.094
  23417357.039    -4340969.042 6  -3382569.82921        15.000           0.688
  23144436.586    -6133823.975 6  -4779598.04821        16.250           0.938
  23679238.555    -3583456.744 6  -2792303.54421        12.500           0.406
  20677079.563     -571037.412 7   -444964.53922        21.250           2.063
  24320425.258    -1074116.414 5   -702114.68221         7.500           0.063
 91  5 23 18 17 15.0000000  0  6G18G11G 2G16G19G 6
  21382432.359     2653240.959 7   2067459.09923        26.250           3.219
  23411503.500    -4371747.233 6  -3406552.81221        15.750           0.719
  23134953.867    -6183659.603 6  -4818430.96421        16.000           0.844
  23674832.797    -3606600.176 6  -2810337.36221        12.000           0.344
  20676901.680     -571969.746 7   -445691.02522        21.750           2.063
  24312322.680    -1116709.375 5   -735303.96621         8.000           0.281
 91  5 23 18 17 30.0000000  0  6G18G11G 2G16G19G 6
  21388053.781     2682776.724 7   2090473.96323        26.250           3.094
  23405668.719    -4402385.844 6  -3430427.04521        15.750           0.594
  23125484.070    -6233422.099 6  -4857206.88721        15.750           0.844
  23670455.984    -3629592.652 6  -2828253.57721        12.000           0.344
  20676738.055     -572826.629 7   -446358.71422        21.750           2.000
  24304218.422    -1159264.868 4   -768464.09521         7.000           0.094
 91  5 23 18 17 45.0000000  0  6G18G11G 2G16G19G 6
  21393695.477     2712420.724 7   2113573.16723        26.250           3.188
  23399867.500    -4432891.126 6  -3454197.38321        16.000           0.750
  23116027.313    -6283117.711 6  -4895930.69221        15.250           1.031
  23666107.172    -3652440.777 6  -2846057.31721        12.250           0.438
  20676588.102     -573614.702 7   -446972.79522        21.750           1.938
  24296125.742    -1201789.622 4   -801600.20821         7.250           0.188
 91  5 23 18 18  0.0000000  0  6G18G11G 2G16G19G 6
  21399355.539     2742171.574 7   2136755.62723        26.000           3.094
  23394084.695    -4463264.144 6  -3477864.65221        16.000           0.750
  23106581.273    -6332747.682 6  -4934603.34321        15.250           1.000
  23661788.477    -3675146.134 6  -2863749.78221        12.500           0.438
  20676450.383     -574335.345 7   -447534.32722        22.250           1.969
  24288038.203    -1244285.033 4   -834713.46421         6.750           0.281
 91  5 23 18 18 15.0000000  0  6G18G11G 2G16G19G 6
  21405037.453     2772022.003 7   2160015.68023        26.000           3.094
  23388330.945    -4493511.552 6  -3501434.04421        15.750           0.656
  23097146.008    -6382318.998 6  -4973230.29221        15.750           1.063
  23657492.992    -3697715.443 6  -2881336.24721        12.250           0.344
  20676325.484     -574995.494 7   -448048.73322        21.750           2.031
  24279960.211    -1286757.954 4   -867809.21121         7.000           0.219
 91  5 23 18 18 30.0000000  0  6G18G11G 2G16G19G 6
  21410737.875     2801979.636 7   2183359.27023        26.000           2.844
  23382600.711    -4523625.402 6  -3524899.35921        15.750           0.750
  23087732.703    -6431823.758 6  -5011805.38721        16.500           1.031
  23653228.070    -3720140.758 6  -2898810.50421        13.000           0.406
  20676210.945     -575587.615 7   -448510.12722        21.750           2.000
  24271885.055    -1329200.969 4   -900881.63321         7.250           0.188
 91  5 23 18 18 45.0000000  0  6G18G11G 2G16G19G 6
  21416458.695     2832034.925 7   2206778.95523        26.500           3.031
  23376893.852    -4553614.706 6  -3548267.63321        15.500           0.844
  23078319.289    -6481271.142 6  -5050335.76121        15.750           0.969
  23648981.633    -3742431.491 6  -2916179.90521        12.000           0.406
  20676109.773     -576120.977 7   -448925.74122        21.750           2.094
  24263812.617    -1371623.295 5   -933937.95521         7.750           0.250
 91  5 23 18 19  0.0000000  0  6G18G11G 2G16G19G 6
  21422196.414     2862196.236 7   2230281.25823        26.000           2.781
  23371211.016    -4583470.707 6  -3571532.02221        15.750           0.781
  23068922.594    -6530652.636 6  -5088814.80521        15.750           0.938
  23644766.531    -3764578.954 5  -2933437.66621        11.500           0.438
  20676023.563     -576586.995 7   -449288.88322        21.000           1.969
  24255742.969    -1414016.295 5   -966971.43921         8.000           0.219
 91  5 23 18 19 15.0000000  0  6G18G11G 2G16G19G 6
  21427957.383     2892464.434 7   2253866.84623        26.000           2.844
  23365555.164    -4613191.977 6  -3594691.43321        15.250           0.813
  23059537.641    -6579966.807 6  -5127241.38121        15.500           0.906
  23640581.680    -3786581.859 5  -2950582.77121        11.500           0.469
  20675946.227     -576984.555 7   -449598.67322        22.250           2.063
  24247680.625    -1456378.990 5   -999981.28221         8.000           0.313
 91  5 23 18 19 30.0000000  0  6G18G11G 2G16G19G 6
  21433736.828     2922840.604 7   2277536.56923        25.500           2.813
  23359926.422    -4642777.201 6  -3617744.82921        15.500           0.781
  23050167.859    -6629212.645 6  -5165614.71021        16.500           1.063
  23636423.305    -3808439.199 5  -2967614.46621        11.750           0.438
  20675883.117     -577312.676 7   -449854.36422        22.500           1.906
  24239621.297    -1498710.513 5  -1032966.82521         7.500           0.344
 91  5 23 18 19 45.0000000  0  6G18G11G 2G16G19G 6
  21439537.133     2953324.516 7   2301290.24623        25.500           2.781
  23354323.523    -4672225.991 6  -3640691.91821        16.000           0.656
  23040808.883    -6678389.833 6  -5203934.56421        16.500           0.969
  23632293.977    -3830150.649 6  -2984532.46421        12.000           0.438
  20675835.828     -577571.294 7   -450055.89522        21.750           2.031
  24231578.758    -1541010.741 5  -1065928.00321         8.500           0.406
 91  5 23 18 20  0.0000000  0  6G18G11G 2G16G19G 6
  21445358.758     2983915.816 7   2325127.59923        25.250           2.719
  23348746.867    -4701538.138 6  -3663532.54021        16.250           0.875
  23031463.789    -6727498.387 6  -5242200.92621        16.000           1.000
  23628186.375    -3851716.354 5  -3001336.89221        11.250           0.469
  20675799.508     -577760.640 7   -450203.44622        21.500           1.938
  24223535.625    -1583279.753 5  -1098864.85721         9.000           0.375
 91  5 23 18 20 15.0000000  0  6G18G11G 2G16G19G 6
  21451200.070     3014619.149 7   2349052.25923        25.000           2.781
  23343193.500    -4730708.668 6  -3686262.80621        16.500           0.813
  23022131.375    -6776533.177 6  -5280409.80121        16.250           1.094
  23624113.773    -3873131.355 5  -3018023.90321        11.500           0.469
  20675779.109     -577875.741 7                        21.750
  24215498.914    -1625512.789 5  -1131773.67921         8.750           0.344
 91  5 23 18 20 30.0000000  0  6G18G11G 2G16G19G 6
  21457066.695     3045442.263 7   2373070.24623        25.000           2.719
  23337669.305    -4759729.726 6  -3708876.60521        16.500           0.781
  23012817.234    -6825486.591 6  -5318555.27521        16.500           1.000
  23620066.258    -3894387.884 5  -3034587.41421        10.750           0.500
  20675771.922     -577909.165 7                        21.500
  24207470.789    -1667702.333 5  -1164648.60121         9.250           0.313
 91  5 23 18 20 45.0000000  0  6G18G11G 2G16G19G 6
  21462952.094     3076372.880 7   2397172.00623        25.250           2.594
  23332175.117    -4788612.754 6  -3731382.84621        16.000           0.875
  23003514.523    -6874370.396 6  -5356646.51221        16.500           1.063
  23616048.445    -3915497.762 5  -3051036.65121        10.250           0.438
  20675777.305     -577872.688 7                        21.500
  24199447.984    -1709860.204 5  -1197498.84521         9.750           0.281
 91  5 23 18 21  0.0000000  0  6G18G11G 2G16G19G 6
  21468858.078     3107406.925 7   2421354.35923        25.250           2.531
  23326704.438    -4817361.289 6  -3753784.27721        16.250           0.813
  22994224.328    -6923188.238 6  -5394686.34321        16.250           1.000
  23612056.180    -3936464.994 5  -3067374.72821        10.000           0.438
  20675798.031     -577770.110 7                        21.500
  24191430.141    -1751990.225 5  -1230327.40121        10.000           0.375
 91  5 23 18 21 15.0000000  0  6G18G11G 2G16G19G 6
  21474783.570     3138552.941 7   2445623.95822        25.000           2.469
  23321260.789    -4845966.446 6  -3776073.99921        16.250           0.750
  22984951.141    -6971931.330 6  -5432667.92721        16.500           1.094
  23608099.070    -3957280.354 5  -3083594.48021        11.250           0.594
  20675831.047     -577592.901 7                        21.250
  24183420.539    -1794083.854 5  -1263127.58721         9.250           0.469
 91  5 23 18 21 30.0000000  0  6G18G11G 2G16G19G 6
  21480732.023     3169804.149 7   2469975.52422        26.000           2.406
  23315841.617    -4874434.822 6  -3798257.13221        15.750           0.844
  22975687.734    -7020606.143 6  -5470596.30921        16.250           1.094
  23604166.180    -3977950.528 5  -3099701.09021        10.500           0.594
  20675880.242     -577347.926 7                        20.750
  24175416.375    -1836147.893 5  -1295904.71021         9.500           0.250
 91  5 23 18 21 45.0000000  0  6G18G11G 2G16G19G 6
  21486700.016     3201160.638 7   2494409.12722        26.000           2.406
  23310452.727    -4902765.538 6  -3820332.98521        16.750           0.875
  22966435.320    -7069212.237 6  -5508471.13921        16.250           1.031
  23600258.367    -3998475.371 5  -3115694.46521        10.500           0.500
  20675938.234     -577034.720 7   -449637.79622        21.250           1.938
  24167419.953    -1878181.857 5  -1328658.39721         9.250           0.250
 91  5 23 18 22  0.0000000  0  6G18G11G 2G16G19G 6
  21492686.359     3232628.547 7   2518929.55622        26.000           2.375
  23305087.000    -4930952.060 6  -3842296.50321        16.750           0.781
  22957202.055    -7117743.219 6  -5546287.44621        16.250           1.125
  23596382.742    -4018848.336 5  -3131569.47121        11.000           0.375
  20676009.477     -576646.914 7   -449335.61522        20.750           1.844
  24159426.453    -1920179.562 5  -1361383.86421         9.000           0.375
 91  5 23 18 22 15.0000000  0  6G18G11G 2G16G19G 6
  21498697.328     3264206.351 7   2543535.62022        25.750           2.313
  23299752.945    -4958995.524 6  -3864148.54021        17.500           0.813
  22947979.828    -7166200.435 6  -5584046.27021        15.750           1.188
  23592534.570    -4039070.834 5  -3147327.25321        11.500           0.469
  20676099.063     -576185.927 7   -448976.40922        21.000           1.813
  24151435.508    -1962142.376 5  -1394082.07621         8.250           0.281
 91  5 23 18 22 30.0000000  0  6G18G11G 2G16G19G 6
  21504725.805     3295888.194 7   2568222.75022        25.500           2.406
  23294438.563    -4986901.094 6  -3885893.12521        16.000           0.906
  22938773.961    -7214589.102 6  -5621751.67621        16.750           1.125
  23588714.313    -4059148.279 6  -3162971.98621        12.000           0.406
  20676199.273     -575657.253 7   -448564.46522        21.000           1.844
  24143459.523    -2004075.834 5  -1426757.45721         8.500           0.313
 91  5 23 18 22 45.0000000  0  6G18G11G 2G16G19G 6
  21510775.164     3327677.502 7   2592993.61622        25.750           2.469
  23289156.938    -5014665.129 6  -3907527.41321        16.250           0.875
  22929578.477    -7262905.671 6  -5659400.90221        16.750           1.156
  23584924.789    -4079077.041 6  -3178500.89621        12.250           0.500
  20676312.711     -575057.431 7   -448097.07422        21.000           1.938
  24135483.641    -2045976.491 5  -1459407.25621         7.750           0.188
 91  5 23 18 23  0.0000000  0  6G18G11G 2G16G19G 6
  21516845.320     3359581.775 7   2617854.07622        25.500           2.438
  23283903.016    -5042279.851 6  -3929045.35921        16.500           0.875
  22920397.797    -7311142.636 6  -5696988.10121        16.750           1.125
  23581161.320    -4098849.587 6  -3193908.05321        12.750           0.500
  20676444.742     -574378.883 7   -447568.34222        21.250           1.906
  24127517.742    -2087836.834 5  -1492025.64221         7.500           0.219
 91  5 23 18 23 15.0000000  0  6G18G11G 2G16G19G 6
  21522937.820     3391594.221 7   2642798.82022        25.750           2.344
  23278675.586    -5069751.496 6  -3950451.82121        16.500           0.906
  22911234.750    -7359306.186 6  -5734518.10021        16.750           1.156
  23577423.938    -4118472.542 5  -3209198.65921        11.750           0.469
  20676585.555     -573628.198 7   -446983.39922        21.500           1.938
  24119560.367    -2129663.503 5  -1524617.80321         8.000           0.188
 91  5 23 18 23 30.0000000  0  6G18G11G 2G16G19G 6
  21529050.320     3423713.080 7   2667826.48922        25.500           2.281
  23273474.289    -5097081.250 6  -3971747.71421        16.250           0.844
  22902081.680    -7407397.612 6  -5771991.88921        16.750           1.250
  23573714.906    -4137946.911 6  -3224373.47421        12.000           0.500
  20676743.906     -572806.924 7   -446343.45722        20.750           2.094
  24111609.148    -2171457.901 5  -1557184.81121         8.500           0.250
 91  5 23 18 23 45.0000000  0  6G18G11G 2G16G19G 6
  21535179.773     3455932.633 7   2692932.61322        25.000           2.469
  23268301.719    -5124274.123 6  -3992936.94221        16.500           0.844
  22892945.320    -7455422.082 6  -5809413.51021        17.500           1.188
  23570037.617    -4157277.879 6  -3239436.56821        12.250           0.469
  20676909.898     -571920.307 7   -445652.59122        21.250           2.000
  24103661.703    -2213225.359 5  -1589730.86721         8.250           0.219
 91  5 23 18 24  0.0000000  0  6G18G11G 2G16G19G 6
  21541331.289     3488254.736 7   2718118.64122        25.500           2.469
  23263151.336    -5151328.159 6  -4014017.99121        16.250           0.969
  22883817.781    -7503377.980 6  -5846781.69921        17.000           1.125
  23566389.070    -4176463.789 6  -3254386.63121        12.250           0.438
  20677089.859     -570966.665 7   -444909.51122        21.000           2.000
  24095718.422    -2254964.126 5  -1622254.49921         8.250           0.250
 91  5 23 18 24 15.0000000  0  6G18G11G 2G16G19G 6
  21547504.359     3520683.944 7   2743388.13522        26.000           2.313
  23258030.836    -5178238.179 6  -4034986.81221        16.000           0.875
  22874707.453    -7551260.133 6  -5884092.42221        17.500           1.125
  23562765.328    -4195499.611 6  -3269219.71721        12.250           0.531
  20677285.250     -569941.201 7   -444110.45122        20.750           2.063
  24087776.250    -2296669.501 5  -1654752.15121         7.750           0.250
 91  5 23 18 24 30.0000000  0  6G18G11G 2G16G19G 6
  21553694.555     3553222.307 7   2768742.68422        25.250           2.375
  23252937.570    -5205002.038 6  -4055841.74621        16.250           0.938
  22865610.320    -7599066.363 6  -5921343.99121        17.500           1.094
  23559174.930    -4214383.586 6  -3283934.49321        13.000           0.563
  20677495.594     -568841.925 7   -443253.88422        20.750           1.938
  24079850.328    -2338339.545 5  -1687222.27121         7.750           0.281
 91  5 23 18 24 45.0000000  0  6G18G11G 2G16G19G 6
  21559906.602     3585866.470 7   2794179.67522        25.000           2.469
  23247872.578    -5231622.100 6  -4076584.63421        16.750           0.938
  22856525.734    -7646799.418 6  -5958538.54221        18.000           1.188
  23555608.828    -4233118.069 6  -3298532.79021        13.000           0.500
  20677718.766     -567671.533 7   -442341.90722        21.000           1.938
  24071930.078    -2379976.940 5  -1719666.93921         8.000           0.281
 91  5 23 18 25  0.0000000  0  6G18G11G 2G16G19G 6
  21566139.438     3618614.187 7   2819697.35322        25.250           2.469
  23242832.258    -5258100.525 6  -4097217.16021        16.500           0.875
  22847456.305    -7694461.395 6  -5995677.70321        17.250           1.250
  23552070.508    -4251705.525 6  -3313016.49821        13.250           0.469
  20677954.211     -566432.440 7   -441376.39422        21.000           1.969
  24064010.625    -2421584.074 5  -1752088.07521         8.750           0.313
 91  5 23 18 25 15.0000000  0  6G18G11G 2G16G19G 6
  21572389.828     3651462.506 7   2845293.41923        24.750           2.531
  23237820.914    -5284439.689 6  -4117741.16621        16.500           0.781
  22838398.094    -7742054.813 6  -6032763.44121        17.000           1.250
  23548565.430    -4270148.598 6  -3327387.72221        14.250           0.469
  20678203.117     -565127.330 7   -440359.43422        21.250           2.000
  24056092.523    -2463163.615 5  -1784487.65921         8.250           0.156
 91  5 23 18 25 30.0000000  0  6G18G11G 2G16G19G 6
  21578659.086     3684411.946 7   2870968.28123        25.250           2.594
  23232836.016    -5310638.769 6  -4138156.01721        16.750           0.844
  22829357.055    -7789579.022 6  -6069795.24621        17.500           1.250
  23545082.656    -4288446.526 6  -3341645.85021        13.500           0.406
  20678466.516     -563755.563 7   -439290.53522        20.500           1.938
  24048186.781    -2504715.043 5  -1816865.34721         8.500           0.313
 91  5 23 18 25 45.0000000  0  6G18G11G 2G16G19G 6
  21584949.750     3717466.445 7   2896725.00823        25.500           2.531
  23227877.953    -5336693.328 6  -4158458.25621        16.750           0.781
  22820324.445    -7837029.685 6  -6106769.74321        17.250           1.250
  23541625.656    -4306595.125 6  -3355787.60621        12.250           0.406
  20678738.453     -562313.036 7   -438166.49922        20.750           1.906
  24040287.969    -2546234.102 5  -1849217.83521         8.500           0.250
 91  5 23 18 26  0.0000000  0  6G18G11G 2G16G19G 6
  21591259.883     3750624.750 7   2922562.62323        25.250           2.531
  23222947.813    -5362604.074 6  -4178648.42521        16.750           0.844
  22811309.055    -7884407.628 6  -6143687.57921        17.750           1.250
  23538203.609    -4324595.108 6  -3369813.56121        13.250           0.406
  20679025.594     -560800.579 7   -436987.96922        20.750           1.969
  24032390.016    -2587721.983 5  -1881545.99421         8.250           0.344
 91  5 23 18 26 15.0000000  0  6G18G11G 2G16G19G 6
  21597589.328     3783886.605 7   2948480.93023        25.250           2.531
  23218042.617    -5388371.023 6  -4198726.53921        17.000           0.969
  22802306.969    -7931713.006 6  -6180548.87621        17.250           1.281
  23534806.047    -4342447.074 6  -3383724.18621        13.250           0.406
  20679327.086     -559218.351 7   -435755.08622        20.750           1.969
  24024504.703    -2629178.859 5  -1913850.00021         8.750           0.281
 91  5 23 18 26 30.0000000  0  6G18G11G 2G16G19G 6
  21603937.852     3817244.805 7   2974474.31023        25.750           2.500
  23213168.828    -5414001.131 6  -4218698.03521        17.250           0.875
  22793317.664    -7978952.937 6  -6217359.17321        17.250           1.406
  23531435.094    -4360157.791 6  -3397524.74121        13.000           0.406
  20679638.867     -557573.781 7   -434473.62322        20.250           2.094
  24016623.664    -2670611.945 5  -1946135.48021         8.750           0.406
 91  5 23 18 26 45.0000000  0  6G18G11G 2G16G19G 6
  21610304.211     3850704.278 7   3000546.60822        25.500           2.375
  23208316.508    -5439488.846 6  -4238558.56521        17.000           0.844
  22784343.063    -8026121.943 6  -6254114.20621        17.500           1.250
  23528093.258    -4377722.098 6  -3411211.21421        13.500           0.438
  20679965.820     -555861.519 7   -433139.41322        20.750           1.906
  24008745.773    -2712016.021 5  -1978398.34921         8.750           0.344
 91  5 23 18 27  0.0000000  0  6G18G11G 2G16G19G 6
  21616691.180     3884265.104 7   3026697.87322        25.500           2.406
  23203493.133    -5464833.341 6  -4258307.50521        16.750           0.875
  22775379.617    -8073219.291 6  -6290813.39121        17.000           1.219
  23524777.531    -4395139.194 6  -3424782.95921        13.000           0.500
  20680305.289     -554081.170 7   -431752.15122        20.750           1.938
  24000866.953    -2753390.521 5  -2010638.17321         8.500           0.406
 91  5 23 18 27 15.0000000  0  6G18G11G 2G16G19G 6
  21623093.398     3917917.429 7   3052920.44022        25.750           2.438
  23198697.391    -5490043.959 6  -4277952.11621        17.250           0.875
  22766430.602    -8120254.666 6  -6327464.29521        17.250           1.313
  23521487.773    -4412418.808 6  -3438247.60221        12.250           0.469
  20680654.656     -552242.264 7   -430319.26322        21.000           1.938
  23993000.117    -2794745.052 5  -2042862.42821         8.250           0.469
 91  5 23 18 27 30.0000000  0  6G18G11G 2G16G19G 6
  21629518.453     3951672.400 7   3079222.99122        26.000           2.469
  23193927.180    -5515109.468 6  -4297483.66421        17.000           0.906
  22757492.359    -8167216.937 6  -6364058.22621        17.500           1.219
  23518230.258    -4429549.972 6  -3451596.54721        12.750           0.469
  20681017.984     -550333.780 7   -428832.16322        20.500           1.969
  23985134.813    -2836068.707 5  -2075062.63721         8.500           0.406
 91  5 23 18 27 45.0000000  0  6G18G11G 2G16G19G 6
  21635958.055     3985517.520 7   3105595.78322        26.000           2.469
  23189183.281    -5540041.829 6  -4316911.45921        17.000           0.938
  22748566.055    -8214117.969 6  -6400604.44621        18.000           1.250
  23514995.047    -4446544.525 5  -3464839.07621        11.750           0.469
  20681392.789     -548368.031 7   -427300.42822        20.750           2.000
  23977272.805    -2877373.687 5  -2107248.27521         8.000           0.406
 91  5 23 18 28  0.0000000  0  6G18G11G 2G16G19G 6
  21642419.281     4019468.006 7   3132050.68623        26.000           2.500
  23184465.836    -5564825.362 6  -4336223.28321        17.000           0.781
  22739657.719    -8260942.200 6  -6437090.82121        18.500           1.250
  23511788.758    -4463387.215 6  -3477963.23621        12.250           0.406
  20681782.141     -546329.448 7   -425711.94222        20.000           2.094
  23969424.367    -2918644.577 5  -2139407.36921         8.250           0.500
 91  5 23 18 28 15.0000000  0  6G18G11G 2G16G19G 6
  21648896.586     4053514.665 7   3158580.52922        25.750           2.438
  23179777.164    -5589468.726 6  -4355425.88721        17.250           0.813
  22730760.578    -8307698.602 6  -6473524.35121        18.250           1.250
  23508614.516    -4480086.917 6  -3490975.98421        12.500           0.500
  20682181.328     -544227.031 7   -424073.70422        20.250           2.000
  23961575.664    -2959890.370 5  -2171546.90221         8.250           0.438
 91  5 23 18 28 30.0000000  0  6G18G11G 2G16G19G 6
  21655394.391     4087655.878 7   3185184.04822        25.750           2.375
  23175113.242    -5613973.226 6  -4374520.28521        17.000           0.875
  22721876.633    -8354388.323 6  -6509905.91121        18.500           1.406
  23505464.391    -4496644.971 6  -3503878.36121        12.750           0.406
  20682593.688     -542062.303 6   -422386.91022        19.000           2.031
  23953728.328    -3001112.634 5  -2203668.07521         8.250           0.469
 91  5 23 18 28 45.0000000  0  6G18G11G 2G16G19G 6
  21661910.125     4121896.796 7   3211865.26522        25.750           2.313
  23170478.031    -5638333.426 6  -4393502.24421        16.500           0.938
  22713005.703    -8401006.191 6  -6546231.48621        18.250           1.313
  23502339.703    -4513056.272 6  -3516666.38321        12.500           0.438
  20683016.258     -539830.104 7   -420647.53622        20.000           2.000
  23945891.328    -3042306.051 5  -2235766.79021         9.000           0.344
 91  5 23 18 29  0.0000000  0  6G18G11G 2G16G19G 6
  21668446.023     4156249.228 7   3238633.37822        25.000           2.219
  23165870.688    -5662536.961 6  -4412362.11721        16.750           0.875
  22704149.117    -8447539.813 6  -6582491.41321        18.000           1.344
  23499246.641    -4529308.421 6  -3529330.40421        12.000           0.500
  20683456.688     -537518.121 7   -418845.99422        20.750           2.000
  23938061.773    -3083458.515 5  -2267833.62821         8.750           0.375
 91  5 23 18 29 15.0000000  0  6G18G11G 2G16G19G 6
  21674999.430     4190685.337 7   3265466.68322        24.500           2.188
  23161292.609    -5686611.321 6  -4431121.33221        16.500           0.844
  22695304.227    -8494016.806 6  -6618707.20421        17.750           1.406
  23496178.258    -4545429.021 6  -3541891.89021        12.000           0.469
  20683907.031     -535154.040 7   -417003.84922        20.750           2.000
  23930231.047    -3124597.728 5  -2299890.10121         8.500           0.281
 91  5 23 18 29 30.0000000  0  6G18G11G 2G16G19G 6
  21681569.117     4225205.762 7   3292365.69722        25.000           2.188
  23156733.016    -5710555.172 6  -4449778.86421        16.250           0.969
  22686472.938    -8540436.009 6  -6654877.97621        18.250           1.281
  23493136.867    -4561417.119 5  -3554350.13621        11.500           0.500
  20684369.414     -532736.900 7   -415120.36622        20.250           2.031
  23922403.898    -3165722.689 5  -2331935.47121         8.750           0.313
 91  5 23 18 29 45.0000000  0  6G18G11G 2G16G19G 6
  21688154.727     4259816.981 7   3319335.45422        24.750           2.156
  23152203.656    -5734361.889 6  -4468329.54021        17.000           1.031
  22677651.109    -8586790.943 6  -6690998.66021        18.000           1.250
  23490116.492    -4577266.465 5  -3566700.27721        10.750           0.469
  20684837.609     -530260.501 7   -413190.69422        20.750           2.000
  23914580.133    -3206827.196 5  -2363964.95221         9.000           0.313
 91  5 23 18 30  0.0000000  0  6G18G11G 2G16G19G 6
  21694760.453     4294524.789 7   3346380.48122        24.500           2.125
  23147700.984    -5758024.977 6  -4486768.29921        17.000           1.000
  22668843.352    -8633075.158 6  -6727064.24921        18.750           1.281
  23487134.008    -4592970.879 5  -3578937.46421        11.250           0.406
  20685322.250     -527718.340 7   -411209.78522        20.000           1.969
  23906765.625    -3247904.945 5  -2395973.52121         9.000           0.313
 91  5 23 18 30 15.0000000  0  6G18G11G 2G16G19G 6
  21701383.500     4329327.609 7   3373499.53222        24.500           2.188
  23143224.102    -5781545.745 6  -4505096.15021        16.500           0.906
  22660046.836    -8679290.132 6  -6763075.88321        18.500           1.281
  23484170.203    -4608531.572 5  -3591062.67521        11.500           0.531
  20685818.078     -525112.127 7   -409178.96922        20.500           1.906
  23898951.656    -3288957.383 5  -2427962.39921         9.750           0.375
 91  5 23 18 30 30.0000000  0  6G18G11G 2G16G19G 6
  21708025.586     4364226.816 7   3400693.70122        24.750           2.281
  23138777.063    -5804922.165 6  -4523311.52621        16.250           0.938
  22651267.547    -8725434.115 6  -6799032.19621        18.500           1.156
  23481238.656    -4623946.683 6  -3603074.44821        12.000           0.500
  20686325.500     -522440.134 7   -407096.89922        20.250           2.031
  23891145.797    -3329982.923 5  -2459930.30021        10.000           0.438
 91  5 23 18 30 45.0000000  0  6G18G11G 2G16G19G 6
  21714682.625     4399217.973 7   3427959.51822        24.750           2.250
  23134355.266    -5828158.572 6  -4541417.80221        16.250           0.969
  22642499.172    -8771511.502 6  -6834936.62821        19.000           1.188
  23478326.273    -4639220.662 5  -3614976.23221        10.750           0.469
  20686846.188     -519706.820 7   -404967.04722        20.250           1.938
  23883346.219    -3370986.059 5  -2491880.76321        10.000           0.281
 91  5 23 18 31  0.0000000  0  6G18G11G 2G16G19G 6
  21721360.477     4434303.914 7   3455299.19122        25.000           2.156
  23129959.016    -5851251.389 6  -4559412.18821        16.250           1.031
  22633744.516    -8817518.770 6  -6870786.40321        18.500           1.344
  23475448.539    -4654350.355 5  -3626765.59421        10.500           0.438
  20687377.898     -516908.710 7   -402786.70422        20.500           2.031
  23875544.508    -3411963.478 5  -2523811.19221         9.750           0.375
 91  5 23 18 31 15.0000000  0  6G18G11G 2G16G19G 6
  21728053.961     4469483.337 7   3482711.70622        24.250           2.219
  23125592.445    -5874201.684 6  -4577295.51821        17.000           1.031
  22625005.906    -8863456.892 6  -6906582.30421        18.750           1.281
  23472598.063    -4669336.761 5  -3638443.29621        11.000           0.500
  20687923.133     -514047.126 7   -400556.89822        20.500           2.031
  23867753.484    -3452916.378 5  -2555722.48821         9.500           0.344
 91  5 23 18 31 30.0000000  0  6G18G11G 2G16G19G 6
  21734766.836     4504757.404 7   3510197.96622        24.250           2.156
  23121253.289    -5897007.775 6  -4595066.48221        17.000           0.969
  22616274.727    -8909324.478 6  -6942323.24121        18.500           1.375
  23469776.227    -4684178.572 5  -3650008.34621        11.500           0.438
  20688482.070     -511120.748 6   -398276.60722        19.750           2.063
  23859963.570    -3493843.524 5  -2587613.71421         9.250           0.375
 91  5 23 18 31 45.0000000  0  6G18G11G 2G16G19G 6
  21741497.742     4540127.194 7   3537758.82022        24.250           2.125
  23116941.859    -5919667.928 6  -4612723.72921        17.250           0.969
  22607558.992    -8955120.000 6  -6978008.02521        18.500           1.281
  23466977.828    -4698874.481 5  -3661459.68221        11.250           0.344
  20689048.898     -508128.061 7   -395944.64422        20.750           2.031
  23852183.508    -3534743.351 5  -2619483.68321         9.750           0.375
 91  5 23 18 32  0.0000000  0  6G18G11G 2G16G19G 6
  21748245.539     4575589.219 7   3565391.54622        24.250           2.156
  23112656.438    -5942185.517 6  -4630269.88421        17.000           0.938
  22598858.977    -9000846.815 6  -7013639.26821        18.500           1.250
  23464207.539    -4713427.628 5  -3672799.78921        11.000           0.438
  20689629.664     -505072.762 7   -393563.89022        20.750           1.969
  23844403.758    -3575619.528 5  -2651335.21621        10.000           0.188
 91  5 23 18 32 15.0000000  0  6G18G11G 2G16G19G 6
  21755010.164     4611141.768 7   3593094.81022        24.250           2.219
  23108396.719    -5964562.040 6  -4647706.12021        17.000           0.969
  22590169.359    -9046506.361 6  -7049218.10521        18.750           1.406
  23461465.727    -4727839.809 5  -3684030.06221        11.000           0.406
  20690223.344     -501956.533 7   -391135.66422        20.250           1.906
  23836630.375    -3616473.610 5  -2683169.50921         9.500           0.313
 91  5 23 18 32 30.0000000  0  6G18G11G 2G16G19G 6
  21761792.656     4646787.144 7   3620870.41122        23.500           2.188
  23104165.188    -5986794.578 6  -4665030.16521        16.750           0.938
  22581491.828    -9092096.089 6  -7084742.52621        18.250           1.438
  23458750.422    -4742108.508 5  -3695148.49621        11.500           0.469
  20690828.711     -498776.616 7   -388657.80422        20.000           2.000
  23828859.602    -3657303.079 5  -2714984.64021        10.000           0.344
 91  5 23 18 32 45.0000000  0  6G18G11G 2G16G19G 6
  21768595.375     4682529.378 7   3648721.47922        23.500           2.125
  23099964.016    -6008878.730 6  -4682238.57521        16.500           0.906
  22572831.945    -9137611.541 6  -7120209.07721        19.000           1.406
  23456062.461    -4756229.159 5  -3706151.58521        11.250           0.500
  20691445.953     -495528.732 7   -386126.98122        20.250           1.938
  23821092.828    -3698103.695 5  -2746777.29421        10.000           0.438
 91  5 23 18 33  0.0000000  0  6G18G11G 2G16G19G 6
  21775415.508     4718370.117 7   3676649.30122        23.500           2.125
  23095790.094    -6030812.353 6  -4699329.69021        16.750           0.906
  22564186.969    -9183050.522 6  -7155616.03721        19.250           1.375
  23453406.844    -4770200.038 5  -3717037.97821        11.750           0.500
  20692079.211     -492211.022 7   -383541.74822        20.250           1.875
  23813336.422    -3738873.517 5  -2778545.94121        10.000           0.313
 91  5 23 18 33 15.0000000  0  6G18G11G 2G16G19G 6
  21782254.578     4754307.127 7   3704652.14622        23.250           2.313
  23091645.641    -6052597.072 6  -4716304.78021        17.000           0.844
  22555554.359    -9228414.785 6  -7190964.78021        19.500           1.375
  23450773.875    -4784022.885 5  -3727809.01521        11.500           0.500
  20692724.000     -488825.243 7   -380903.47322        20.750           1.969
  23805580.906    -3779614.430 5  -2810292.05321         9.750           0.375
 91  5 23 18 33 30.0000000  0  6G18G11G 2G16G19G 6
  21789110.984     4790335.189 7   3732725.93522        23.250           2.344
  23087529.195    -6074237.917 6  -4733167.75521        17.750           0.938
  22546933.039    -9273709.591 6  -7226259.40421        19.000           1.375
  23448172.063    -4797703.031 5  -3738468.86121        11.500           0.531
  20693378.859     -485376.711 7   -378216.30222        20.250           2.031
  23797831.078    -3820331.709 5  -2842019.75921         9.250           0.375
 91  5 23 18 33 45.0000000  0  6G18G11G 2G16G19G 6
  21795985.578     4826458.921 7   3760874.27922        23.500           2.313
  23083438.484    -6095729.883 6  -4749914.72421        17.750           0.844
  22538330.445    -9318930.030 6  -7261496.07121        19.250           1.406
  23445594.719    -4811235.599 5  -3749013.70221        11.750           0.563
  20694048.156     -481860.729 7   -375476.57822        20.250           1.938
  23790088.297    -3861020.709 5  -2873725.44521         9.000           0.375
 91  5 23 18 34  0.0000000  0  6G18G11G 2G16G19G 6
  21802876.773     4862678.149 7   3789097.02822        23.500           2.125
  23079376.992    -6117072.683 6  -4766545.47121        17.750           0.875
  22529739.672    -9364076.034 6  -7296674.74221        19.250           1.469
  23443051.594    -4824620.693 6  -3759443.64921        12.000           0.469
  20694731.586     -478277.146 6   -372684.18322        19.750           1.969
  23782350.211    -3901681.263 5  -2905408.94321         8.750           0.406
 91  5 23 18 34 15.0000000  0  6G18G11G 2G16G19G 6
  21809785.859     4898988.097 7   3817390.47322        23.750           2.219
  23075341.930    -6138270.586 6  -4783063.29921        17.500           1.000
  22521158.797    -9409151.819 6  -7331798.69621        18.750           1.375
  23440531.641    -4837862.763 6  -3769762.12821        12.000           0.656
  20695425.180     -474630.541 7   -369842.68822        20.500           2.000
  23774620.523    -3942317.953 5  -2937073.85121         8.250           0.375
 91  5 23 18 34 30.0000000  0  6G18G11G 2G16G19G 6
  21816711.516     4935392.461 7   3845757.49122        23.500           2.250
  23071336.781    -6159319.448 6  -4799464.99121        17.750           0.938
  22512595.438    -9454153.265 6  -7366864.72421        19.000           1.406
  23438039.227    -4850957.934 5  -3779966.13621        11.750           0.563
  20696130.891     -470916.936 7   -366948.98522        20.000           2.031
  23766891.656    -3982926.745 5  -2968716.99921         9.500           0.469
 91  5 23 18 34 45.0000000  0  6G18G11G 2G16G19G 6
  21823659.102     4971891.859 7   3874198.56222        23.250           2.188
  23067358.898    -6180218.165 6  -4815749.68821        17.500           0.906
  22504046.734    -9499079.421 6  -7401872.07521        18.750           1.469
  23435571.828    -4863905.096 5  -3790054.83021        11.500           0.625
  20696849.000     -467135.523 7   -364002.44622        20.750           2.031
  23759172.602    -4023506.875 5  -3000337.86921        10.000           0.375
 91  5 23 18 35  0.0000000  0  6G18G11G 2G16G19G 6
  21830620.664     5008481.043 7   3902709.59222        22.750           2.188
  23063412.227    -6200971.720 6  -4831921.26421        18.000           0.906
  22495513.125    -9543935.435 6  -7436824.77122        19.750           1.500
  23433138.734    -4876709.432 6  -3800032.22721        12.750           0.656
  20697581.984     -463291.293 7   -361006.95022        20.250           2.125
  23751453.961    -4064063.524 5  -3031940.42221         9.250           0.469
 91  5 23 18 35 15.0000000  0  6G18G11G 2G16G19G 6
  21837600.742     5045158.169 7   3931289.14722        23.000           2.125
  23059489.398    -6221581.507 6  -4847980.83621        17.500           0.906
  22486989.047    -9588722.894 6  -7471724.05622        19.750           1.531
  23430729.430    -4889372.290 6  -3809899.38421        12.250           0.594
  20698324.633     -459385.958 7   -357963.84322        20.500           2.031
  23743741.313    -4104598.295 5  -3063525.90521         9.500           0.438
 91  5 23 18 35 30.0000000  0  6G18G11G 2G16G19G 6
  21844598.992     5081927.443 7   3959940.51322        23.250           2.031
  23055594.695    -6242043.059 6  -4863924.88421        17.750           0.844
  22478478.898    -9633437.280 6  -7506566.40022        19.250           1.531
  23428344.672    -4901889.339 5  -3819652.90321        11.750           0.563
  20699079.781     -455415.158 7   -354869.72022        20.000           2.000
  23736032.664    -4145106.846 5  -3095090.97421         9.250           0.375
 91  5 23 18 35 45.0000000  0  6G18G11G 2G16G19G 6
  21851612.336     5118793.471 7   3988667.26822        22.500           2.281
  23051729.961    -6262351.173 6  -4879749.37521        17.250           1.063
  22469985.594    -9678073.455 6  -7541347.79022        19.750           1.500
  23425992.422    -4914255.943 5  -3829289.20821        11.750           0.594
  20699849.797     -451373.867 7   -351720.67122        20.500           2.031
  23728326.781    -4185584.312 5  -3126631.80621         9.500           0.313
 91  5 23 18 36  0.0000000  0  6G18G11G 2G16G19G 6
  21858644.445     5155748.918 7   4017463.69722        22.750           2.156
  23047892.969    -6282512.854 6  -4895459.75121        17.250           0.906
  22461505.727    -9722638.451 6  -7576073.72421        19.500           1.438
  23423665.945    -4926479.161 6  -3838813.79921        12.500           0.625
  20700633.500     -447269.210 6   -348522.24322        19.750           1.969
  23720629.531    -4226037.894 5  -3158154.05821         9.500           0.344
 91  5 23 18 36 15.0000000  0  6G18G11G 2G16G19G 6
  21865695.852     5192794.703 7   4046330.51522        23.000           2.063
  23044086.875    -6302526.781 6  -4911054.99421        17.750           1.000
  22453037.375    -9767130.987 6  -7610743.18921        19.500           1.406
  23421371.297    -4938557.928 6  -3848225.82221        12.750           0.500
  20701425.500     -443100.132 7   -345273.61222        20.250           2.063
  23712944.414    -4266466.492 5  -3189656.81821        10.250           0.313
 91  5 23 18 36 30.0000000  0  6G18G11G 2G16G19G 6
  21872761.828     5229931.023 7   4075267.88922        23.000           2.156
  23040304.211    -6322392.413 6  -4926534.68421        17.000           1.000
  22444584.984    -9811550.578 6  -7645355.82421        19.250           1.438
  23419099.313    -4950491.532 6  -3857524.71221        13.000           0.531
  20702227.672     -438866.218 7   -341974.46622        20.000           2.000
  23705247.789    -4306869.677 5  -3221139.77521        10.250           0.406
 91  5 23 18 36 45.0000000  0  6G18G11G 2G16G19G 6
  21879846.266     5267158.371 7   4104276.19422        22.750           2.031
  23036554.164    -6342108.780 6  -4941898.07021        17.750           1.031
  22436147.391    -9855896.511 6  -7679911.05522        19.500           1.563
  23416858.148    -4962279.557 6  -3866710.19521        12.500           0.563
  20703048.414     -434567.026 6   -338624.45622        19.750           2.063
  23697565.414    -4347246.838 5  -3252602.46921         9.750           0.219
 91  5 23 18 37  0.0000000  0  6G18G11G 2G16G19G 6
  21886948.992     5304476.481 7   4133355.21322        22.750           1.969
  23032829.852    -6361675.259 6  -4957144.65821        17.500           1.000
  22427722.375    -9900168.402 6  -7714408.59622        19.250           1.500
  23414637.313    -4973921.785 6  -3875782.05221        12.000           0.531
  20703879.430     -430202.115 7   -335223.24022        20.250           1.969
  23689885.898    -4387597.611 5  -3284044.59321        10.000           0.438
 91  5 23 18 37 15.0000000  0  6G18G11G 2G16G19G 6
  21894066.125     5341887.172 7   4162506.38422        22.250           2.000
  23029135.953    -6381090.009 6  -4972273.01921        17.250           1.000
  22419315.445    -9944364.180 7  -7748846.83021        20.500           1.469
  23412450.891    -4985416.309 5  -3884738.82121        11.750           0.625
  20704721.195     -425769.582 7   -331769.34322        20.000           2.031
  23682215.922    -4427920.234 5  -3315464.78421        10.250           0.344
 91  5 23 18 37 30.0000000  0  6G18G11G 2G16G19G 6
  21901204.156     5379391.279 7   4191730.33822        22.500           1.875
  23025469.586    -6400351.977 6  -4987282.32021        17.250           0.938
  22410914.898    -9988483.014 7  -7783225.10622        20.000           1.531
  23410292.742    -4996762.538 6  -3893580.02421        12.500           0.594
  20705577.586     -421268.701 7   -328262.18122        20.000           1.938
  23674547.273    -4468213.916 5  -3346862.41021        10.000           0.375
 91  5 23 18 37 45.0000000  0  6G18G11G 2G16G19G 6
  21908357.195     5416981.859 7   4221021.67322        22.000           1.906
  23021832.391    -6419467.423 6  -5002177.44221        17.250           0.938
  22402535.445   -10032531.266 7  -7817548.38722        20.750           1.563
  23408158.852    -5007966.683 6  -3902310.52921        12.000           0.531
  20706446.555     -416705.902 7   -324706.76922        20.500           1.969
  23666887.547    -4508485.125 5  -3378242.53821        10.000           0.344
 91  5 23 18 38  0.0000000  0  6G18G11G 2G16G19G 6
  21915528.750     5454663.266 7   4250383.78922        22.250           1.844
  23018223.031    -6438431.768 6  -5016954.84121        17.250           0.906
  22394168.039   -10076504.269 7  -7851813.02822        20.250           1.656
  23406056.680    -5019024.208 6  -3910926.78221        12.750           0.625
  20707329.047     -412076.642 6   -321099.56222        19.500           2.000
  23659224.164    -4548729.457 5  -3409601.71921         9.750           0.344
 91  5 23 18 38 15.0000000  0  6G18G11G 2G16G19G 6
  21922716.469     5492434.148 7   4279815.62722        22.250           1.844
  23014643.133    -6457245.942 6  -5031615.21821        17.250           1.000
  22385813.281   -10120403.010 7  -7886019.80322        20.500           1.688
  23403979.891    -5029936.080 6  -3919429.53121        12.750           0.625
  20708220.477     -407382.145 7   -317441.52222        20.250           1.938
  23651571.375    -4588948.041 5  -3440940.84921         9.250           0.406
 91  5 23 18 38 30.0000000  0  6G18G11G 2G16G19G 6
  21929918.164     5530290.566 7   4309314.11322        21.750           1.906
  23011089.922    -6475913.644 6  -5046161.46421        17.250           0.906
  22377472.430   -10164231.547 7  -7920171.87422        20.500           1.656
  23401927.617    -5040706.645 6  -3927822.17521        12.250           0.531
  20709126.477     -402626.344 7   -313735.71522        20.500           1.938
  23643922.609    -4629144.755 5  -3472262.92021         9.750           0.469
 91  5 23 18 38 45.0000000  0  6G18G11G 2G16G19G 6
  21937140.781     5568234.127 7   4338880.49522        21.750           1.844
  23007566.852    -6494432.797 6  -5060591.95921        17.750           1.000
  22369146.555   -10207987.868 7  -7954267.66522        20.500           1.656
  23399908.422    -5051333.947 6  -3936103.20421        13.000           0.625
  20710043.750     -397807.191 7   -309980.53722        20.500           2.031
  23636277.547    -4669317.768 5  -3503566.52321         9.500           0.375
 91  5 23 18 39  0.0000000  0  6G18G11G 2G16G19G 6
  21944376.188     5606269.010 7   4368518.04422        21.500           1.813
  23004071.406    -6512798.541 6  -5074902.91121        17.000           1.000
  22360833.703   -10251667.065 7  -7988303.37022        20.500           1.656
  23397914.008    -5061813.348 6  -3944268.96621        12.750           0.594
  20710974.203     -392920.017 7   -306172.35322        20.750           1.906
  23628639.008    -4709462.375 5  -3534847.98621         9.750           0.406
 91  5 23 18 39 15.0000000  0  6G18G11G 2G16G19G 6
  21951632.781     5644393.331 7   4398225.27922        22.000           1.813
  23000606.813    -6531012.440 6  -5089095.53521        17.750           1.000
  22352537.086   -10295270.731 7  -8022280.22122        20.500           1.625
  23395944.148    -5072146.621 5  -3952320.86121        11.750           0.500
  20711915.875     -387966.685 7   -302312.61022        20.750           1.969
  23621002.773    -4749580.550 5  -3566108.87421         9.750           0.500
 91  5 23 18 39 30.0000000  0  6G18G11G 2G16G19G 6
  21958905.039     5682614.107 7   4428007.67722        21.750           1.906
  22997169.461    -6549067.117 6  -5103164.09421        17.500           1.094
  22344255.313   -10338791.567 7  -8056192.53322        20.000           1.625
  23394011.094    -5082326.480 6  -3960253.22721        12.250           0.625
  20712872.453     -382940.056 7   -298395.75022        21.250           1.969
  23613376.039    -4789664.869 5  -3597343.36821        10.000           0.469
 91  5 23 18 39 45.0000000  0  6G18G11G 2G16G19G 6
  21966194.672     5720921.926 7   4457857.89222        21.750           1.906
  22993764.000    -6566971.597 6  -5117115.62121        17.500           1.000
  22335988.789   -10382238.591 7  -8090047.31822        20.000           1.500
  23392099.828    -5092361.823 6  -3968072.96221        12.250           0.500
  20713841.336     -377849.177 7   -294428.84422        21.250           2.000
  23605752.828    -4829724.597 5  -3628558.71221        10.250           0.406
 91  5 23 18 40  0.0000000  0  6G18G11G 2G16G19G 6
  21973500.539     5759311.435 7   4487771.77122        21.750           1.813
  22990383.125    -6584730.903 6  -5130954.01621        17.500           1.031
  22327733.578   -10425616.920 7  -8123848.57822        20.250           1.625
  23390216.680    -5102258.203 6  -3975784.43421        12.000           0.594
  20714821.820     -372699.160 7   -290415.85722        21.250           2.031
  23598135.172    -4869764.911 5  -3659758.93121        10.500           0.500
 91  5 23 18 40 15.0000000  0  6G18G11G 2G16G19G 6
  21980822.180     5797792.164 7   4517756.73022        21.500           1.906
  22987034.328    -6602335.163 6  -5144671.59321        18.000           1.000
  22319492.008   -10468916.756 7  -8157588.68122        20.500           1.625
  23388360.852    -5112006.105 6  -3983380.21421        12.250           0.531
  20715814.836     -367480.514 7   -286349.39122        21.250           2.031
  23590518.656    -4909776.225 5  -3690936.51721         9.000           0.406
 91  5 23 18 40 30.0000000  0  6G18G11G 2G16G19G 6
  21988163.102     5836357.540 7   4547807.64422        21.500           1.844
  22983712.492    -6619790.313 6  -5158272.99121        18.000           1.063
  22311267.977   -10512144.187 7  -8191272.35922        21.500           1.656
  23386537.078    -5121611.357 6  -3990864.83521        12.750           0.469
  20716819.656     -362199.159 7   -282234.05422        20.750           2.125
  23582910.328    -4949764.732 5  -3722096.35921         9.750           0.594
 91  5 23 18 40 45.0000000  0  6G18G11G 2G16G19G 6
  21995518.711     5875015.496 7   4577930.69422        20.750           1.781
  22980420.250    -6637088.089 6  -5171751.75421        18.500           1.031
  22303056.742   -10555290.981 7  -8224893.20722        21.000           1.594
  23384736.305    -5131065.901 6  -3998232.01021        13.000           0.594
  20717837.172     -356846.985 7   -278063.53322        21.000           1.969
  23575306.523    -4989722.167 5  -3753231.98521        10.000           0.500
 91  5 23 18 41  0.0000000  0  6G18G11G 2G16G19G 6
  22002890.867     5913759.722 7   4608120.97222        21.000           1.781
  22977158.141    -6654234.623 6  -5185112.68221        18.000           1.094
  22294858.938   -10598363.253 7  -8258455.98022        21.000           1.688
  23382965.227    -5140376.069 6  -4005486.68221        12.750           0.563
  20718870.625     -351430.340 7   -273842.76722        20.250           2.063
  23567707.086    -5029654.933 5  -3784348.40221        10.250           0.594
 91  5 23 18 41 15.0000000  0  6G18G11G 2G16G19G 6
  22010281.367     5952592.920 7   4638380.58422        20.750           1.688
  22973923.656    -6671226.676 6  -5198353.22421        17.500           1.094
  22286677.484   -10641357.916 7  -8291958.28322        21.250           1.531
  23381217.398    -5149538.794 6  -4012626.46121        12.250           0.656
  20719912.531     -345946.087 7   -269569.31122        21.500           2.156
  23560115.695    -5069559.986 5  -3815443.21921        10.000           0.406
 91  5 23 18 41 30.0000000  0  6G18G11G 2G16G19G 6
  22017686.898     5991511.310 7   4668706.57322        21.000           1.719
  22970718.477    -6688067.676 6  -5211476.06021        17.750           1.125
  22278510.586   -10684278.538 7  -8325402.89622        21.250           1.719
  23379503.594    -5158557.763 5  -4019654.22521        11.750           0.563
  20720967.250     -340398.070 7   -265246.17122        21.500           2.063
  23552525.555    -5109440.967 5  -3846519.26621        10.500           0.406
 91  5 23 18 41 45.0000000  0  6G18G11G 2G16G19G 6
  22025108.672     6030517.278 7   4699100.79922        21.000           1.688
  22967543.055    -6704754.814 6  -5224479.00821        17.750           1.188
  22270357.477   -10727122.140 7  -8358787.49222        21.250           1.750
  23377814.313    -5167430.698 6  -4026568.22021        12.000           0.531
  20722037.273     -334783.547 7   -260871.21422        21.000           2.063
  23544941.891    -5149295.182 5  -3877574.45821        10.500           0.438
 91  5 23 18 42  0.0000000  0  6G18G11G 2G16G19G 6
  22032549.203     6069612.349 7   4729564.46422        21.250           1.750
  22964398.508    -6721286.422 6  -5237360.76021        18.000           1.094
  22262219.367   -10769887.280 7  -8392110.94222        21.750           1.750
  23376154.789    -5176155.715 5  -4033366.92121        11.750           0.500
  20723119.094     -329101.022 7   -256443.27322        20.250           2.156
  23537362.609    -5189121.126 5  -3908607.64721        10.250           0.406
 91  5 23 18 42 15.0000000  0  6G18G11G 2G16G19G 6
  22040004.875     6108795.262 7   4760096.57722        21.000           1.750
  22961280.984    -6737662.972 6  -5250121.69321        17.750           1.000
  22254095.094   -10812574.420 7  -8425373.61822        21.500           1.688
  23374523.367    -5184733.513 5  -4040050.91921        11.750           0.563
  20724210.219     -323351.079 7   -251962.80322        20.500           2.031
  23529793.375    -5228919.456 5  -3939619.29121        10.750           0.406
 91  5 23 18 42 30.0000000  0  6G18G11G 2G16G19G 6
  22047477.797     6148064.950 7   4790696.30122        20.750           1.625
  22958194.430    -6753885.310 6  -5262762.46021        18.250           0.938
  22245987.977   -10855184.642 7  -8458576.35722        21.750           1.781
  23372919.734    -5193165.043 6  -4046620.93921        12.250           0.500
  20725319.297     -317534.833 7   -247430.66422        20.500           2.063
  23522222.602    -5268691.226 5  -3970610.22921        10.750           0.375
 91  5 23 18 42 45.0000000  0  6G18G11G 2G16G19G 6
  22054968.000     6187425.660 7   4821366.95122        20.500           1.750
  22955138.102    -6769948.681 6  -5275279.36121        18.000           1.094
  22237896.617   -10897713.041 7  -8491715.34122        21.750           1.719
  23371345.078    -5201446.066 6  -4053073.69621        12.250           0.656
  20726437.078     -311647.635 7   -242843.24222        20.750           2.219
  23514659.867    -5308431.907 5  -4001576.97821        10.000           0.406
 91  5 23 18 43  0.0000000  0  6G18G11G 2G16G19G 6
  22062472.953     6226869.662 7   4852102.50922        21.000           1.688
  22952109.742    -6785860.649 6  -5287678.27821        17.500           1.000
  22229817.523   -10940167.285 7  -8524796.54122        22.000           1.844
  23369795.461    -5209584.197 6  -4059415.08421        12.250           0.563
  20727569.492     -305697.108 7   -238206.46922        21.250           2.031
  23507102.344    -5348149.126 5  -4032525.42821         9.750           0.469
 91  5 23 18 43 15.0000000  0  6G18G11G 2G16G19G 6
  22069998.352     6266403.174 7   4882907.81222        21.000           1.688
  22949112.031    -6801614.554 6  -5299954.03721        17.500           0.906
  22221754.422   -10982540.851 7  -8557814.87422        22.250           1.781
  23368275.898    -5217573.088 6  -4065640.19221        12.250           0.625
  20728715.898     -299676.669 7   -233515.21522        21.000           2.063
  23499551.297    -5387836.392 5  -4063450.51921         9.500           0.438
 91  5 23 18 43 30.0000000  0  6G18G11G 2G16G19G 6
  22077536.289     6306024.016 7   4913781.16522        20.750           1.688
  22946141.500    -6817212.195 6  -5312108.02421        17.250           1.125
  22213705.766   -11024835.481 7  -8590771.69422        22.000           1.844
  23366780.906    -5225414.632 6  -4071750.50921        12.000           0.531
  20729874.211     -293588.397 7   -228771.10422        21.500           2.031
  23491999.922    -5427495.778 5  -4094353.90221         9.750           0.438
 91  5 23 18 43 45.0000000  0  6G18G11G 2G16G19G 6
  22085092.133     6345729.597 7   4944720.54322        21.000           1.625
  22943207.117    -6832655.461 6  -5324141.71821        18.500           0.969
  22205671.750   -11067053.232 7  -8623668.61722        21.500           1.781
  23365316.563    -5233111.024 5  -4077747.70321        11.750           0.563
  20731046.977     -287434.353 7   -223975.74122        21.000           2.063
  23484458.922    -5467129.418 5  -4125237.21021        10.250           0.531
 91  5 23 18 44  0.0000000  0  6G18G11G 2G16G19G 6
  22092665.992     6385524.436 7   4975729.47422        21.250           1.688
  22940295.945    -6847939.662 6  -5336051.46921        18.250           1.094
  22197651.641   -11109189.540 7  -8656502.07122        21.500           1.656
  23363882.734    -5240657.640 6  -4083628.17921        13.000           0.531
  20732233.828     -281210.147 7   -219125.71222        20.250           1.969
  23476923.797    -5506732.754 5  -4156096.92721         9.750           0.438
 91  5 23 18 44 15.0000000  0  6G18G11G 2G16G19G 6
  22100256.430     6425407.045 7   5006806.79922        21.000           1.688
  22937415.367    -6863065.927 6  -5347838.14821        18.000           1.000
  22189648.273   -11151245.514 7  -8689272.93022        21.000           1.781
  23362471.813    -5248055.863 6  -4089393.03821        12.250           0.594
  20733427.188     -274916.820 7   -214221.82622        21.250           1.938
  23469392.648    -5546306.933 5  -4186933.91821        10.000           0.469
 91  5 23 18 44 30.0000000  0  6G18G11G 2G16G19G 6
  22107860.180     6465370.600 7   5037947.19222        20.750           1.531
  22934569.102    -6878041.030 6  -5359507.04121        18.250           1.063
  22181660.984   -11193227.865 7  -8721986.41622        21.750           1.781
  23361093.461    -5255312.223 6  -4095047.33521        12.500           0.531
  20734635.797     -268561.240 7   -209269.43622        21.750           2.031
  23461865.242    -5585858.890 5  -4217753.58421        10.000           0.500
 91  5 23 18 44 45.0000000  0  6G18G11G 2G16G19G 6
  22115480.586     6505415.428 7   5069150.92722        20.750           1.563
  22931746.477    -6892864.129 6  -5371057.49121        17.500           1.094
  22173686.539   -11235135.784 7  -8754641.91222        22.250           1.781
  23359740.141    -5262426.267 6  -4100590.74721        12.250           0.469
  20735859.219     -262142.705 7   -204267.99622        21.500           2.031
  23454342.656    -5625387.873 5  -4248555.34521         9.750           0.469
 91  5 23 18 45  0.0000000  0  6G18G11G 2G16G19G 6
  22123116.500     6545546.289 7   5100421.69622        20.750           1.563
  22928955.836    -6907529.885 6  -5382485.33621        17.750           1.125
  22165726.773   -11276963.847 7  -8787235.18422        22.000           1.813
  23358411.063    -5269393.074 6  -4106019.44421        12.750           0.500
  20737094.156     -255656.058 7   -199213.47822        20.750           2.063
  23446825.594    -5664888.843 5  -4279335.29421        10.000           0.531
 91  5 23 18 45 15.0000000  0  6G18G11G 2G16G19G 6
  22130768.977     6585763.939 7   5131760.09522        20.250           1.625
  22926197.250    -6922037.302 6  -5393789.79321        18.000           0.906
  22157782.000   -11318711.330 7  -8819765.65622        22.500           1.813
  23357114.188    -5276211.947 6  -4111332.84221        12.750           0.375
  20738340.828     -249100.466 7   -194105.23822        21.250           2.000
  23439316.070    -5704360.850 5  -4310092.66121         9.750           0.406
 91  5 23 18 45 30.0000000  0  6G18G11G 2G16G19G 6
  22138439.164     6626066.725 7   5163164.82122        20.000           1.625
  22923465.789    -6936387.655 6  -5404971.87421        18.250           1.000
  22149852.734   -11360379.443 7  -8852234.29022        22.250           1.938
  23355843.734    -5282884.196 6  -4116532.00621        12.500           0.563
  20739601.695     -242477.222 7   -188944.27822        21.250           2.000
  23431811.531    -5743805.266 5  -4340828.53121        10.250           0.500
 91  5 23 18 45 45.0000000  0  6G18G11G 2G16G19G 6
  22146124.688     6666452.571 7   5194634.27922        20.000           1.688
  22920765.570    -6950582.770 6  -5416032.98521        18.500           1.094
  22141939.656   -11401970.019 7  -8884642.50422        22.250           1.844
  23354604.313    -5289411.705 6  -4121618.38121        13.500           0.375
  20740873.852     -235788.167 7   -183732.03522        21.250           2.000
  23424307.258    -5783224.067 5  -4371544.45821         9.500           0.500
 91  5 23 18 46  0.0000000  0  6G18G11G 2G16G19G 6
  22153826.875     6706923.494 7   5226170.03022        20.250           1.563
  22918093.820    -6964620.152 6  -5426971.20021        18.750           1.031
  22134039.594   -11443480.736 7  -8916988.49222        21.750           1.875
  23353387.875    -5295792.259 6  -4126590.24621        13.000           0.469
  20742160.141     -229031.037 7   -178466.74722        21.250           2.000
  23416814.859    -5822615.158 5  -4402238.78621        10.250           0.469
 91  5 23 18 46 15.0000000  0  6G18G11G 2G16G19G 6
  22161540.406     6747470.975 6   5257765.43322        19.750           1.656
  22915449.688    -6978507.860 6  -5437792.78221        18.750           1.094
  22126151.977   -11484919.537 7  -8949278.43722        21.000           1.844
  23352203.000    -5302033.917 6  -4131453.89021        13.250           0.406
  20743459.531     -222214.018 7   -173154.79622        21.500           2.063
  23409317.531    -5861986.499 5  -4432917.71721        10.250           0.469
 91  5 23 18 46 30.0000000  0  6G18G11G 2G16G19G 6
  22169273.969     6788105.237 7   5289428.46222        20.250           1.625
  22912837.430    -6992235.422 6  -5448489.56921        17.750           1.031
  22118284.570   -11526276.007 7  -8981504.22722        22.250           1.906
  23351046.859    -5308126.455 6  -4136201.32021        13.500           0.500
  20744770.961     -215326.851 7   -167788.17422        20.500           2.000
  23401830.445    -5901327.777 5  -4463573.22921        10.750           0.594
 91  5 23 18 46 45.0000000  0  6G18G11G 2G16G19G 6
  22177021.797     6828819.319 7   5321153.68322        20.000           1.563
  22910254.484    -7005809.201 6  -5459066.53321        17.750           1.094
  22110427.391   -11567556.698 7  -9013670.97522        22.750           1.844
  23349910.656    -5314076.603 6  -4140837.80321        13.000           0.469
  20746090.773     -208376.188 7   -162372.07522        21.000           2.125
  23394353.227    -5940645.688 5  -4494210.51421        11.250           0.469
 91  5 23 18 47  0.0000000  0  6G18G11G 2G16G19G 6
  22184786.742     6869615.470 7   5352942.85522        20.000           1.625
  22907702.344    -7019226.612 6  -5469521.64921        18.250           1.188
  22102585.695   -11608759.006 7  -9045776.64222        22.250           1.813
  23348806.273    -5319882.036 6  -4145361.53321        13.000           0.500
  20747425.891     -201359.342 7   -156904.40622        20.750           2.031
  23386874.703    -5979937.816 5  -4524827.72421        11.250           0.563
 91  5 23 18 47 15.0000000  0  6G18G11G 2G16G19G 6
  22192563.969     6910496.814 6   5384798.40822        19.250           1.625
  22905178.023    -7032484.167 6  -5479852.20121        17.750           1.094
  22094762.781   -11649879.421 7  -9077818.50022        23.000           1.844
  23347730.719    -5325539.355 6  -4149769.84721        13.000           0.500
  20748774.781     -194273.052 7   -151382.62922        20.750           1.906
  23379402.406    -6019200.564 5  -4555422.04021        11.750           0.469
 91  5 23 18 47 30.0000000  0  6G18G11G 2G16G19G 6
  22200357.352     6951458.020 6   5416716.18521        19.500           1.469
  22902686.039    -7045587.139 6  -5490062.29221        18.250           1.125
  22086952.156   -11690923.282 7  -9109800.70222        23.000           1.938
  23346676.938    -5331053.924 6  -4154066.91621        12.250           0.656
  20750136.148     -187122.711 7   -145810.92722        20.250           2.063
  23371932.805    -6058439.473 5  -4585997.80221        11.250           0.500
 91  5 23 18 47 45.0000000  0  6G18G11G 2G16G19G 6
  22208169.281     6992499.856 7   5448696.80021        20.000           1.375
  22900220.523    -7058534.239 6  -5500150.92921        17.750           1.063
  22079157.172   -11731889.333 7  -9141722.27922        22.500           1.906
  23345658.305    -5336424.618 6  -4158251.87921        12.500           0.594
  20751508.031     -179907.205 7   -140188.46622        20.750           2.125
  23364473.602    -6097653.302 5  -4616554.02121        11.750           0.563
 91  5 23 18 48  0.0000000  0  6G18G11G 2G16G19G 6
  22215995.539     7033620.545 7   5480738.85721        20.250           1.438
  22897788.047    -7071326.783 6  -5510119.12821        17.250           1.063
  22071373.016   -11772779.022 7  -9173584.33922        22.500           2.000
  23344664.273    -5341653.086 6  -4162326.02721        13.250           0.500
  20752893.680     -172627.939 7   -134516.31422        20.750           2.063
  23357019.648    -6136843.600 6  -4647091.86821        12.000           0.469
 91  5 23 18 48 15.0000000  0  6G18G11G 2G16G19G 6
  22223835.508     7074826.884 6   5512847.65521        19.750           1.406
  22895381.461    -7083957.887 6  -5519961.53321        17.750           1.125
  22063610.438   -11813585.302 7  -9205381.41722        23.000           2.000
  23343692.625    -5346732.524 6  -4166284.02821        12.250           0.438
  20754292.609     -165277.974 7   -128789.05922        21.000           2.063
  23349565.508    -6176003.512 6  -4677606.05921        12.000           0.469
 91  5 23 18 48 30.0000000  0  6G18G11G 2G16G19G 6
  22231691.297     7116115.043 7   5545020.20221        20.000           1.438
  22893006.500    -7096431.023 6  -5529680.84721        17.250           1.125
  22055858.938   -11854311.725 7  -9237116.25922        23.250           2.031
  23342756.016    -5351666.613 6  -4170128.78121        12.500           0.500
  20755706.047     -157860.831 7   -123009.46822        20.250           2.031
  23342120.773    -6215136.748 6  -4708099.45021        12.000           0.438
 91  5 23 18 48 45.0000000  0  6G18G11G 2G16G19G 6
  22239566.008     7157483.842 7   5577255.59321        20.000           1.469
  22890665.477    -7108746.657 6  -5539277.43521        17.500           1.125
  22048127.883   -11894958.782 7  -9268789.26522        24.250           2.094
  23341844.977    -5356456.217 6  -4173860.96421        12.000           0.563
  20757127.891     -150377.275 7   -117178.13622        20.500           2.031
  23334676.391    -6254243.823 5  -4738572.48421        11.250           0.531
 91  5 23 18 49  0.0000000  0  6G18G11G 2G16G19G 6
  22247451.508     7198933.950 6   5609554.33421        19.500           1.469
  22888353.516    -7120903.811 6  -5548750.52921        18.000           1.125
  22040406.625   -11935525.732 7  -9300399.85022        23.000           2.031
  23340962.898    -5361100.390 6  -4177479.81321        12.250           0.406
  20758563.805     -142826.569 7   -111294.49122        21.000           2.125
  23327242.477    -6293323.939 6  -4769024.50321        12.000           0.531
 91  5 23 18 49 15.0000000  0  6G18G11G 2G16G19G 6
  22255356.930     7240466.362 6   5641917.20521        19.750           1.469
  22886070.953    -7132901.239 6  -5558099.16021        19.000           1.094
  22032702.539   -11976011.302 7  -9331947.02122        23.250           1.938
  23340105.688    -5365598.229 6  -4180984.62521        12.000           0.594
  20760013.305     -135207.422 7   -105357.52622        20.750           2.000
  23319809.273    -6332375.892 5  -4799454.57821        11.750           0.563
 91  5 23 18 49 30.0000000  0  6G18G11G 2G16G19G 6
  22263275.172     7282077.604 6   5674341.51021        19.500           1.375
  22883816.063    -7144742.375 6  -5567326.01821        18.500           1.125
  22025012.281   -12016418.651 7  -9363433.25122        22.750           1.875
  23339280.313    -5369952.944 6  -4184377.92621        12.250           0.500
  20761476.563     -127523.186 7    -99369.84422        20.500           2.156
  23312382.070    -6371403.237 5  -4829865.45221        11.500           0.438
 91  5 23 18 49 45.0000000  0  6G18G11G 2G16G19G 6
  22271207.367     7323770.717 6   5706829.60521        18.250           1.375
  22881592.586    -7156423.593 6  -5576428.24721        18.250           1.094
  22017337.813   -12056744.228 7  -9394855.75422        22.000           2.000
  23338474.188    -5374161.238 6  -4187657.12221        12.750           0.563
  20762952.039     -119770.299 7    -93328.66022        20.750           2.031
  23304957.945    -6410402.374 6  -4860254.36421        12.000           0.531
 91  5 23 18 50  0.0000000  0  6G18G11G 2G16G19G 6
  22279156.688     7365543.836 6   5739380.03321        18.000           1.344
  22879401.922    -7167946.220 6  -5585406.91421        19.000           1.125
  22009679.438   -12096989.647 7  -9426215.79522        22.000           1.906
  23337703.367    -5378224.844 6  -4190823.56721        12.250           0.594
  20764439.234     -111950.402 7    -87235.26022        20.750           2.125
  23297541.953    -6449374.971 6  -4890622.60421        12.000           0.469
 91  5 23 18 50 15.0000000  0  6G18G11G 2G16G19G 6
  22287120.875     7407395.040 6   5771991.31421        18.500           1.344
  22877239.859    -7179311.879 6  -5594263.25621        18.500           1.125
  22002034.055   -12137156.507 7  -9457514.62522        22.500           1.969
  23336955.031    -5382145.571 6  -4193878.70121        12.250           0.563
  20765939.969     -104065.194 7    -81090.96822        20.750           2.000
  23290133.570    -6488322.744 6  -4920971.47921        12.250           0.469
 91  5 23 18 50 30.0000000  0  6G18G11G 2G16G19G 6
  22295101.148     7449321.914 6   5804661.56521        18.750           1.375
  22875104.500    -7190522.695 6  -5602998.96021        18.500           1.156
  21994407.398   -12177246.920 7  -9488753.88922        23.250           1.969
  23336235.484    -5385925.570 6  -4196824.15121        12.000           0.594
  20767455.188      -96116.958 7    -74897.55322        20.000           2.063
  23282728.844    -6527247.969 6  -4951302.80321        12.250           0.500
 91  5 23 18 50 45.0000000  0  6G18G11G 2G16G19G 6
  22303091.938     7491324.512 6   5837390.81021        18.750           1.406
  22873000.961    -7201578.292 6  -5611613.70921        18.000           1.125
  21986793.742   -12217260.522 7  -9519933.29922        23.000           2.094
  23335545.586    -5389564.607 6  -4199659.78521        12.500           0.594
  20768976.758      -88105.258 7    -68654.68522        20.500           2.125
  23275321.953    -6566150.262 6  -4981616.26521        12.500           0.438
 91  5 23 18 51  0.0000000  0  6G18G11G 2G16G19G 6
  22311099.789     7533403.507 6   5870179.59621        19.250           1.344
  22870928.133    -7212477.733 6  -5620106.77421        18.500           1.063
  21979193.813   -12257196.380 7  -9551052.12022        22.750           2.063
  23334879.633    -5393062.051 6  -4202385.07821        12.000           0.719
  20770515.805      -80029.374 7    -62361.80422        20.500           2.031
  23267923.383    -6605028.791 6  -5011911.18821        12.500           0.406
 91  5 23 18 51 15.0000000  0  6G18G11G 2G16G19G 6
  22319122.992     7575561.660 6   5903030.06221        18.750           1.344
  22868882.148    -7223217.839 6  -5628475.69521        18.000           1.094
  21971610.484   -12297051.159 7  -9582107.77222        23.250           2.188
  23334247.641    -5396414.853 6  -4204997.67021        13.000           0.656
  20772063.969      -71886.197 7    -56016.49122        20.250           2.125
  23260534.320    -6643880.568 6  -5042185.26821        12.500           0.500
 91  5 23 18 51 30.0000000  0  6G18G11G 2G16G19G 6
  22327161.531     7617797.685 6   5935941.19721        19.000           1.375
  22866868.000    -7233799.575 6  -5636721.19521        18.000           1.031
  21964041.563   -12336825.995 7  -9613101.12922        23.500           2.125
  23333631.570    -5399624.366 6  -4207498.60821        12.250           0.563
  20773626.750      -63676.725 7    -49619.51622        20.250           2.125
  23253140.742    -6682706.495 6  -5072439.23221        12.500           0.469
 91  5 23 18 51 45.0000000  0  6G18G11G 2G16G19G 6
  22335211.039     7660113.846 6   5968914.78721        18.750           1.438
  22864885.508    -7244220.052 6  -5644841.04821        17.750           1.031
  21956487.609   -12376518.046 7  -9644029.97622        23.500           2.094
  23333049.859    -5402687.688 6  -4209885.62121        12.250           0.656
  20775201.336      -55398.396 7    -43168.89422        20.500           1.969
  23245759.086    -6721503.938 6  -5102670.97121        12.000           0.531
 91  5 23 18 52  0.0000000  0  6G18G11G 2G16G19G 6
  22343279.156     7702506.301 6   6001947.81521        19.500           1.313
  22862934.492    -7254483.051 6  -5652838.19221        18.000           0.969
  21948949.969   -12416130.980 7  -9674897.17622        23.000           2.188
  23332491.977    -5405608.710 6  -4212161.75621        12.000           0.500
  20776787.828      -47054.902 7    -36667.49022        20.500           2.156
  23238382.547    -6760276.743 6  -5132883.51321        13.000           0.594
 91  5 23 18 52 15.0000000  0  6G18G11G 2G16G19G 6
  22351361.578     7744974.002 7   6035039.48721        20.000           1.344
  22861011.523    -7264589.452 6  -5660713.30121        18.250           1.031
  21941425.516   -12455665.802 7  -9705703.50722        23.250           2.125
  23331960.023    -5408388.534 5  -4214327.87221        11.500           0.531
  20778388.930      -38647.164 7    -30116.02722        20.250           2.063
  23231005.625    -6799025.868 6  -5163077.61421        12.750           0.656
 91  5 23 18 52 30.0000000  0  6G18G11G 2G16G19G 6
  22359456.336     7787520.352 6   6068192.44821        19.500           1.219
  22859115.938    -7274535.223 6  -5668463.25721        17.750           1.031
  21933919.023   -12495118.460 7  -9736445.82022        23.750           2.188
  23331459.648    -5411023.407 6  -4216381.02721        12.250           0.563
  20780001.547      -30171.247 7    -23511.43122        20.250           2.063
  23223637.766    -6837747.480 6  -5193250.26421        12.250           0.563
 91  5 23 18 52 45.0000000  0  6G18G11G 2G16G19G 6
  22367568.000     7830143.210 6   6101405.02221        19.500           1.344
  22857256.164    -7284322.196 6  -5676089.46321        18.750           1.094
  21926425.711   -12534490.802 7  -9767125.54422        23.250           2.188
  23330985.898    -5413515.249 6  -4218322.73421        12.750           0.500
  20781627.133      -21629.058 7    -16855.19122        20.250           2.000
  23216272.969    -6876443.345 5  -5223402.86121        11.750           0.563
 91  5 23 18 53  0.0000000  0  6G18G11G 2G16G19G 6
  22375693.375     7872844.553 6   6134678.74921        19.250           1.344
  22855424.055    -7293948.189 6  -5683590.23521        18.500           1.125
  21918950.969   -12573780.562 7  -9797740.91622        23.250           2.125
  23330543.633    -5415862.189 6  -4220151.54121        13.000           0.500
  20783267.438      -13018.360 7    -10145.56722        20.000           2.031
  23208917.344    -6915111.425 6  -5253533.81721        13.000           0.500
 91  5 23 18 53 15.0000000  0  6G18G11G 2G16G19G 6
  22383834.070     7915621.069 6   6168011.05221        19.750           1.406
  22853618.891    -7303416.432 6  -5690968.09321        18.250           1.094
  21911487.961   -12612990.910 7  -9828294.41322        23.250           2.219
  23330122.797    -5418067.632 6  -4221870.08121        12.250           0.500
  20784917.477       -4342.552 7     -3385.20822        20.750           2.094
  23201567.750    -6953755.017 6  -5283645.69221        12.750           0.500
 91  5 23 18 53 30.0000000  0  6G18G11G 2G16G19G 6
  22391986.852     7958467.201 6   6201397.60021        19.500           1.313
  22851849.070    -7312731.779 6  -5698226.79521        18.250           1.125
  21904037.969   -12652126.916 7  -9858789.97922        22.750           2.250
  23329728.664    -5420136.726 6  -4223482.36521        12.250           0.531
  20786581.789        4393.441 6      3422.05122        19.750           2.031
  23194212.625    -6992379.086 6  -5313742.34121        12.750           0.500
 91  5 23 18 53 45.0000000  0  6G18G11G 2G16G19G 6
  22400154.359     8001388.081 6   6234842.39421        19.500           1.438
  22850104.008    -7321888.604 6  -5705361.98521        18.000           1.063
  21896608.266   -12691183.003 7  -9889223.27122        22.750           2.219
  23329362.594    -5422063.703 6  -4224983.91421        12.250           0.469
  20788253.891       13195.081 7     10280.44922        20.500           2.094
  23186865.727    -7030978.143 6  -5343819.50721        12.000           0.563
 91  5 23 18 54  0.0000000  0  6G18G11G 2G16G19G 6
  22408337.273     8044389.304 6   6268349.78921        19.250           1.219
  22848393.969    -7330881.251 6  -5712369.24721        18.250           1.094
  21889191.688   -12730153.412 7  -9919589.80122        23.000           2.313
  23329022.633    -5423843.230 6  -4226370.58521        12.250           0.469
  20789942.758       22068.079 7     17194.45422        21.000           2.156
  23179526.867    -7069546.574 5  -5373872.78821        11.750           0.500
 91  5 23 18 54 15.0000000  0  6G18G11G 2G16G19G 6
  22416533.102     8087457.340 6   6301909.25121        19.750           1.281
  22846714.227    -7339722.838 6  -5719258.79521        18.250           1.063
  21881790.258   -12769051.297 7  -9949899.81922        22.750           2.281
  23328711.461    -5425489.001 6  -4227653.01321        12.500           0.688
  20791643.453       30999.084 7     24153.66422        20.500           2.031
  23172195.375    -7108097.652 6  -5403912.56521        12.250           0.625
 91  5 23 18 54 30.0000000  0  6G18G11G 2G16G19G 6
  22424743.156     8130597.542 6   6335524.95021        19.500           1.063
  22845059.727    -7348407.825 6  -5726026.31621        18.750           1.188
  21874403.523   -12807871.075 7  -9980148.97222        23.250           2.031
  23328423.063    -5426995.358 6  -4228826.81521        12.250           0.625
  20793357.852       39993.568 7     31162.33722        20.000           2.031
  23164862.898    -7146625.965 6  -5433934.59721        12.750           0.594
 91  5 23 18 54 45.0000000  0  6G18G11G 2G16G19G 6
  22432966.906     8173815.206 6   6369201.00321        19.250           1.219
  22843439.344    -7356930.397 6  -5732667.28721        18.500           1.156
  21867031.445   -12846606.864 7 -10010332.69122        23.250           2.188
  23328161.156    -5428356.521 6  -4229887.45521        12.000           0.563
  20795077.727       49057.363 7     38225.02322        20.250           2.156
  23157531.750    -7185125.586 6  -5463934.26021        12.250           0.656
 91  5 23 18 55  0.0000000  0  6G18G11G 2G16G19G 6
  22441204.188     8217109.073 6   6402936.43721        19.000           1.281
  22841846.914    -7365291.668 6  -5739182.56821        18.500           1.156
  21859676.805   -12885259.848 7 -10040451.88022        23.000           2.188
  23327932.000    -5429573.700 6  -4230835.91521        12.750           0.656
  20796816.453       58189.494 7     45340.95722        20.000           2.156
  23150210.086    -7223597.720 6  -5493912.52221        12.250           0.688
 91  5 23 18 55 14.9990000  0  6G18G11G 2G16G19G 6
  22449458.644     8260475.065 6   6436728.06521        19.000           1.281
  22840286.214    -7373491.894 6  -5745572.36221        18.250           1.125
  21852338.292   -12923828.223 7 -10070505.13822        22.750           2.125
  23327727.980    -5430648.105 6  -4231673.14721        12.750           0.531
  20798567.683       67388.274 7     52508.83122        20.750           2.156
  23142896.050    -7262040.717 6  -5523868.08821        12.250           0.594
 91  5 23 18 55 29.9990000  0  6G18G11G 2G16G19G 6
  22457724.784     8303914.801 6   6470577.16521        19.250           1.250
  22838756.159    -7381535.810 6  -5751840.35321        17.750           1.188
  21845012.714   -12962320.780 7                        22.500
  23327548.284    -5431583.583 6  -4232402.08921        12.500           0.563
  20800329.769       76651.249 7     59726.72122        21.000           2.250
  23135587.886    -7300463.560 6                        12.750
 91  5 23 18 55 44.9990000  0  6G18G11G 2G16G19G 6
  22466004.542     8347431.674 6   6504486.36721        18.750           1.281
  22837256.058    -7389416.771 6  -5757981.36721        17.750           1.156
  21837703.440   -13000728.872 7                        22.750
  23327398.073    -5432374.044 6  -4233018.05421        12.750           0.469
  20802105.019       85983.816 7     66998.84122        20.750           2.188
  23128278.542    -7338857.432 6                        12.750
 91  5 23 18 55 59.9990000  0  6G18G11G 2G16G19G 6
  22474300.722     8391020.246 6   6538451.44521        18.750           1.219
  22835786.409    -7397139.538 6  -5763999.10421        17.750           1.125
  21830409.612   -13039057.278 7                        22.500
  23327276.870    -5433024.461 6  -4233524.88621        12.750           0.563
  20803893.433       95381.069 7     74321.36122        21.250           2.219
  23120979.190    -7377227.279 6                        12.750
 91  5 23 18 56 14.9990000  0  6G18G11G 2G16G19G 6
  22482611.550     8434685.446 6   6572476.22421        19.000           1.250
  22834348.198    -7404698.937 6  -5769889.55621        18.250           1.156
  21823135.190   -13077300.970 7 -10190094.22222        22.500           2.313
  23327178.870    -5433530.021 6  -4233918.84121        12.750           0.500
  20805695.105      104848.228 7     81698.35122        20.750           2.156
  23113681.558    -7415568.076 6  -5643499.71321        13.000           0.563
 91  5 23 18 56 29.9990000  0  6G18G11G 2G16G19G 6
  22490932.245     8478419.660 6   6606554.78821        18.750           1.250
  22832940.690    -7412102.147 6  -5775658.29421        18.500           1.094
  21815870.855   -13115466.777 7 -10219833.79522        22.000           2.344
  23327109.269    -5433898.178 6  -4234205.73221        12.750           0.438
  20807512.683      114378.021 7     89124.14822        20.250           2.188
  23106389.065    -7453886.937 6  -5673358.53821        13.000           0.438
 91  5 23 18 56 44.9990000  0  6G18G11G 2G16G19G 6
  22499268.831     8522225.548 6   6640689.20021        19.000           1.219
  22831562.269    -7419346.107 6  -5781302.94521        18.000           1.031
  21808623.222   -13153551.685 7 -10249510.33322        22.500           2.344
  23327067.987    -5434125.745 6  -4234383.07721        12.750           0.563
  20809334.605      123973.473 7     96601.10622        21.000           2.125
  23099102.964    -7492180.873 6  -5703197.94421        13.000           0.594
 91  5 23 18 56 59.9990000  0  6G18G11G 2G16G19G 6
  22507617.300     8566102.814 6   6674879.23121        18.500           1.344
  22830212.894    -7426431.124 6  -5786823.74821        17.750           1.125
  21801390.183   -13191556.050 7 -10279124.10622        22.250           2.313
  23327051.948    -5434213.216 6                        12.500
  20811173.058      133634.289 7    104129.00222        21.750           2.188
  23091821.401    -7530450.325 6  -5733018.27421        12.250           0.594
 91  5 23 18 57 14.9990000  0  6G18G11G 2G16G19G 6
  22515978.839     8610051.475 6   6709124.89621        18.000           1.156
  22828894.370    -7433356.673 6  -5792220.27821        17.500           1.125
  21794173.198   -13229479.302 7 -10308674.67122        22.000           2.344
  23327060.745    -5434160.453 6                        13.250
  20813025.456      143361.095 7    111708.31622        21.250           2.156
  23084544.800    -7568694.790 6  -5762819.13821        12.500           0.531
 91  5 23 18 57 29.9990000  0  6G18G11G 2G16G19G 6
  22524358.019     8654068.263 6   6743423.64221        18.000           1.250
  22827604.792    -7440125.638 6  -5797494.80421        17.750           1.094
  21786973.480   -13267324.141 7 -10338164.13822        22.750           2.438
  23327097.972    -5433970.141 6                        13.250
  20814887.644      153150.813 7    119336.65922        20.500           2.188
  23077267.495    -7606917.230 6  -5792602.82421        12.500           0.563
 91  5 23 18 57 44.9990000  0  6G18G11G 2G16G19G 6
  22532745.940     8698159.976 6   6777780.77121        17.500           1.156
  22826350.917    -7446731.059 6  -5802641.88921        17.750           1.125
  21779786.792   -13305083.983 7 -10367587.37222        22.750           2.438
  23327157.933    -5433635.932 6                        12.500
  20816765.026      163010.254 7    127019.32522        21.250           2.125
  23070003.050    -7645110.815 6  -5822364.02521        13.250           0.625
 91  5 23 18 57 59.9990000  0  6G18G11G 2G16G19G 6
  22541148.776     8742318.388 6   6812189.86921        17.250           1.250
  22825121.011    -7453180.968 6  -5807667.80421        17.500           1.125
  21772616.261   -13342766.801 7 -10396950.59222        23.250           2.344
  23327245.901    -5433166.213 6  -4233635.46521        12.000           0.500
  20818651.261      172931.326 7    134750.02222        21.000           2.031
  23062740.206    -7683283.569 6  -5852109.02221        13.250           0.594
 91  5 23 18 58 14.9990000  0  6G18G11G 2G16G19G 6
  22549566.722     8786548.472 6   6846654.80621        17.500           1.250
  22823923.683    -7459469.878 6  -5812568.26121        18.000           1.063
  21765461.667   -13380366.888 7 -10426249.34822        23.000           2.375
  23327362.362    -5432555.180 5  -4233159.35621        11.750           0.563
  20820553.230      182919.548 7    142533.04322        21.000           2.188
  23055478.909    -7721429.957 6  -5881833.44921        13.500           0.625
 91  5 23 18 58 29.9990000  0  6G18G11G 2G16G19G 6
  22557995.565     8830845.890 6   6881172.22421        17.500           1.250
  22822760.292    -7465602.024 6  -5817346.55921        18.500           1.188
  21758322.175   -13417888.527 7 -10455486.97022        23.250           2.438
  23327505.511    -5431806.892 5  -4232576.28821        11.750           0.469
  20822463.269      192970.720 7    150365.12022        20.250           2.250
  23048222.823    -7759554.242 6  -5911540.67121        13.500           0.563
 91  5 23 18 58 44.9990000  0  6G18G11G 2G16G19G 6
  22566439.230     8875215.506 6   6915745.89521        17.750           1.188
  22821621.386    -7471572.097 6  -5821998.56821        18.500           1.125
  21751195.675   -13455326.470 7 -10484659.37822        23.000           2.406
  23327673.042    -5430916.856 5  -4231882.76921        11.500           0.563
  20824389.565      203090.138 7    158250.36222        20.000           2.219
  23040976.245    -7797651.220 6  -5941226.60121        13.750           0.594
 91  5 23 18 58 59.9990000  0  6G18G11G 2G16G19G 6
  22574895.644     8919654.073 6   6950373.29821        18.000           1.156
  22820516.245    -7477382.853 6  -5826526.43921        18.250           1.156
  21744089.675   -13492683.301 7 -10513768.58022        23.250           2.469
  23327869.761    -5429888.112 5  -4231081.16221        11.000           0.531
  20826330.394      213274.851 6    166186.48022        19.750           2.219
  23033729.120    -7835723.793 6  -5970893.52721        13.750           0.594
 91  5 23 18 59 14.9990000  0  6G18G11G 2G16G19G 6
  22583364.167     8964156.755 6   6985050.67521        18.000           1.250
  22819440.253    -7483038.905 6  -5830933.76021        18.250           1.188
  21736992.644   -13529963.727 7 -10542818.24323        22.750           2.531
  23328086.878    -5428725.123 5  -4230174.95621        10.750           0.563
  20828276.050      223520.301 7    174169.93722        20.750           2.156
  23026489.081    -7873776.524 6  -6000544.97421        13.500           0.688
 91  5 23 18 59 29.9990000  0  6G18G11G 2G16G19G 6
  22591847.784     9008727.641 6   7019781.17721        17.750           1.188
  22818395.745    -7488536.053 6  -5835217.25821        18.500           1.188
  21729915.526   -13567163.445 7 -10571805.01522        23.500           2.469
  23328341.511    -5427423.926 5  -4229161.05021        11.750           0.594
  20830239.948      233830.698 7    182203.99422        20.500           2.188
  23019251.222    -7911805.220 6  -6030177.70321        13.500           0.625
 91  5 23 18 59 44.9990000  0  6G18G11G 2G16G19G 6
  22600342.331     9053367.769 6   7054565.63721        17.250           1.250
  22817379.519    -7493872.830 6  -5839375.79421        18.750           1.188
  21722849.761   -13604281.047 7 -10600727.81423        23.500           2.500
  23328614.683    -5425983.312 5  -4228038.51721        11.500           0.594
  20832216.026      244207.353 7    190289.68422        20.500           2.188
  23012019.581    -7949808.617 6  -6059790.70821        13.500           0.594
 91  5 23 18 59 59.9990000  0  6G18G11G 2G16G19G 6
  22608849.433     9098074.588 6   7089402.05421        17.000           1.250
  22816395.003    -7499051.544 6  -5843411.16521        19.000           1.188
  21715805.058   -13641318.746 7 -10629588.34223        23.750           2.625
  23328913.667    -5424405.736 5  -4226809.25721        11.000           0.531
  20834202.901      254648.169 7    198425.37022        20.250           2.094
  23004794.128    -7987788.851 6  -6089385.67221        14.250           0.563
 91  5 23 19  0 14.9990000  0  6G18G11G 2G16G19G 6
  22617369.651     9142857.141 6   7124297.49421        16.500           1.219
  22815440.081    -7504063.075 6  -5847316.26921        18.500           1.156
  21708774.308   -13678267.517 7 -10658379.56923        24.000           2.594
  23329243.894    -5422682.294 5  -4225466.32421        11.500           0.656
  20836202.269      265162.156 7    206618.07822        20.500           2.125
  22997569.237    -8025736.924 6  -6118955.58921        14.000           0.625
 91  5 23 19  0 29.9990000  0  6G18G11G 2G16G19G 6
  22625907.253     9187710.814 6   7159248.35521        16.500           1.125
  22814517.269    -7508911.429 6  -5851094.21121        18.250           1.156
  21701756.894   -13715131.249 7 -10687104.54023        24.250           2.531
  23329597.292    -5420817.117 5  -4224012.95321        11.000           0.500
  20838216.292      275745.197 7    214864.59022        20.750           2.156
  22990355.355    -8063656.946 6  -6148503.63621        14.250           0.625
 91  5 23 19  0 44.9990000  0  6G18G11G 2G16G19G 6
  22634453.558     9232636.334 6   7194255.19621        16.750           1.094
  22813627.292    -7513595.502 6  -5854744.14521        18.500           1.281
  21694759.675   -13751908.672 7 -10715762.25523        25.000           2.625
  23329981.917    -5418809.214 5  -4222448.39121        11.250           0.531
  20840244.206      286398.331 7    223165.72122        20.500           2.188
  22983148.034    -8101547.671 6  -6178028.85521        14.250           0.656
 91  5 23 19  0 59.9990000  0  6G18G11G 2G16G19G 6
  22643017.753     9277633.918 6   7229318.18921        17.000           1.219
  22812764.253    -7518115.087 6  -5858265.91121        18.250           1.219
  21687776.308   -13788599.623 7 -10744352.59623        24.500           2.594
  23330391.151    -5416658.593 5  -4220772.60121        11.750           0.594
  20842287.198      297121.857 6    231521.70322        19.750           2.188
  22975937.058    -8139408.990 6  -6207531.15621        13.750           0.625
 91  5 23 19  1 14.9990000  0  6G18G11G 2G16G19G 6
  22651593.487     9322704.546 6   7264438.09921        16.000           1.219
  22811939.034    -7522468.705 6  -5861658.35121        18.500           1.250
  21680811.831   -13825202.535 7 -10772874.32722        24.500           2.438
  23330825.425    -5414364.023 5  -4218984.64021        11.750           0.500
  20844339.683      307917.282 7    239933.71422        20.500           2.125
  22968742.136    -8177239.469 6  -6237009.43021        13.750           0.719
 91  5 23 19  1 29.9990000  0  6G18G11G 2G16G19G 6
  22660184.862     9367841.499 6   7299609.68921        16.500           1.156
  22811140.597    -7526663.205 6  -5864926.80821        18.750           1.281
  21673862.308   -13861724.294 7 -10801332.82823        25.000           2.500
  23331290.894    -5411932.584 6  -4217090.03921        12.000           0.469
  20846403.409      318777.793 7    248396.44622        20.750           2.094
  22961544.667    -8215045.969 6  -6266469.02621        13.000           0.750
 91  5 23 19  1 44.9990000  0  6G18G11G 2G16G19G 6
  22668786.909     9413049.220 6   7334836.42721        16.500           1.125
  22810373.065    -7530693.543 6  -5868067.34021        18.250           1.219
  21666929.105   -13898159.846 7 -10829724.15622        25.250           2.438
  23331781.823    -5409359.429 6  -4215084.99921        12.500           0.563
  20848485.042      329708.324 7    256913.73922        20.250           2.125
  22954356.401    -8252823.437 6  -6295905.99721        13.250           0.688
 91  5 23 19  1 59.9990000  0  6G18G11G 2G16G19G 6
  22677403.480     9458324.538 6   7370115.83521        16.250           1.125
  22809636.214    -7534562.526 6  -5871082.13921        18.250           1.219
  21660009.308   -13934511.969 7 -10858050.46923        25.000           2.531
  23332295.386    -5406647.320 5  -4212971.67921        11.750           0.500
  20850578.144      340706.012 7    265483.35422        20.250           2.094
  22947178.136    -8290574.838 6  -6325322.66121        13.750           0.781
 91  5 23 19  2 14.9990000  0  6G18G11G 2G16G19G 6
  22686031.065     9503661.043 6   7405442.91421        16.000           1.125
  22808930.612    -7538276.298 6  -5873975.99921        18.750           1.188
  21653107.855   -13970786.715 7 -10886316.49722        25.000           2.469
  23332837.308    -5403802.597 5  -4210755.04121        11.250           0.406
  20852682.901      351764.660 7    274100.47822        20.500           2.125
  22939994.292    -8328306.208 6  -6354723.71121        13.500           0.781
 91  5 23 19  2 29.9990000  0  6G18G11G 2G16G19G 6
  22694670.565     9549069.179 6   7440825.82321        16.000           1.094
  22808255.589    -7541824.252 6  -5876740.64721        18.500           1.125
  21646220.862   -14006973.329 7 -10914513.84823        24.750           2.563
  23333407.565    -5400814.711 5  -4208426.84321        11.750           0.531
  20854801.636      362894.952 7    282773.42622        20.750           2.094
  22932822.214    -8366006.932 6  -6384100.88621        13.750           0.750
 91  5 23 19  2 44.9990000  0  6G18G11G 2G16G19G 6
  22703323.737     9594540.391 6   7476257.86921        15.750           1.063
  22807609.495    -7545214.468 6  -5879382.38521        18.500           1.188
  21639350.261   -14043080.111 7 -10942648.98723        25.000           2.531
  23333999.847    -5397692.064 5  -4205993.64621        11.750           0.531
  20856931.378      374088.886 7    291495.96222        20.500           2.063
  22925654.050    -8403685.175 6  -6413460.54921        13.750           0.750
 91  5 23 19  2 59.9990000  0  6G18G11G 2G16G19G 6
  22711986.300     9640070.851 6   7511736.09821        15.500           1.063
  22806991.776    -7548450.337 6  -5881903.85021        18.250           1.125
  21632494.448   -14079110.352 7 -10970724.49123        25.750           2.500
  23334621.745    -5394438.387 6  -4203458.33821        12.000           0.469
  20859073.995      385343.025 6    300265.41522        19.750           2.063
  22918486.065    -8441344.346 6  -6442805.33221        13.500           0.875
 91  5 23 19  3 14.9990000  0  6G18G11G 2G16G19G 6
  22720663.722     9685662.583 6   7547262.06121        15.750           0.969
  22806407.487    -7551529.938 6  -5884303.55321        18.000           1.219
  21625652.019   -14115062.016 7 -10998738.76123        25.500           2.563
  23335265.136    -5391051.979 6  -4200819.60621        12.250           0.500
  20861227.081      396659.184 7    309083.18622        20.500           2.031
  22911323.581    -8478982.514 6  -6472133.75321        13.000           0.688
 91  5 23 19  3 29.9990000  0  6G18G11G 2G16G19G 6
  22729351.589     9731318.433 6   7582837.98921        15.250           0.969
  22805852.440    -7554450.074 6  -5886578.99221        18.750           1.125
  21618826.659   -14150932.052 7 -11026689.42922        25.250           2.469
  23335935.940    -5387529.848 6  -4198075.11421        12.750           0.469
  20863391.972      408040.481 6    317951.72522        19.500           2.094
  22904164.073    -8516596.604 6  -6501443.41821        13.250           0.813
 91  5 23 19  3 44.9990000  0  6G18G11G 2G16G19G 6
  22738049.972     9777039.647 6   7618464.84821        15.000           1.000
  22805327.823    -7557209.241 6  -5888729.00121        18.750           1.156
  21612016.948   -14186718.717 7 -11054575.13322        25.000           2.469
  23336629.355    -5383870.171 6  -4195223.44721        12.750           0.438
  20865570.019      419488.459 7    326872.22122        20.000           2.094
  22897010.378    -8554184.910 6  -6530732.97421        13.500           0.813
 91  5 23 19  3 59.9990000  0  6G18G11G 2G16G19G 6
  22746762.870     9822829.559 6   7654145.23521        14.500           1.063
  22804833.347    -7559803.772 6  -5890750.72921        18.750           1.156
  21605224.542   -14222418.228 7 -11082392.92423        25.250           2.500
  23337353.026    -5380069.798 6  -4192262.14121        12.250           0.563
  20867762.183      431006.659 7    335847.43522        20.500           2.188
  22889861.659    -8591743.914 6  -6559999.70821        13.000           0.719
 91  5 23 19  4 14.9990000  0  6G18G11G 2G16G19G 6
  22755490.714     9868682.909 6   7689875.05121        14.750           1.094
  22804371.526    -7562238.773 6  -5892648.15521        19.000           1.281
  21598447.026   -14258035.811 7 -11110146.87623        25.250           2.500
  23338101.347    -5376134.112 5  -4189195.39821        11.750           0.563
  20869966.081      442590.166 7    344873.53722        20.000           2.000
  22882722.222    -8629278.710 6  -6589247.57921        13.500           0.750
 91  5 23 19  4 29.9990000  0  6G18G11G 2G16G19G 6
  22764229.323     9914599.427 6   7725654.09821        15.000           0.938
  22803937.948    -7564514.069 6  -5894421.13221        19.000           1.188
  21591682.323   -14293571.185 7 -11137836.75923        24.750           2.500
  23338878.870    -5372062.964 6  -4186023.10921        12.000           0.500
  20872183.011      454239.263 7    353950.74522        20.250           2.125
  22875584.651    -8666789.004 6  -6618476.36121        13.750           0.781
 91  5 23 19  4 44.9990000  0  6G18G11G 2G16G19G 6
  22772979.206     9960576.800 6   7761480.55621        14.750           1.063
  22803533.339    -7566631.571 6  -5896071.14521        19.000           1.250
  21584936.448   -14329026.126 7 -11165463.97422        25.500           2.469
  23339676.315    -5367858.125 5  -4182746.64521        11.500           0.563
  20874411.972      465951.901 7    363077.47022        20.250           2.063
  22868446.761    -8704276.678 6  -6647687.51421        13.750           0.719
 91  5 23 19  4 59.9990000  0  6G18G11G 2G16G19G 6
  22781738.667    10006613.622 6   7797353.33621        14.500           1.063
  22803161.394    -7568592.605 6  -5897599.23921        18.750           1.063
  21578205.222   -14364401.931 7 -11193029.54322        25.250           2.438
  23340499.878    -5363521.479 5  -4179367.46721        11.250           0.469
  20876652.308      477726.957 7    372252.83122        20.250           2.063
  22861319.292    -8741743.166 6  -6676882.16321        13.500           0.844
 91  5 23 19  5 14.9990000  0  6G18G11G 2G16G19G 6
  22790508.909    10052707.353 6   7833270.45921        14.250           0.969
  22802815.597    -7570399.450 6  -5899007.19721        19.250           1.094
  21571488.105   -14399700.880 7 -11220535.20623        24.750           2.500
  23341354.183    -5359055.337 5  -4175887.39421        11.750           0.594
  20878906.417      489562.101 7    381475.01522        20.250           2.094
  22854193.753    -8779190.734 6  -6706062.07421        13.250           0.719
 91  5 23 19  5 29.9990000  0  6G18G11G 2G16G19G 6
  22799293.870    10098863.515 6   7869236.22721        15.250           1.031
  22802503.706    -7572046.395 6  -5900290.55521        19.500           1.188
  21564787.894   -14434917.228 7 -11247976.50323        24.250           2.656
  23342224.237    -5354454.187 5  -4172302.13421        11.750           0.563
  20881169.933      501462.915 6    390748.36622        19.750           1.969
  22847071.183    -8816613.647 6  -6735222.77921        14.000           0.719
 91  5 23 19  5 44.9990000  0  6G18G11G 2G16G19G 6
  22808087.503    10145081.874 6   7905250.46421        14.500           0.906
  22802221.120    -7573533.350 6  -5901449.24421        19.500           1.125
  21558100.159   -14470050.708 7 -11275353.22823        24.750           2.594
  23343128.550    -5349718.211 6  -4168611.78121        12.000           0.500
  20883446.628      513429.500 7    400072.96622        20.000           2.094
  22839956.886    -8854011.803 6  -6764364.19621        14.000           0.781
 91  5 23 19  5 59.9990000  0  6G18G11G 2G16G19G 6
  22816896.425    10191363.629 6   7941314.10221        14.250           0.906
  22801967.651    -7574858.935 6  -5902482.19121        19.250           1.031
  21551431.065   -14505099.872 7 -11302664.25923        25.000           2.531
  23344055.980    -5344846.153 6  -4164815.39421        12.500           0.500
  20885737.815      525463.388 6    409450.01922        19.000           2.094
  22832841.769    -8891383.753 6  -6793485.18121        14.000           0.750
 91  5 23 19  6 14.9990000  0  6G18G11G 2G16G19G 6
  22825715.800    10237704.619 6   7977423.90121        14.000           1.000
  22801746.190    -7576027.138 6  -5903392.50021        18.750           1.094
  21544775.995   -14540068.880 7 -11329912.82423        25.000           2.656
  23345010.128    -5339842.126 6  -4160916.17721        12.250           0.531
  20888039.206      537560.627 7    418876.42822        20.250           2.094
  22825736.331    -8928733.441 6  -6822588.82821        14.250           0.719
 91  5 23 19  6 29.9990000  0  6G18G11G 2G16G19G 6
  22834544.753    10284106.643 6   8013581.24521        14.250           1.000
  22801552.815    -7577035.862 6  -5904178.54421        19.000           1.063
  21538137.034   -14574955.411 7 -11357097.12823        24.750           2.688
  23345985.573    -5334704.041 6  -4156912.50321        12.250           0.531
  20890351.651      549723.402 7    428353.90622        20.250           2.125
  22818634.503    -8966058.807 6  -6851673.49421        14.250           0.781
 91  5 23 19  6 44.9990000  0  6G18G11G 2G16G19G 6
  22843386.105    10330570.501 6   8049786.78121        14.000           1.031
  22801394.253    -7577883.866 6  -5904839.34921        18.250           1.125
  21531514.675   -14609758.065 7 -11384216.06623        25.000           2.625
  23346989.495    -5329430.793 5  -4152803.50721        11.750           0.531
  20892681.347      561952.854 7    437883.34322        20.000           2.031
  22811533.745    -9003358.527 6  -6880738.19521        14.250           0.750
 91  5 23 19  6 59.9990000  0  6G18G11G 2G16G19G 6
  22852235.073    10377085.250 6   8086031.97121        14.250           0.938
  22801259.839    -7578581.894 6  -5905383.28721        19.000           1.094
  21524905.214   -14644487.545 7 -11411277.98723        25.250           2.625
  23348015.698    -5324033.698 5  -4148598.00421        11.500           0.656
  20895018.487      574237.991 6    447456.16422        19.250           2.000
  22804442.862    -9040643.481 6  -6909791.38921        14.500           0.875
 91  5 23 19  7 14.9990000  0  6G18G11G 2G16G19G 6
  22861100.995    10423660.611 6   8122324.39521        14.000           0.875
  22801159.081    -7579119.730 6  -5905802.40721        18.500           1.219
  21518312.784   -14679133.654 7 -11438274.93923        24.250           2.625
  23349070.292    -5318502.597 6  -4144288.07921        12.250           0.563
  20897368.331      586589.262 7    457080.52522        20.250           2.031
  22797350.792    -9077903.295 6  -6938824.98921        15.250           0.906
 91  5 23 19  7 29.9990000  0  6G18G11G 2G16G19G 6
  22869971.659    10470294.687 6   8158662.57821        13.500           0.875
  22801085.956    -7579499.087 6  -5906098.03521        18.500           1.094
  21511735.894   -14713698.096 7 -11465208.26023        24.000           2.656
  23350148.894    -5312839.444 6  -4139875.26221        12.500           0.563
  20899731.175      599005.053 7    466755.15722        20.250           2.156
  22790262.683    -9115139.771 6  -6967840.40121        14.750           0.750
 91  5 23 19  7 44.9990000  0  6G18G11G 2G16G19G 6
  22878859.722    10516990.347 6   8195048.73621        13.750           0.844
  22801042.886    -7579717.035 6                        18.750
  21505175.370   -14748177.904 7 -11492075.62623        24.750           2.656
  23351252.151    -5307041.225 6  -4135357.17921        12.000           0.531
  20902106.003      611488.208 7    476482.28422        20.000           2.031
  22783183.050    -9152349.901 6  -6996835.28321        14.250           0.813
 91  5 23 19  7 59.9990000  0  6G18G11G 2G16G19G 6
  22887757.651    10563741.500 6   8231478.15421        14.000           0.813
  22801030.433    -7579779.515 6                        18.500
  21498627.339   -14782578.980 7 -11518881.64923        24.750           2.625
  23352379.394    -5301113.997 5  -4130738.59021        11.500           0.563
  20904492.800      624033.137 7    486257.53722        20.000           2.094
  22776108.464    -9189539.563 6  -7025814.21521        14.750           0.781
 91  5 23 19  8 14.9990000  0  6G18G11G 2G16G19G 6
  22896666.901    10610557.194 6   8267957.83821        13.500           0.813
  22801052.112    -7579677.144 6                        18.750
  21492098.753   -14816891.987 7 -11545619.04323        24.750           2.688
  23353534.855    -5295048.797 5  -4126012.49121        11.750           0.625
  20906895.972      636648.940 6    496088.02422        19.750           2.063
  22769036.620    -9226699.416 6  -7054769.93121        14.750           0.750
 91  5 23 19  8 29.9990000  0  6G18G11G 2G16G19G 6
  22905584.948    10657434.770 6   8304485.74721        13.500           0.813
  22801102.980    -7579412.291 6                        19.000
  21485587.542   -14851118.930 7 -11572289.37423        25.500           2.813
  23354710.909    -5288847.849 5  -4121180.61721        11.000           0.469
  20909308.456      649333.365 6    505971.98122        19.750           2.031
  22761969.534    -9263831.642 6  -7083704.10721        14.500           0.906
 91  5 23 19  8 44.9990000  0  6G18G11G 2G16G19G 6
  22914517.855    10704366.744 6   8341056.05421        14.000           0.750
  22801181.495    -7578992.078 6                        19.250
  21479087.284   -14885266.798 7 -11598898.08823        25.000           2.719
  23355919.105    -5282518.566 5  -4116248.74621        11.750           0.469
  20911735.151      662079.287 6    515903.85822        19.750           2.094
  22754904.823    -9300943.400 6  -7112622.33421        14.250           1.000
 91  5 23 19  8 59.9990000  0  6G18G11G 2G16G19G 6
  22923458.214    10751355.274 6   8377670.41621        13.750           0.781
  22801294.034    -7578414.358 6  -5905252.90521        19.500           1.344
  21472605.753   -14919333.617 7 -11625443.64323        24.750           2.813
  23357149.136    -5276058.975 5  -4111215.31521        11.750           0.531
  20914173.534      674888.874 6    525885.34722        19.000           2.031
  22747844.269    -9338032.568 6  -7141522.96521        14.000           0.906
 91  5 23 19  9 14.9990000  0  6G18G11G 2G16G19G 6
  22932410.480    10798396.698 6   8414326.00621        14.000           0.750
  22801432.495    -7577682.454 6  -5904682.61121        19.250           1.219
  21466139.026   -14953322.470 7 -11651928.44123        25.250           2.844
  23358401.589    -5269472.375 5  -4106082.93521        11.250           0.406
  20916621.011      687758.878 7    535913.91722        20.000           2.063
  22740793.495    -9375102.300 6  -7170408.46021        14.250           0.906
 91  5 23 19  9 29.9990000  0  6G18G11G 2G16G19G 6
  22941370.831    10845494.607 6   8451025.61521        13.000           0.688
  22801601.870    -7576792.531 6  -5903989.18121        19.500           1.188
  21459685.183   -14987229.436 7 -11678349.43523        24.750           2.875
  23359677.034    -5262755.456 5  -4100849.00121        11.500           0.500
  20919079.894      700693.118 7    545992.53122        20.750           2.156
  22733745.878    -9412148.768 6  -7199275.82221        14.750           0.906
 91  5 23 19  9 44.9990000  0  6G18G11G 2G16G19G 6
  22950345.409    10892648.722 6   8487769.02121        13.250           0.750
  22801801.433    -7575744.700 6  -5903172.70321        19.750           1.344
  21453246.792   -15021054.561 7 -11704706.65723        24.250           2.906
  23360981.831    -5255908.232 6  -4095513.54021        12.000           0.500
  20921555.651      713691.674 7    556121.26222        20.000           2.063
  22726701.315    -9449172.019 6  -7228125.08221        14.750           0.906
 91  5 23 19  9 59.9990000  0  6G18G11G 2G16G19G 6
  22959328.323    10939860.057 6   8524557.00621        13.000           0.656
  22802028.597    -7574537.525 6  -5902232.07021        19.000           1.313
  21446825.581   -15054796.301 7 -11730998.90723        24.250           2.781
  23362309.065    -5248929.741 6  -4090075.79021        12.000           0.531
  20924042.480      726755.904 7    566301.17522        20.000           1.938
  22719659.784    -9486170.615 6  -7256955.14221        15.250           0.844
 91  5 23 19 10 14.9990000  0  6G18G11G 2G16G19G 6
  22968326.769    10987127.815 6   8561388.96221        13.250           0.688
  22802289.581    -7573171.652 6  -5901167.77121        19.000           1.281
  21440422.144   -15088455.376 7 -11757226.73823        24.750           2.906
  23363663.300    -5241820.588 5  -4084536.22121        11.750           0.500
  20926540.862      739885.362 7    576531.90722        20.250           2.000
  22712627.042    -9523145.164 6  -7285766.45621        15.250           0.969
 91  5 23 19 10 29.9990000  0  6G18G11G 2G16G19G 6
  22977330.612    11034453.766 6   8598266.24921        13.000           0.688
  22802579.644    -7571645.224 6  -5899978.36921        18.750           1.219
  21434034.284   -15122029.931 7 -11783388.71723        24.750           2.875
  23365043.105    -5234579.236 6  -4078893.63021        12.750           0.531
  20929051.761      753081.864 7    586814.88622        20.250           2.125
  22705590.558    -9560093.727 6  -7314557.53121        15.000           0.813
 91  5 23 19 10 44.9990000  0  6G18G11G 2G16G19G 6
  22986348.800    11081836.816 6   8635188.03221        13.250           0.656
  22802901.573    -7569959.015 6  -5898664.45921        19.000           1.250
  21427660.855   -15155520.464 7 -11809485.22023        25.250           3.094
  23366442.464    -5227206.231 5  -4073148.47621        11.500           0.438
  20931576.276      766344.692 7    597149.54622        20.000           2.094
  22698567.237    -9597016.920 6  -7343328.83421        15.000           0.781
 91  5 23 19 10 59.9990000  0  6G18G11G 2G16G19G 6
  22995376.815    11129277.262 6   8672154.53221        13.750           0.688
  22803252.636    -7568112.211 6  -5897225.41321        18.750           1.250
  21421303.589   -15188926.142 7 -11835515.60123        25.000           3.094
  23367871.198    -5219701.156 5  -4067300.39921        11.500           0.500
  20934111.644      779674.604 7    607536.47822        20.000           2.094
  22691542.776    -9633914.016 6  -7372079.80121        14.750           0.875
 91  5 23 19 11 14.9990000  0  6G18G11G 2G16G19G 6
  23004414.417    11176772.350 6   8709163.62621        13.250           0.719
  22803633.698    -7566107.419 6  -5895663.24921        18.500           1.125
  21414961.222   -15222249.592 7 -11861481.90923        25.250           3.031
  23369325.628    -5212066.971 5  -4061351.71821        11.250           0.438
  20936659.878      793069.093 7    617973.73722        20.250           2.031
  22684528.409    -9670787.617 6  -7400812.47321        14.750           0.938
 91  5 23 19 11 29.9990000  0  6G18G11G 2G16G19G 6
  23013459.855    11224317.682 6   8746211.87221        12.500           0.813
  22804045.808    -7563949.028 6  -5893981.40321        19.000           1.219
  21408634.894   -15255494.989 7 -11887387.40323        25.000           2.938
  23370802.980    -5204308.087 6  -4055305.87121        12.000           0.438
  20939222.659      806523.948 7    628458.02422        20.000           2.063
  22677512.956    -9707641.921 6  -7429530.08721        15.250           0.969
 91  5 23 19 11 44.9990000  0  6G18G11G 2G16G19G 6
  23022519.378    11271916.112 6   8783301.46921        13.000           0.844
  22804485.792    -7561633.752 6  -5892177.30221        18.500           1.188
  21402324.519   -15288658.955 7 -11913229.44223        25.000           2.906
  23372299.878    -5196421.320 6  -4049160.37221        12.000           0.531
  20941793.894      820042.248 7    638991.75622        20.250           2.031
  22670507.612    -9744473.635 6  -7458230.12121        15.500           0.906
 91  5 23 19 11 59.9990000  0  6G18G11G 2G16G19G 6
  23031586.698    11319564.029 6   8820429.64921        13.000           0.781
  22804955.823    -7559165.246 6  -5890253.80721        18.750           1.156
  21396027.792   -15321744.898 7 -11939010.67823        25.500           3.000
  23373825.331    -5188410.117 5  -4042917.90521        11.250           0.531
  20944376.753      833620.722 6    649572.37222        19.750           2.156
  22663500.956    -9781286.217 6  -7486915.22821        15.000           0.813
 91  5 23 19 12 14.9990000  0  6G18G11G 2G16G19G 6
  23040662.909    11367268.296 6   8857601.72821        13.000           0.719
  22805453.917    -7556536.293 6  -5888205.29021        18.750           1.125
  21389748.425   -15354745.652 7 -11964725.54423        25.500           2.875
  23375374.440    -5180267.854 5  -4036573.30021        11.750           0.531
  20946974.026      847266.633 6    660205.53622        19.750           2.031
  22656497.886    -9818072.375 6  -7515579.75021        14.750           0.813
 91  5 23 19 12 29.9990000  0  6G18G11G 2G16G19G 6
  23049753.620    11415024.746 6   8894814.47221        13.250           0.844
  22805985.823    -7553750.774 6  -5886034.77021        18.500           1.125
  21383485.065   -15387665.100 7 -11990377.04423        25.750           2.969
  23376951.776    -5171998.589 5  -4030129.76321        11.750           0.438
  20949582.847      860976.019 6    670888.16522        19.750           2.125
  22649505.159    -9854836.027 6  -7544226.73721        15.250           0.844
 91  5 23 19 12 44.9990000  0  6G18G11G 2G16G19G 6
  23058850.558    11462838.693 6   8932072.01921        12.750           0.688
  22806545.144    -7550803.168 6  -5883737.95221        18.250           1.125
  21377237.823   -15420497.630 7 -12015960.81723        26.000           2.938
  23378549.534    -5163596.873 5  -4023582.99721        11.500           0.500
  20952205.292      874754.466 7    681624.60822        20.250           2.125
  22642512.198    -9891571.575 6  -7572851.82121        14.750           0.906
 91  5 23 19 12 59.9990000  0  6G18G11G 2G16G19G 6
  23067959.683    11510709.521 6   8969373.89221        12.500           0.750
  22807139.136    -7547694.123 6  -5881315.33621        18.750           1.219
  21371004.636   -15453243.944 7 -12041477.41023        25.500           2.969
  23380173.683    -5155063.703 5  -4016933.81121        11.750           0.531
  20954841.480      888601.348 7    692414.37822        20.500           2.063
  22635527.800    -9928279.671 6  -7601455.51321        15.000           0.938
 91  5 23 19 13 14.9990000  0  6G18G11G 2G16G19G 6
  23077080.190    11558635.471 6   9006718.71821        12.750           0.750
  22807760.448    -7544425.005 6  -5878767.98521        18.500           1.125
  21364788.815   -15485905.030 7 -12066927.59123        25.250           2.875
  23381817.808    -5146400.268 5  -4010183.10621        11.500           0.500
  20957489.526      902515.356 7    703256.45222        20.750           2.250
  22628548.800    -9964961.504 6  -7630038.73721        15.250           0.844
 91  5 23 19 13 29.9990000  0  6G18G11G 2G16G19G 6
  23086211.378    11606618.064 6   9044107.67121        12.250           0.781
  22808413.847    -7540994.124 6  -5876094.57821        18.250           1.313
  21358589.800   -15518479.171 7 -12092310.02523        25.250           2.906
  23383494.183    -5137605.321 5  -4003329.92521        11.500           0.469
  20960152.612      916498.229 7    714152.18322        20.000           2.250
  22621573.847   -10001615.349 6  -7658600.15621        16.000           0.844
 91  5 23 19 13 44.9990000  0  6G18G11G 2G16G19G 6
  23095351.167    11654653.053 6   9081537.45521        12.250           0.656
  22809097.386    -7537405.429 6  -5873298.19921        18.500           1.156
  21352407.284   -15550970.240 7 -12117627.72423        25.750           2.875
  23385190.175    -5128682.802 5  -3996377.35221        11.000           0.469
  20962821.612      930546.250 7    725098.68922        20.500           2.156
  22614602.019   -10038245.075 6  -7687142.78121        15.500           0.813
 91  5 23 19 13 59.9990000  0  6G18G11G 2G16G19G 6
  23104504.519    11702744.401 6   9119011.15821        12.000           0.656
  22809810.878    -7533654.659 6  -5870375.54121        18.750           1.063
  21346239.987   -15583373.974 7 -12142877.37423        26.000           2.875
  23386912.425    -5119628.630 5  -3989322.18721        11.000           0.500
  20965508.565      944663.669 7    736099.26722        20.750           2.250
  22607640.276   -10074846.397 6  -7715663.26921        15.500           0.938
 91  5 23 19 14 14.9990000  0  6G18G11G 2G16G19G 6
  23113667.714    11750894.173 6   9156530.38621        12.250           0.625
  22810555.323    -7529739.544 6  -5867324.82021        19.000           1.094
  21340095.472   -15615688.018 7 -12168057.13423        26.000           2.781
  23388660.987    -5110440.720 5  -3982162.80621        11.000           0.344
  20968209.855      958852.797 7    747155.72322        20.250           2.313
  22600681.620   -10111416.835 6  -7744159.68121        16.000           0.875
 91  5 23 19 14 29.9990000  0  6G18G11G 2G16G19G 6
  23122838.026    11799090.366 6   9194085.77921        12.000           0.594
  22811328.659    -7525671.754 6  -5864155.12921        19.250           1.156
  21333958.917   -15647923.816 7 -12193175.92623        25.750           2.844
  23390438.386    -5101130.932 6  -3974908.45521        12.000           0.438
  20970918.284      973102.115 7    758259.07722        20.250           2.219
  22593721.026   -10147968.053 6  -7772641.13021        15.250           0.813
 91  5 23 19 14 44.9990000  0  6G18G11G 2G16G19G 6
  23132017.995    11847332.802 5   9231677.22821        11.750           0.656
  22812132.526    -7521451.299 6  -5860866.47321        19.250           1.188
  21327839.370   -15680081.131 7 -12218233.56123        25.500           2.719
  23392230.073    -5091699.396 5  -3967559.24221        11.750           0.438
  20973643.831      987411.748 7    769409.42822        20.500           2.344
  22586769.980   -10184499.887 6  -7801107.46821        15.250           0.938
 91  5 23 19 14 59.9990000  0  6G18G11G 2G16G19G 6
  23141208.425    11895626.033 6   9269308.23521        12.000           0.531
  22812966.355    -7517073.536 6  -5857455.24121        19.250           1.125
  21321736.565   -15712155.373 7 -12243226.46523        25.750           2.750
  23394048.245    -5082141.583 6  -3960111.62621        12.000           0.406
  20976378.401     1001786.383 7    780610.43422        20.250           2.219
  22579823.901   -10221007.679 6  -7829555.07821        15.000           0.938
 91  5 23 19 15 14.9990000  0  6G18G11G 2G16G19G 6
  23150407.589    11943976.744 5   9306984.03321        11.750           0.656
  22813829.956    -7512531.785 6  -5853916.22721        19.250           1.156
  21315649.831   -15744139.778 7 -12268149.36323        25.750           2.719
  23395889.909    -5072450.692 5  -3952560.31521        11.250           0.375
  20979128.050     1016232.801 7    791867.36922        20.750           2.281
  22572883.948   -10257484.613 6  -7857978.63821        15.250           0.906
 91  5 23 19 15 29.9990000  0  6G18G11G 2G16G19G 6
  23159622.120    11992379.504 5   9344700.39721        11.750           0.625
  22814724.019    -7507831.256 6  -5850253.49121        19.250           1.188
  21309578.730   -15776039.376 7 -12293006.17423        25.500           2.750
  23397756.370    -5062632.167 5  -3944909.55421        10.750           0.375
  20981892.315     1030745.869 7    803176.24222        20.000           2.313
  22565947.761   -10293935.741 6  -7886382.10321        15.250           0.969
 91  5 23 19 15 44.9990000  0  6G18G11G 2G16G19G 6
  23168838.940    12040828.149 6   9382452.49621        12.000           0.688
  22815648.722    -7502977.535 6  -5846471.37521        19.250           1.125
  21303523.761   -15807859.918 7 -12317801.39123        25.500           2.781
  23399650.128    -5052692.120 5  -3937164.09021        10.750           0.406
  20984663.175     1045319.854 7    814532.58622        20.250           2.313
  22559017.620   -10330366.708 6  -7914769.84821        15.750           0.875
 91  5 23 19 15 59.9990000  0  6G18G11G 2G16G19G 6
  23178069.909    12089332.935 6   9420248.36421        12.250           0.625
  22816602.534    -7497960.308 6  -5842561.85821        18.750           1.125
  21297484.347   -15839590.940 7 -12342526.84823        25.500           2.781
  23401568.308    -5042620.267 5  -3929315.91521        11.500           0.406
  20987449.464     1059965.109 7    825944.46322        20.250           2.344
  22552085.847   -10366767.122 6  -7943133.78121        15.250           0.844
 91  5 23 19 16 14.9990000  0  6G18G11G 2G16G19G 6
  23187308.909    12137881.582 6   9458078.39021        12.250           0.563
  22817587.222    -7492791.699 6  -5838534.38421        19.250           1.188
  21291461.862   -15871244.186 7 -12367191.70223        25.000           2.750
  23403507.144    -5032428.867 5  -3921374.60421        11.000           0.375
  20990248.683     1074669.837 7    837402.67822        20.000           2.219
  22545165.151   -10403148.994 6  -7971483.27421        15.750           0.969
 91  5 23 19 16 29.9990000  0  6G18G11G 2G16G19G 6
  23196557.597    12186478.447 6   9495946.01021        12.750           0.625
  22818598.495    -7487467.260 6  -5834385.47721        18.750           1.125
  21285455.034   -15902815.105 7 -12391792.40523        25.000           2.719
  23405469.315    -5022113.660 5  -3913336.82521        11.250           0.406
  20993057.269     1089438.675 7    848910.85422        20.000           2.250
  22538245.120   -10439507.520 6  -7999814.56221        15.750           0.906
 91  5 23 19 16 44.9990000  0  6G18G11G 2G16G19G 6
  23205811.581    12235115.063 6   9533844.59921        12.500           0.625
  22819641.355    -7481995.129 6  -5830121.48821        19.250           1.156
  21279461.847   -15934311.856 7 -12416335.31323        25.250           2.813
  23407453.058    -5011682.642 5  -3905208.77821        10.250           0.250
  20995878.636     1104263.449 7    860462.61722        20.000           2.313
  22531327.909   -10475850.860 6  -8028134.03421        15.750           0.906
 91  5 23 19 16 59.9990000  0  6G18G11G 2G16G19G 6
  23215076.417    12283803.433 6   9571783.50621        13.000           0.719
  22820711.980    -7476363.219 6  -5825733.00221        19.000           1.219
  21273483.214   -15965722.224 7 -12440810.91423        25.000           2.688
  23409467.011    -5001124.305 5  -3896981.54021        10.750           0.344
  20998714.612     1119156.293 7    872067.41622        20.250           2.219
  22524414.769   -10512166.854 6  -8056432.18921        15.500           0.813
 91  5 23 19 17 14.9990000  0  6G18G11G 2G16G19G 6
  23224350.245    12332540.333 6   9609760.23221        13.500           0.625
  22821811.878    -7470574.588 6  -5821222.38821        18.500           1.156
  21267522.862   -15997049.083 7 -12465221.43323        25.250           2.750
  23411498.550    -4990441.565 5  -3888657.37421        11.250           0.406
  21001559.784     1134114.384 6    883723.05922        19.500           2.344
  22517512.167   -10548458.360 6  -8084711.26621        15.750           0.813
 91  5 23 19 17 29.9990000  0  6G18G11G 2G16G19G 6
  23233634.339    12381320.730 6   9647770.85321        13.250           0.594
  22822944.722    -7464634.067 6  -5816593.42121        19.000           1.094
  21261575.589   -16028297.263 7 -12489570.65423        25.250           2.844
  23413551.612    -4979639.549 5  -3880240.24621        10.750           0.250
  21004418.675     1149132.906 6    895425.79422        19.500           2.219
  22510608.636   -10584730.258 6  -8112975.06521        15.750           0.938
 91  5 23 19 17 44.9990000  0  6G18G11G 2G16G19G 6
  23242922.347    12430144.977 6   9685815.64821        12.750           0.656
  22824103.628    -7458540.761 6  -5811845.40221        18.750           1.094
  21255645.347   -16059465.901 7 -12513857.88123        25.500           2.938
  23415631.940    -4968717.605 5  -3871729.68121        10.500           0.375
  21007286.425     1164212.762 6    907176.31622        19.250           2.313
  22503711.058   -10620981.505 6  -8141222.77721        15.500           0.844
 91  5 23 19 17 59.9990000  0  6G18G11G 2G16G19G 6
  23252223.511    12479018.202 6   9723898.60521        12.750           0.688
  22825294.136    -7452289.690 6  -5806974.44721        18.750           1.156
  21249730.300   -16090549.632 7 -12538078.95023        25.750           2.906
  23417733.003    -4957670.581 5  -3863121.66521        10.500           0.281
  21010170.784     1179359.217 6    918978.73622        18.750           2.188
  22496817.159   -10657206.983 6  -8169450.39521        15.500           0.906
 91  5 23 19 18 14.9990000  0  6G18G11G 2G16G19G 6
  23261536.667    12527939.546 6   9762019.05021        12.500           0.469
  22826514.050    -7445881.336 6  -5801980.93221        18.750           1.156
  21243831.323   -16121548.972 7 -12562234.26123        25.500           2.906
  23419856.933    -4946499.291 5  -3854416.77721        10.500           0.313
  21013064.097     1194571.638 6    930832.55722        19.250           2.313
  22489931.714   -10693407.014 6  -8197658.20121        15.750           0.906
 91  5 23 19 18 29.9990000  0  6G18G11G 2G16G19G 6
  23270854.011    12576912.556 6   9800179.75321        12.000           0.469
  22827762.081    -7439312.113 6  -5796862.06521        19.000           1.063
  21237948.058   -16152460.227 7 -12586320.93223        25.500           2.906
  23422008.925    -4935200.383 5  -3845612.46721        11.250           0.406
  21015975.722     1209853.771 6    942740.70722        18.250           2.250
  22483046.644   -10729577.948 6  -8225843.32421        16.000           0.813
 91  5 23 19 18 44.9990000  0  6G18G11G 2G16G19G 6
  23280182.909    12625932.181 6   9838376.79221        12.500           0.469
  22829042.519    -7432586.959 6  -5791621.69121        19.000           1.156
  21232081.706   -16183288.252 7 -12610342.75723        25.750           2.906
  23424181.784    -4923778.839 5  -3836712.59121        11.250           0.313
  21018893.315     1225200.887 6    954699.48622        19.000           2.188
  22476168.355   -10765724.583 6  -8254009.51021        15.250           0.938
 91  5 23 19 18 59.9990000  0  6G18G11G 2G16G19G 6
  23289519.558    12674997.852 6   9876609.71321        12.250           0.531
  22830352.440    -7425706.064 6  -5786259.95821        19.000           1.063
  21226232.120   -16214033.069 7 -12634299.74523        25.750           3.000
  23426383.261    -4912234.987 5  -3827717.40921        11.250           0.313
  21021824.198     1240612.907 6    966708.83722        19.250           2.156
  22469295.581   -10801847.000 6  -8282156.82721        16.000           0.938
 91  5 23 19 19 14.9990000  0  6G18G11G 2G16G19G 6
  23298864.745    12724112.894 6   9914881.09321        12.250           0.563
  22831692.190    -7418665.890 6  -5780774.11621        19.250           1.188
  21220397.034   -16244691.033 7 -12658189.05123        26.250           2.938
  23428598.659    -4900565.502 5  -3818624.34021        11.000           0.344
  21024774.339     1256093.386 6    978771.53622        18.750           2.250
  22462427.628   -10837941.576 6  -8310282.45221        15.500           1.031
 91  5 23 19 19 29.9990000  0  6G18G11G 2G16G19G 6
  23308217.034    12773268.076 5   9953183.75521        11.750           0.563
  22833062.675    -7411475.859 6  -5775171.50121        19.000           1.219
  21214580.940   -16275271.277 7 -12682017.80023        27.000           3.000
  23430842.190    -4888779.642 5  -3809440.58321        10.750           0.344
  21027728.644     1271633.069 6    990880.36422        18.000           2.219
  22455562.112   -10874017.363 6  -8338393.43321        16.250           1.063
 91  5 23 19 19 44.9990000  0  6G18G11G 2G16G19G 6
  23317578.480    12822464.493 5   9991518.55121        11.250           0.500
  22834454.378    -7404134.384 6  -5769450.88521        18.750           1.250
  21208774.511   -16305772.082 7 -12705784.65423        27.000           3.094
  23433108.769    -4876876.256 5  -3800165.24521        11.000           0.344
  21030697.714     1287233.734 6   1003036.71422        18.750           2.094
  22448700.300   -10910072.763 6  -8366488.52521        15.500           0.844
 91  5 23 19 19 59.9990000  0  6G18G11G 2G16G19G 6
  23326950.120    12871706.055 5  10029888.51221        11.500           0.500
  22835884.136    -7396637.473 6  -5763609.13521        18.750           1.125
  21202986.651   -16336189.383 7 -12729486.43423        26.750           2.969
  23435394.276    -4864851.411 5  -3790795.26721        10.750           0.281
  21033677.190     1302899.310 6   1015243.64822        18.250           2.094
  22441843.605   -10946103.685 6  -8394564.55221        16.000           0.906
 91  5 23 19 20 14.9990000  0  6G18G11G 2G16G19G 6
  23336328.370    12920990.289 5  10068291.73421        11.500           0.563
  22837339.503    -7388987.348 6  -5757648.00821        18.750           1.156
  21197213.472   -16366525.329 7 -12753124.81723        27.000           3.125
  23437708.839    -4852707.616 5  -3781332.61221        10.750           0.375
  21036670.159     1318627.867 6   1027499.65322        17.750           2.219
  22434989.589   -10982112.159 6  -8422623.09021        16.500           0.969
 91  5 23 19 20 29.9990000  0  6G18G11G 2G16G19G 6
  23345714.605    12970320.631 5  10106730.88021        11.750           0.625
  22838824.714    -7381180.539 6  -5751564.78421        18.750           1.031
  21191457.222   -16396776.274 7 -12776696.96423        27.250           3.219
  23440039.448    -4840441.457 5  -3771774.59721        10.250           0.500
  21039676.581     1334422.871 6   1039807.43222        18.500           2.219
  22428143.683   -11018094.621 6  -8450661.34221        16.000           0.938
 91  5 23 19 20 44.9990000  0  6G18G11G 2G16G19G 6
  23355111.823    13019698.870 5  10145207.35021        11.500           0.594
  22840340.011    -7373214.913 6  -5745357.80921        18.250           1.125
  21185717.558   -16426939.830 7 -12800201.02023        27.500           3.281
  23442400.839    -4828050.827 5  -3762119.59621        10.500           0.281
  21042696.214     1350286.550 6   1052168.72522        18.500           2.094
  22421302.089   -11054048.855 6  -8478677.60221        16.250           0.969
 91  5 23 19 20 59.9990000  0  6G18G11G 2G16G19G 6
  23364518.105    13069120.813 6  10183717.88221        12.250           0.594
  22841885.261    -7365094.602 6  -5739030.29721        18.250           1.063
  21179993.886   -16457020.253 8 -12823640.29023        28.000           3.344
  23444781.175    -4815539.992 5  -3752370.91721        10.750           0.281
  21045726.128     1366214.961 6   1064580.46322        18.500           2.125
  22414465.323   -11089978.877 6  -8506675.00721        16.750           0.938
 91  5 23 19 21 14.9990000  0  6G18G11G 2G16G19G 6
  23373934.940    13118588.867 5  10222264.33321        11.500           0.688
  22843459.620    -7356816.969 6  -5732580.19421        17.750           1.000
  21174285.480   -16487014.761 8 -12847012.62223        28.000           3.375
  23447189.112    -4802906.737 5  -3742526.86221        11.500           0.344
  21048771.698     1382210.921 6   1077044.84022        18.250           2.156
  22407632.253   -11125881.857 6  -8534651.33421        16.250           1.031
 91  5 23 19 21 29.9990000  0  6G18G11G 2G16G19G 6
  23383353.589    13168099.303 5  10260843.80521        11.250           0.656
  22845067.081    -7348385.512 6  -5726010.23221        18.250           1.125
  21168592.769   -16516926.615 8 -12870320.55423        28.000           3.375
  23449609.792    -4790154.438 5  -3732590.02521        10.750           0.438
  21051828.730     1398271.043 6   1089559.20722        17.750           2.219
  22400802.769   -11161761.120 6  -8562609.18321        16.750           1.031
 91  5 23 19 21 44.9990000  0  6G18G11G 2G16G19G 6
  23392782.933    13217653.830 5  10299457.63521        11.250           0.563
  22846698.245    -7339798.641 6  -5719319.16521        18.000           1.000
  21162918.933   -16546754.056 8 -12893562.69423        28.000           3.469
  23452060.605    -4777281.711 5  -3722559.35521        11.000           0.375
  21054894.901     1414397.042 6   1102124.91222        18.000           2.125
  22393981.245   -11197614.877 6  -8590547.14721        16.500           1.063
 91  5 23 19 21 59.9990000  0  6G18G11G 2G16G19G 6
  23402219.886    13267243.742 5  10338099.04321        11.750           0.531
  22848362.230    -7331064.638 6  -5712513.45321        18.750           1.156
  21157256.292   -16576505.292 7 -12916745.46324        27.750           3.500
  23454530.073    -4764296.871 5  -3712441.32821        11.000           0.406
  21057973.144     1430580.762 6   1114735.58822        18.250           2.000
  22387161.175   -11233451.245 6  -8618471.57121        16.250           1.094
 91  5 23 19 22 14.9990000  0  6G18G11G 2G16G19G 6
  23411666.050    13316875.249 5  10376772.87621        11.750           0.563
  22850051.503    -7322177.077 6  -5705588.08721        18.500           1.031
  21151611.355   -16606173.791 8 -12939863.75523        28.000           3.438
  23457027.331    -4751193.796 5  -3702231.19521        11.250           0.344
  21061068.198     1446828.721 6   1127396.31322        18.000           2.063
  22380347.847   -11269263.662 6  -8646377.32721        16.750           1.125
 91  5 23 19 22 29.9990000  0  6G18G11G 2G16G19G 6
  23421117.464    13366547.971 6  10415478.80821        12.000           0.625
  22851772.940    -7313136.453 6  -5698543.44321        18.500           0.969
  21145980.909   -16635759.853 8 -12962917.80924        28.250           3.500
  23459539.636    -4737972.795 5  -3691929.14421        10.750           0.375
  21064174.206     1463140.596 6   1140106.85522        18.000           2.156
  22373534.808   -11305052.517 6  -8674264.73421        16.250           1.031
 91  5 23 19 22 44.9990000  0  6G18G11G 2G16G19G 6
  23430576.089    13416260.205 5  10454215.53621        11.250           0.531
  22853521.050    -7303944.208 6  -5691380.66421        18.500           1.000
  21140367.597   -16665264.896 8 -12985908.73723        28.500           3.438
  23462077.644    -4724635.958 5  -3681536.83821        10.750           0.375
  21067287.151     1479514.879 6   1152866.02122        18.250           2.188
  22366730.495   -11340819.191 6  -8702134.84921        16.500           1.000
 91  5 23 19 22 59.9990000  0  6G18G11G 2G16G19G 6
  23440044.675    13466011.885 5  10492983.00121        11.750           0.531
  22855299.190    -7294599.745 6  -5684099.26821        18.500           1.125
  21134765.519   -16694688.161 8 -13008835.94223        28.500           3.344
  23464639.784    -4711182.620 5  -3671053.75521        10.750           0.438
  21070415.862     1495952.493 6   1165674.54522        18.250           2.094
  22359928.050   -11376562.891 6  -8729987.06821        16.250           1.031
 91  5 23 19 23 14.9990000  0  6G18G11G 2G16G19G 6
                                  10531781.74621                         0.594
  22857108.636    -7285102.783 6  -5676699.04021        19.250           1.063
  21129183.808   -16724029.162 8 -13031699.05023        28.500           3.438
  23467220.190    -4697612.550 5  -3660479.72621        10.750           0.313
  21073554.714     1512453.880 6   1178532.75422        18.000           2.125
  22353131.878   -11412282.984 6  -8757820.88821        16.000           1.125
 91  5 23 19 23 29.9990000  0  6G18G11G 2G16G19G 6
                                  10570610.77621                         0.438
  22858944.386    -7275454.236 6  -5669180.69321        19.500           1.063
  21123612.534   -16753288.810 8 -13054498.76223        28.000           3.344
  23469827.886    -4683926.784 5  -3649815.53421        11.000           0.344
  21076708.315     1529018.235 6   1191440.03122        18.000           2.094
  22346340.339   -11447980.357 6  -8785637.00721        15.750           1.250
 91  5 23 19 23 44.9990000  0  6G18G11G 2G16G19G 6
  23468492.448    13615502.457 5  10609468.13221        11.250           0.500
  22860811.542    -7265656.596 7  -5661546.17821        20.000           0.906
  21118061.128   -16782469.348 7 -13077236.83023        27.500           3.344
  23472457.245    -4670128.087 6  -3639063.32821        12.000           0.375
  21079872.636     1545643.115 6   1204394.47022        18.000           2.156
  22339551.081   -11483657.297 6  -8813437.20321        15.750           1.219
 91  5 23 19 23 59.9990000  0  6G18G11G 2G16G19G 6
  23477990.753    13665409.738 5  10648356.83621        10.750           0.469
  22862702.253    -7255705.832 6  -5653792.33921        19.250           1.000
  21112523.261   -16811566.599 8 -13099909.99123        28.000           3.219
  23475100.831    -4656212.490 6  -3628220.04521        12.000           0.406
  21083050.987     1562332.716 6   1217399.34222        17.500           2.219
  22332762.112   -11519309.651 6  -8841218.23921        15.750           1.188
 91  5 23 19 24 14.9990000  0  6G18G11G 2G16G19G 6
  23487493.128    13715353.776 5  10687274.19421        10.250           0.344
  22864622.144    -7245605.140 6  -5645921.67921        19.250           1.000
  21107003.245   -16840583.637 8 -13122520.65623        28.000           3.375
  23477771.370    -4642183.261 5  -3617288.22621        11.500           0.438
  21086235.495     1579083.977 6   1230452.25922        18.750           2.156
  22325983.315   -11554940.499 6  -8868982.52721        16.250           1.250
 91  5 23 19 24 29.9990000  0  6G18G11G 2G16G19G 6
  23497006.511    13765341.954 5  10726225.93221        10.500           0.438
  22866576.245    -7235346.850 6  -5637928.20921        19.250           1.031
  21101496.776   -16869512.648 8 -13145062.72624        28.250           3.500
  23480464.081    -4628032.897 5  -3606262.00321        11.500           0.375
  21089434.714     1595904.629 6   1243559.25222        18.750           2.063
  22319209.870   -11590541.982 6  -8896723.91421        16.250           1.188
 91  5 23 19 24 44.9990000  0  6G18G11G 2G16G19G 6
  23506525.839    13815370.920 5  10765209.45821        10.750           0.344
  22868557.776    -7224934.671 6  -5629814.83121        18.750           0.938
  21096009.987   -16898356.939 8 -13167538.77624        28.500           3.531
  23483179.659    -4613765.196 5  -3595144.35921        11.250           0.469
  21092648.065     1612791.207 6   1256717.61122        18.750           2.188
  22312439.300   -11626117.539 6  -8924445.10321        16.750           1.156
 91  5 23 19 24 59.9990000  0  6G18G11G 2G16G19G 6
  23516053.034    13865433.147 5  10804218.91321        11.250           0.344
  22870568.808    -7214375.695 6  -5621587.05621        19.000           0.906
  21090535.058   -16927123.627 8 -13189954.36423        28.000           3.438
  23485912.667    -4599387.502 5  -3583941.00921        11.000           0.531
  21095875.136     1629736.765 6   1269921.92722        18.250           2.188
  22305674.581   -11661674.194 6  -8952151.57721        16.750           1.219
 91  5 23 19 25 14.9990000  0  6G18G11G 2G16G19G 6
  23525590.120    13915535.171 5  10843259.37121        11.500           0.469
  22872605.261    -7203663.077 6  -5613239.57221        18.750           0.969
  21085076.706   -16955805.993 8 -13212304.23723        28.250           3.438
  23488673.245    -4584893.110 5  -3572646.70721        10.500           0.406
  21099113.440     1646748.244 6   1283177.60722        19.000           2.094
  22298912.917   -11697204.868 6  -8979837.80121        16.500           1.281
 91  5 23 19 25 29.9990000  0  6G18G11G 2G16G19G 6
  23535125.261    13965676.263 5  10882330.27021        10.750           0.375
  22874671.167    -7192797.661 6  -5604773.01321        18.250           0.969
  21079634.894   -16984404.412 8 -13234588.71323        28.250           3.344
  23491457.112    -4570282.960 5  -3561262.22321        11.250           0.500
  21102360.823     1663824.924 6   1296484.09722        19.000           2.188
  22292155.480   -11732710.210 6  -9007504.27721        17.250           1.156
 91  5 23 19 25 44.9990000  0  6G18G11G 2G16G19G 6
  23544677.300    14015853.959 5  10921429.70121        11.000           0.438
  22876768.776    -7181781.766 6  -5596189.20521        19.250           1.000
  21074207.065   -17012921.094 7 -13256809.49523        27.750           3.250
  23494255.745    -4555559.456 5  -3549789.40321        11.000           0.469
  21105622.675     1680964.653 6   1309839.71422        18.750           2.094
  22285404.323   -11768192.302 6  -9035152.64721        17.000           1.094
 91  5 23 19 25 59.9990000  0  6G18G11G 2G16G19G 6
  23554233.292    14066060.700 5  10960551.74121        11.250           0.406
  22878893.644    -7170622.572 6  -5587493.73521        18.750           0.969
  21068797.175   -17041362.998 8 -13278972.00223        29.000           3.188
  23497077.464    -4540729.948 5  -3538233.99521        10.250           0.500
  21108898.667     1698160.403 6   1323238.98222        18.000           2.188
  22278655.315   -11803658.212 6  -9062788.39821        16.750           1.250
 91  5 23 19 26 14.9990000  0  6G18G11G 2G16G19G 6
  23563792.605    14116310.376 5  10999707.24721        11.750           0.438
  22881046.503    -7159305.982 6  -5578675.61221        18.750           1.000
  21063399.909   -17069715.980 8 -13301065.22823        28.750           3.250
  23499920.190    -4525780.530 5  -3526585.12121        10.000           0.406
  21112179.011     1715426.456 6   1336693.03522        18.750           2.094
  22271910.753   -11839093.678 6  -9090400.42921        16.750           1.250
 91  5 23 19 26 29.9990000  0  6G18G11G 2G16G19G 6
  23573361.987    14166599.783 5  11038893.72221        11.250           0.406
  22883231.042    -7147835.242 6  -5569737.38021        18.750           1.094
  21058023.823   -17097983.218 8 -13323091.64023        29.000           3.156
  23502786.222    -4510714.576 5  -3514845.46421         9.500           0.469
  21115477.089     1732759.880 6   1350199.58222        19.250           2.094
  22265175.464   -11874501.788 6  -9117991.14821        16.500           1.188
 91  5 23 19 26 44.9990000  0  6G18G11G 2G16G19G 6
  23582939.948    14216925.383 5  11078108.39421        11.750           0.500
  22885441.237    -7136213.961 6  -5560681.82821        18.250           1.000
  21052657.112   -17126168.107 8 -13345053.87723        28.000           3.063
  23505676.995    -4495535.829 5  -3503017.90721         9.750           0.375
  21118789.753     1750157.081 6   1363755.83122        19.250           2.125
  22258441.394   -11909885.828 6  -9145563.10821        17.250           1.156
 91  5 23 19 26 59.9990000  0  6G18G11G 2G16G19G 6
  23592525.159    14267286.552 6  11117350.76221        12.250           0.438
  22887682.034    -7124442.461 6  -5551509.23321        18.250           1.031
  21047310.480   -17154270.735 7 -13366952.01423        27.750           3.063
  23508586.347    -4480244.688 5  -3491102.76621        10.000           0.500
  21122112.347     1767617.796 6   1377361.56722        19.250           2.125
  22251710.956   -11945246.005 6  -9173116.47821        16.500           1.156
 91  5 23 19 27 14.9990000  0  6G18G11G 2G16G19G 6
  23602114.745    14317687.370 6  11156624.05921        12.250           0.406
  22889950.331    -7112516.365 6  -5542216.17721        17.750           1.063
  21041977.870   -17182286.531 7 -13388782.49223        27.250           2.938
  23511520.612    -4464837.121 5  -3479096.91721        10.250           0.375
  21125447.597     1785146.545 6   1391020.32122        19.250           2.156
  22244988.386   -11980577.819 6  -9200647.74321        17.000           1.313
 91  5 23 19 27 29.9990000  0  6G18G11G 2G16G19G 6
  23611712.815    14368123.984 6  11195925.21421        12.500           0.563
  22892246.948    -7100439.265 6  -5532805.45121        18.000           1.000
  21036662.417   -17210219.092 7 -13410548.10323        26.750           2.969
  23514473.573    -4449316.507 5  -3467002.98021        10.250           0.406
  21128796.573     1802739.907 6   1404729.41622        19.500           2.188
  22238269.472   -12015884.588 6  -9228159.50221        17.000           1.156
 91  5 23 19 27 44.9990000  0  6G18G11G 2G16G19G 6
  23621317.589    14418592.741 6  11235251.43121        12.250           0.563
  22894575.722    -7088214.904 6  -5523279.97721        18.500           1.031
  21031362.269   -17238071.870 7 -13432251.55123        27.000           3.125
  23517446.745    -4433686.786 5  -3454824.00821        10.250           0.469
  21132155.776     1820394.328 6   1418486.09622        19.000           2.031
  22231554.745   -12051169.927 6  -9255654.55321        17.500           1.281
 91  5 23 19 27 59.9990000  0  6G18G11G 2G16G19G 6
  23630927.534    14469101.725 5  11274609.00421        11.500           0.438
  22896930.097    -7075835.092 6  -5513633.37821        18.750           1.063
  21026079.448   -17265836.738 7 -13453886.50423        27.500           2.969
  23520443.206    -4417939.849 5  -3442553.70821         9.750           0.500
  21135529.065     1838118.159 6   1432296.86022        18.750           2.156
  22224846.589   -12086425.405 6  -9283126.33721        17.500           1.281
 91  5 23 19 28 14.9990000  0  6G18G11G 2G16G19G 6
  23640546.151    14519652.042 5  11313998.76521        11.250           0.500
  22899317.183    -7063298.901 6  -5503864.91921        18.500           1.063
  21020812.230   -17293512.298 7 -13475451.86023        26.500           3.063
  23523459.847    -4402074.899 5  -3430191.46621         9.500           0.375
  21138912.628     1855912.531 6   1446162.58722        19.000           2.094
  22218144.003   -12121649.742 6  -9310573.86921        18.500           1.313
 91  5 23 19 28 29.9990000  0  6G18G11G 2G16G19G 6
  23650173.198    14570238.767 5  11353416.91321        11.250           0.469
  22901729.940    -7050610.774 6  -5493978.06721        18.500           0.938
  21015563.503   -17321103.005 7 -13496951.09023        27.000           3.031
  23526499.995    -4386096.656 5  -3417740.93221        10.000           0.375
  21142314.370     1873773.295 6   1460080.04622        19.250           2.188
  22211444.644   -12156847.229 6  -9338000.46021        18.000           1.375
 91  5 23 19 28 44.9990000  0  6G18G11G 2G16G19G 6
  23659809.448    14620864.185 5  11392865.19221        11.250           0.344
  22904176.058    -7037768.376 6  -5483971.00121        19.250           1.000
  21010329.276   -17348606.440 7 -13518382.32123        26.250           3.031
  23529566.417    -4370002.829 5  -3405200.32321        10.250           0.281
  21145724.253     1891702.864 6   1474051.11822        19.000           2.156
  22204753.003   -12192015.450 6  -9365404.25721        18.250           1.219
 91  5 23 19 28 59.9990000  0  6G18G11G 2G16G19G 6
  23669448.987    14671531.890 5  11432346.43821        11.000           0.469
  22906648.214    -7024767.819 6  -5473840.70521        18.500           1.000
  21005112.073   -17376018.508 7 -13539742.35423        26.500           3.125
  23532654.370    -4353789.785 5  -3392566.82321        10.250           0.406
  21149148.683     1909705.093 6   1488078.81122        19.250           2.156
  22198066.190   -12227150.272 6  -9392782.02121        18.250           1.219
 91  5 23 19 29 14.9990000  0  6G18G11G 2G16G19G 6
  23679099.378    14722239.723 5  11471858.91321        11.000           0.406
  22909152.542    -7011611.210 6  -5463588.80121        19.000           1.000
  20999913.519   -17403341.059 7 -13561032.63923        27.000           3.094
  23535759.784    -4337459.568 5  -3379842.01521         9.750           0.344
  21152589.026     1927778.342 6   1502161.84522        19.250           2.156
  22191386.558   -12262253.611 6  -9420135.25421        17.750           1.250
 91  5 23 19 29 29.9990000  0  6G18G11G 2G16G19G 6
  23688754.511    14772989.063 5  11511403.78321        10.750           0.438
  22911685.620    -6998297.216 6  -5453214.26921        18.750           1.000
  20994731.831   -17430572.559 7 -13582251.97323        26.750           3.188
  23538888.573    -4321011.169 5  -3367025.13021        10.000           0.281
  21156041.784     1945923.992 6   1516301.29622        19.000           2.094
  22184711.292   -12297323.887 6  -9447462.72521        17.500           1.250
 91  5 23 19 29 44.9990000  0  6G18G11G 2G16G19G 6
  23698419.112    14823778.009 5  11550979.48421        10.750           0.438
  22914244.940    -6984827.501 6  -5442718.39521        18.500           1.063
  20989566.964   -17457714.676 7 -13603401.66123        26.750           3.188
  23542040.355    -4304446.337 5  -3354117.50721        10.000           0.281
  21159508.972     1964140.535 6   1530495.98322        19.500           2.281
  22178045.151   -12332362.621 6  -9474765.61621        18.250           1.031
 91  5 23 19 29 59.9990000  0  6G18G11G 2G16G19G 6
  23708095.394    14874612.123 5  11590590.38421        11.000           0.344
  22916840.292    -6971196.477 6  -5432096.82521        18.750           1.031
  20984418.503   -17484761.449 7 -13624477.06223        26.750           3.188
  23545214.745    -4287759.346 5  -3341114.71421         9.750           0.250
  21162992.456     1982433.646 6   1544750.33422        19.250           2.156
  22171386.331   -12367364.000 6  -9502039.40521        18.250           1.188
 91  5 23 19 30 14.9990000  0  6G18G11G 2G16G19G 6
  23717774.362    14925487.053 5  11630233.11321        10.750           0.313
  22919466.667    -6957408.496 6  -5421352.96621        18.750           1.156
  20979287.573   -17511717.106 7 -13645481.45123        26.500           3.125
  23548415.362    -4270954.683 5  -3328020.20021        10.500           0.281
  21166487.464     2000799.297 6   1559061.21322        19.250           2.156
  22164732.081   -12402331.968 6  -9529287.16221        17.750           1.156
 91  5 23 19 30 29.9990000  0  6G18G11G 2G16G19G 6
  23727465.581    14976399.872 5  11669905.34321        11.250           0.344
  22922120.050    -6943466.323 6  -5410488.94621        18.750           1.031
  20974176.480   -17538584.308 7 -13666416.92223        26.750           3.219
  23551630.901    -4254035.517 5  -3314836.48221        10.750           0.313
  21169993.917     2019234.858 6   1573426.56022        18.250           2.219
  22158083.534   -12437269.187 6  -9556510.95321        18.250           1.063
 91  5 23 19 30 44.9990000  0  6G18G11G 2G16G19G 6
  23737162.190    15027353.883 5  11709609.68821        11.250           0.344
  22924803.472    -6929366.523 6  -5399502.09821        18.250           1.031
  20969082.878   -17565359.339 7 -13687280.57523        27.250           3.281
  23554876.620    -4236998.388 5  -3301560.84221        10.750           0.313
  21173515.690     2037743.995 6   1587849.24022        19.000           2.125
  22151440.065   -12472171.981 6  -9583707.91921        18.000           1.125
 91  5 23 19 30 59.9990000  0  6G18G11G 2G16G19G 6
  23746864.948    15078345.378 5  11749343.21221        11.000           0.281
  22927515.159    -6915112.312 6  -5388394.93021        18.250           1.156
  20964002.448   -17592045.210 7 -13708074.74623        26.750           3.375
  23558140.112    -4219846.906 5  -3288196.07421        11.000           0.375
  21177051.831     2056323.547 6   1602326.79522        18.250           2.188
  22144806.292   -12507043.449 6  -9610880.47621        18.000           1.125
 91  5 23 19 31 14.9990000  0  6G18G11G 2G16G19G 6
  23756576.745    15129375.188 5  11789106.63221        10.750           0.344
  22930256.698    -6900702.906 6  -5377166.83521        18.000           1.063
  20958942.042   -17618641.157 7 -13728798.85023        26.750           3.281
  23561422.331    -4202580.167 5  -3274741.51421        10.250           0.344
  21180601.222     2074974.529 6   1616860.00422        19.500           2.250
  22138174.698   -12541882.500 6  -9638027.76621        17.750           1.031
 91  5 23 19 31 29.9990000  0  6G18G11G 2G16G19G 6
  23766292.355    15180443.661 5  11828900.13521        10.750           0.188
  22933027.612    -6886137.812 6  -5365817.43021        17.750           1.063
  20953898.800   -17645146.524 7 -13749452.37723        26.750           3.281
  23564732.558    -4185197.810 5  -3261196.87621        10.250           0.406
  21184163.690     2093697.517 7   1631449.32722        20.000           2.281
  22131553.183   -12576688.388 6  -9665149.22721        18.500           1.125
 91  5 23 19 31 44.9990000  0  6G18G11G 2G16G19G 6
  23776019.737    15231552.952 5  11868725.50221        10.000           0.219
  22935830.487    -6871415.070 6  -5354345.17921        17.000           1.000
  20948872.019   -17671558.990 7 -13770033.51723        27.250           3.313
  23568067.276    -4167697.783 5  -3247560.53021        11.000           0.313
  21187739.909     2112494.785 6   1646096.52922        19.250           2.219
  22124936.378   -12611458.858 6  -9692243.08621        18.250           1.125
 91  5 23 19 31 59.9990000  0  6G18G11G 2G16G19G 6
  23785753.409    15282703.427 5  11908582.88721        10.250           0.281
  22938660.542    -6856534.100 6  -5342749.63221        17.000           1.063
  20943864.190   -17697878.000 7 -13790541.82623        27.000           3.219
  23571414.167    -4150079.779 5  -3233832.26221        10.000           0.281
  21191333.151     2131366.971 6   1660802.10322        18.750           2.250
  22118327.011   -12646193.360 6  -9719308.90421        18.750           1.188
 91  5 23 19 32 14.9990000  0  6G18G11G 2G16G19G 6
  23795497.737    15333896.942 5  11948473.85021        10.250           0.344
  22941525.073    -6841492.773 6  -5331029.13221        17.250           1.094
  20938874.214   -17724101.200 7 -13810975.47723        27.250           3.250
  23574788.980    -4132342.036 5  -3220010.68921         9.750           0.375
  21194938.120     2150316.454 6   1675567.91522        19.500           2.094
  22111723.745   -12680889.376 6  -9746344.74921        18.250           1.125
 91  5 23 19 32 29.9990000  0  6G18G11G 2G16G19G 6
  23805244.808    15385129.584 5  11988395.28621         9.750           0.313
  22944414.847    -6826294.732 6  -5319186.51521        17.250           1.031
  20933902.690   -17750231.983 7 -13831337.11723        27.500           3.281
  23578187.519    -4114488.084 5  -3206098.55421        10.000           0.250
  21198557.190     2169339.797 6   1690391.28322        19.500           2.094
  22105127.019   -12715550.297 6  -9773353.23421        18.000           1.156
 91  5 23 19 32 44.9990000  0  6G18G11G 2G16G19G 6
  23814999.331    15436397.251 5  12028344.03121        10.000           0.250
  22947337.464    -6810944.310 6  -5307225.15521        17.250           1.000
  20928945.886   -17776274.374 7 -13851629.86723        27.250           3.406
  23581608.026    -4096522.273 5  -3192099.24721        10.250           0.375
  21202190.230     2188433.023 6   1705269.09422        19.000           2.125
  22098539.401   -12750180.124 6  -9800337.49821        18.500           1.219
 91  5 23 19 32 59.9990000  0  6G18G11G 2G16G19G 6
  23824764.050    15487703.299 5  12068322.68321        10.250           0.375
  22950287.972    -6795438.091 6  -5295142.40121        17.750           1.094
  20924008.722   -17802224.760 7 -13871850.93323        27.750           3.313
  23585045.659    -4078441.348 5  -3178010.27621        10.000           0.344
  21205839.128     2207599.436 6   1720203.93522        19.000           2.156
  22091955.855   -12784775.227 6  -9827294.70121        18.250           1.250
 91  5 23 19 33 14.9990000  0  6G18G11G 2G16G19G 6
  23834533.839    15539051.526 5  12108334.18621        10.250           0.344
  22953271.206    -6779772.259 6  -5282935.27721        17.500           1.125
  20919089.722   -17828079.251 8 -13891997.27523        28.000           3.313
  23588514.394    -4060241.505 5  -3163828.61421        10.500           0.344
  21209499.089     2226843.332 6   1735199.15322        18.750           2.063
  22085378.120   -12819331.574 6  -9854221.70521        18.000           1.219
 91  5 23 19 33 29.9990000  0  6G18G11G 2G16G19G 6
  23844312.823    15590428.018 5  12148367.72821         9.750           0.344
  22956277.878    -6763960.513 6  -5270614.44721        17.750           1.094
  20914183.323   -17853851.444 7 -13912079.49023        27.750           3.219
  23591996.276    -4041936.992 5  -3149565.40221        10.500           0.313
  21213171.519     2246151.020 6   1750244.08422        19.250           2.094
  22078808.730   -12853862.683 6  -9881129.04221        18.250           1.375
 91  5 23 19 33 44.9990000  0  6G18G11G 2G16G19G 6
  23854094.651    15641839.656 5  12188428.63721        10.250           0.281
  22959315.081    -6747995.782 6  -5258174.40221        17.500           1.094
  20909295.878   -17879534.121 7 -13932091.95223        27.500           3.219
  23595498.175    -4023520.510 5  -3135214.93321        10.250           0.406
  21216862.698     2265529.811 6   1765344.41722        19.500           2.094
  22072243.901   -12888361.196 6  -9908010.97721        18.250           1.313
 91  5 23 19 33 59.9990000  0  6G18G11G 2G16G19G 6
  23863884.870    15693285.121 5  12228515.93721         9.500           0.281
  22962382.089    -6731879.257 6  -5245616.08921        17.500           1.031
  20904426.448   -17905128.236 8 -13952035.40623        28.000           3.313
  23599025.167    -4004993.587 5  -3120778.40721         9.500           0.375
  21220566.300     2284978.671 6   1780499.35022        18.750           2.063
  22065683.839   -12922828.129 6  -9934868.30921        18.000           1.313
 91  5 23 19 34 14.9990000  0  6G18G11G 2G16G19G 6
  23873678.784    15744766.339 5  12268631.04821        10.000           0.406
  22965478.480    -6715609.098 6  -5232938.04821        17.250           1.063
  20899573.409   -17930631.667 8 -13971908.20423        28.500           3.344
  23602570.222    -3986354.280 5  -3106254.33521         9.250           0.375
  21224278.706     2304499.690 6   1795710.51122        19.250           1.938
  22059129.800   -12957261.205 6  -9961699.25721        17.750           1.281
 91  5 23 19 34 29.9990000  0  6G18G11G 2G16G19G 6
  23883481.667    15796280.422 5  12308771.81521         9.250           0.375
  22968604.417    -6699188.039 6  -5220142.42321        17.500           1.063
  20894737.565   -17956047.000 8 -13991712.35123        28.500           3.281
  23606141.261    -3967605.473 5  -3091644.91821         9.250           0.375
  21228001.355     2324090.263 7   1810975.87022        20.000           1.938
  22052584.409   -12991663.090 6  -9988505.91021        17.750           1.375
 91  5 23 19 34 44.9990000  0  6G18G11G 2G16G19G 6
  23893291.542    15847825.023 5  12348936.32421        10.000           0.281
  22971758.409    -6682618.199 6  -5207230.88321        18.000           1.063
  20889915.737   -17981376.196 8 -14011449.37723        28.250           3.375
  23609728.597    -3948749.423 5  -3076951.92921        10.000           0.344
  21231747.206     2343748.537 6   1826293.98122        18.750           2.000
  22046044.073   -13026035.655 6 -10015289.71121        18.000           1.375
 91  5 23 19 34 59.9990000  0  6G18G11G 2G16G19G 6
  23903107.034    15899400.853 5  12389125.19121         9.250           0.375
  22974937.534    -6665898.999 6  -5194202.95421        17.500           1.094
  20885112.581   -18006618.497 8 -14031118.69623        28.500           3.375
  23613339.980    -3929785.527 5  -3062174.94021        10.000           0.375
  21235499.542     2363475.181 6   1841665.36622        18.500           2.000
  22039509.808   -13060377.985 6 -10042049.93721        17.750           1.219
 91  5 23 19 35 14.9990000  0  6G18G11G 2G16G19G 6
  23912927.690    15951005.060 5  12429336.15321        10.000           0.375
  22978145.964    -6649032.837 6  -5181060.50221        17.250           0.938
  20880324.706   -18031776.290 8 -14050722.16023        28.250           3.438
  23616965.050    -3910716.342 5  -3047315.85421         9.750           0.375
  21239266.753     2383267.931 6   1857088.26122        18.500           2.000
  22032978.776   -13094692.280 6 -10068788.33321        18.000           1.219
 91  5 23 19 35 29.9990000  0  6G18G11G 2G16G19G 6
  23922751.183    16002637.043 5  12469568.76121         9.750           0.313
  22981385.058    -6632020.238 6  -5167803.94621        17.500           1.063
  20875554.526   -18056849.765 7 -14070259.91223        27.750           3.313
  23620614.948    -3891542.887 5  -3032375.57021         9.250           0.406
  21243047.519     2403126.407 6   1872562.36922        19.000           2.063
  22026456.167   -13128978.995 6 -10095505.22921        18.000           1.281
 91  5 23 19 35 44.9990000  0  6G18G11G 2G16G19G 6
  23932584.136    16054294.909 5  12509821.54921         9.500           0.250
  22984650.198    -6614863.318 6  -5154434.93221        17.500           1.063
  20870798.003   -18081840.730 8 -14089733.37823        28.250           3.281
  23624280.214    -3872267.231 5  -3017355.61521         9.500           0.406
  21246838.003     2423048.936 6   1888086.39422        18.500           1.969
  22019935.386   -13163239.732 6 -10122201.88721        18.000           1.344
 91  5 23 19 35 59.9990000  0  6G18G11G 2G16G19G 6
  23942421.284    16105982.692 5  12550097.63421         9.750           0.313
  22987944.706    -6597558.007 6  -5140950.28921        17.750           1.063
  20866060.315   -18106744.866 8 -14109139.19323        28.500           3.281
  23627971.862    -3852885.454 5  -3002252.97421         9.500           0.438
  21250638.198     2443039.760 6   1903663.63622        18.500           2.000
  22013421.550   -13197470.130 6 -10148874.89921        17.750           1.406
 91  5 23 19 36 14.9990000  0  6G18G11G 2G16G19G 6
  23952259.167    16157696.034 5  12590393.66121         9.000           0.281
  22991263.386    -6580108.181 6  -5127353.04121        17.500           1.000
  20861336.980   -18131565.912 8 -14128480.26423        28.250           3.344
  23631676.878    -3833401.296 5  -2987070.57321         9.000           0.406
  21254458.862     2463095.220 6   1919291.24422        18.500           1.969
  22006913.737   -13231673.817 6 -10175527.10121        18.250           1.438
 91  5 23 19 36 29.9990000  0  6G18G11G 2G16G19G 6
  23962107.855    16209435.020 5  12630709.63221         9.500           0.281
  22994611.972    -6562513.908 6  -5113643.24521        17.750           1.000
  20856629.331   -18156303.880 8 -14147756.59123        28.500           3.250
  23635404.886    -3813815.080 5  -2971808.62721         8.750           0.313
  21258286.308     2483215.518 6   1934969.37322        17.750           2.063
  22000408.886   -13265850.606 6 -10202158.35222        17.750           1.500
 91  5 23 19 36 44.9990000  0  6G18G11G 2G16G19G 6
  23971955.308    16261196.250 5  12671042.95721         9.500           0.281
  22997989.628    -6544778.647 6  -5099823.57221        17.750           1.000
  20851937.495   -18180962.012 8 -14166970.70823        28.750           3.281
  23639149.792    -3794130.205 5  -2956469.80921         9.000           0.438
  21262124.198     2503397.280 6   1950695.39622        18.250           1.969
  21993904.714   -13300003.724 6 -10228771.15021        17.250           1.344
 91  5 23 19 36 59.9990000  0  6G18G11G 2G16G19G 6
  23981809.401    16312978.199 5  12711392.43021         9.000           0.281
  23001387.886    -6526903.804 6  -5085895.14421        17.250           0.938
  20847258.776   -18205541.383 8 -14186123.45723        28.750           3.313
  23642914.542    -3774348.143 5  -2941055.28421         9.250           0.531
  21265978.417     2523639.440 6   1966468.47522        18.500           2.063
  21987412.581   -13334134.275 6 -10255366.36921        17.750           1.406
 91  5 23 19 37 14.9990000  0  6G18G11G 2G16G19G 6
  23991667.558    16364781.084 5  12751758.20121         9.250           0.219
  23004818.144    -6508889.061 6  -5071857.69721        18.000           0.906
  20842596.011   -18230041.435 8 -14205214.40023        28.000           3.188
  23646696.839    -3754468.965 5  -2925565.05021         8.500           0.531
  21269841.815     2543942.371 6   1982288.91222        18.750           2.031
  21980923.472   -13368241.609 6 -10281943.49621        17.750           1.375
 91  5 23 19 37 29.9990000  0  6G18G11G 2G16G19G 6
  24001529.159    16416605.839 5  12792141.04421         8.500           0.281
  23008272.042    -6490733.324 6  -5057710.38921        17.750           0.875
  20837950.519   -18254460.911 8 -14224242.55823        28.250           3.188
  23650495.948    -3734491.579 5  -2909998.30621         8.500           0.281
  21273717.128     2564307.498 6   1998157.82622        18.250           2.125
  21974439.269   -13402324.525 6 -10308501.59621        18.500           1.406
 91  5 23 19 37 44.9990000  0  6G18G11G 2G16G19G 6
  24011392.628    16468451.419 5  12832540.08121         9.000           0.250
  23011754.136    -6472437.702 6  -5043454.06821        18.000           0.938
  20833317.675   -18278800.949 8 -14243208.81623        28.000           3.219
  23654320.284    -3714416.834 5  -2894355.71221         9.500           0.375
  21277605.323     2584733.904 6   2014074.48322        18.500           2.063
  21967955.980   -13436383.695 6 -10335041.19021        18.750           1.406
 91  5 23 19 37 59.9990000  0  6G18G11G 2G16G19G 6
  24021262.198    16520316.614 5  12872954.42621         8.000           0.250
  23015264.042    -6454003.322 6  -5029089.63421        18.000           0.969
  20828702.831   -18303062.433 8 -14262113.85923        28.000           3.188
  23658160.300    -3694246.523 5  -2878638.62621        10.750           0.375
  21281501.097     2605220.670 6   2030038.16922        18.250           1.938
  21961481.886   -13470419.941 6 -10361562.92121        18.750           1.313
 91  5 23 19 38 14.9990000  0  6G18G11G 2G16G19G 6
  24031142.323    16572206.307 5  12913387.83021         9.000           0.281
  23018797.558    -6435425.125 6  -5014613.13521        18.000           0.875
  20824100.026   -18327239.875 7 -14280953.42123        27.250           3.188
  23662014.659    -3673975.369 5  -2862842.96521         9.750           0.313
  21285415.339     2625773.039 6   2046052.97822        19.250           2.063
  21955010.503   -13504428.023 6 -10388062.71021        18.750           1.438
 91  5 23 19 38 29.9990000  0  6G18G11G 2G16G19G 6
  24041018.167    16624121.488 5  12953841.14221         8.250           0.344
  23022359.495    -6416702.090 6  -5000023.76621        18.250           0.875
  20819516.644   -18351332.239 7 -14299726.68023        27.250           3.250
  23665891.503    -3653602.725 5  -2846968.22721        10.000           0.313
  21289342.815     2646392.146 6   2062119.78922        18.250           2.031
  21948541.300   -13538406.636 6 -10414539.53021        18.500           1.375
 91  5 23 19 38 44.9990000  0  6G18G11G 2G16G19G 6
  24050899.581    16676049.834 5  12994304.69621         8.250           0.219
  23025946.128    -6397846.103 6  -4985330.81021        17.750           0.938
  20814945.823   -18375351.074 7 -14318442.64523        27.500           3.250
  23669785.284    -3633140.473 5  -2831023.66421         9.500           0.375
  21293271.870     2667066.357 6   2078229.52522        18.750           1.906
  21942080.112   -13572367.356 6 -10441002.40821        18.750           1.406
 91  5 23 19 38 59.9990000  0  6G18G11G 2G16G19G 6
  24060785.964    16727989.628 5  13034777.16021         8.750           0.250
  23029562.261    -6378859.304 6  -4970535.92121        17.750           0.875
  20810387.862   -18399298.189 7 -14337102.72123        27.500           3.344
  23673700.776    -3612590.840 5  -2815010.99221         9.750           0.313
  21297215.456     2687793.737 6   2094380.71022        19.000           1.938
  21935619.440   -13606312.113 6 -10467452.85622        18.500           1.500
 91  5 23 19 39 14.9990000  0  6G18G11G 2G16G19G 6
  24070671.448    16779954.813 5  13075269.41621         8.250           0.219
  23033201.019    -6359727.604 6  -4955628.11721        17.250           0.875
  20805848.073   -18423159.460 7 -14355695.90823        27.750           3.250
  23677626.300    -3591939.646 5  -2798919.20321         9.250           0.313
  21301173.831     2708588.668 6   2110584.53322        19.000           2.000
  21929169.026   -13640226.487 6 -10493879.62122        19.250           1.500
 91  5 23 19 39 29.9990000  0  6G18G11G 2G16G19G 6
  24080563.464    16831940.600 5  13115777.68821         8.750           0.313
  23036867.401    -6340455.623 6  -4940611.01521        17.250           0.969
  20801321.933   -18446939.325 7 -14374225.66723        27.500           3.219
  23681573.526    -3571191.531 5                         9.250
  21305141.831     2729446.867 6                        19.250
  21922720.198   -13674114.793 6 -10520286.07921        19.000           1.406
 91  5 23 19 39 44.9990000  0  6G18G11G 2G16G19G 6
  24090457.964    16883947.061 4  13156302.11821         7.000           0.313
  23040563.073    -6321043.304 6  -4925484.55021        17.000           1.000
  20796813.269   -18470637.493 8 -14392691.76023        28.750           3.344
  23685541.581    -3550346.815 5                         9.500
  21309123.886     2750368.598 6                        19.000
  21916276.784   -13707976.600 6 -10546671.88221        18.750           1.344
 91  5 23 19 39 59.9990000  0  6G18G11G 2G16G19G 6
  24100361.190    16935980.525 5  13196847.55921         7.750           0.281
  23044285.167    -6301484.315 6  -4910243.79921        17.500           1.063
  20792319.120   -18494247.478 8 -14411089.14623        28.250           3.406
  23689526.597    -3529399.225 5                         9.250
  21313117.878     2771360.252 6                        18.750
  21909836.761   -13741805.414 6 -10573031.98321        18.750           1.469
 91  5 23 19 40 14.9990000  0  6G18G11G 2G16G19G 6
  24110270.081    16988036.611 4  13237410.64221         7.250           0.344
  23048037.089    -6281782.792 6  -4894891.98721        18.000           0.938
  20787845.034   -18517773.218 8 -14429420.88023        28.250           3.313
  23693534.401    -3508353.291 5                        10.000
  21317126.112     2792417.841 6                        18.750
  21903404.753   -13775605.146 6 -10599369.43121        19.250           1.375
 91  5 23 19 40 29.9990000  0  6G18G11G 2G16G19G 6
  24120179.659    17040115.140 5  13277991.17321         7.500           0.219
  23051810.917    -6261938.913 6  -4879429.24621        17.750           1.000
  20783383.183   -18541214.673 8 -14447686.94723        28.750           3.281
  23697562.714    -3487209.121 5                        10.250
  21321148.136     2813541.581 6                        18.000
  21896979.300   -13809375.596 6 -10625684.05621        19.000           1.281
 91  5 23 19 40 44.9990000  0  6G18G11G 2G16G19G 6
  24130091.519    17092216.126 4  13318589.27521         7.250           0.156
  23055612.612    -6241952.567 6  -4863855.48921        17.750           0.938
  20778936.909   -18564571.428 8 -14465887.00923        28.750           3.438
  23701604.823    -3465966.400 5                         9.750
  21325178.651     2834731.826 6                        18.250
  21890559.284   -13843116.323 6 -10651975.51921        19.500           1.469
 91  5 23 19 40 59.9990000  0  6G18G11G 2G16G19G 6
  24140010.792    17144343.549 4  13359207.94121         6.500           0.313
  23059445.284    -6221819.715 6  -4848167.57521        17.750           0.875
  20774509.323   -18587839.301 8 -14484017.81223        29.250           3.313
  23705661.503    -3444621.332 5  -2684126.04421         9.250           0.219
  21329221.761     2855992.807 6   2225444.72522        17.750           1.938
  21884146.183   -13876822.942 6 -10678240.40721        19.750           1.375
 91  5 23 19 41 14.9990000  0  6G18G11G 2G16G19G 6
  24149935.573    17196494.481 4  13399844.88421         6.750           0.125
  23063303.167    -6201543.102 6  -4832367.63721        17.750           1.063
  20770101.534   -18611020.943 8 -14502081.41623        29.500           3.344
  23709740.003    -3423176.894 5  -2667416.12021         9.250           0.250
  21333282.878     2877321.992 6   2242064.84622        17.750           2.031
  21877735.331   -13910497.862 6 -10704480.59821        19.250           1.469
 91  5 23 19 41 29.9990000  0  6G18G11G 2G16G19G 6
  24159858.495    17248665.910 3  13440497.88521         6.000           0.188
  23067189.683    -6181125.752 6  -4816458.03421        18.000           0.875
  20765702.855   -18634119.101 8 -14520079.97723        29.000           3.281
  23713843.839    -3401636.359 5  -2650631.33621        10.000           0.281
  21337352.940     2898716.430 6   2258735.80522        17.750           1.938
  21871332.808   -13944144.029 6 -10730698.38121        19.500           1.469
 91  5 23 19 41 44.9990000  0  6G18G11G 2G16G19G 6
  24169799.581    17300862.347 4  13481170.29521         7.000           0.094
  23071102.323    -6160563.057 6  -4800435.17321        17.750           0.906
  20761325.323   -18657128.916 8 -14538009.70223        29.000           3.313
  23717961.690    -3379995.032 5  -2633768.01721         9.500           0.250
  21341437.706     2920181.095 6   2275461.50022        18.000           1.875
  21864935.706   -13977756.329 6 -10756889.76922        19.750           1.531
 91  5 23 19 41 59.9990000  0  5G11G 2G16G19G 6
  23075040.269    -6139861.674 6  -4784304.24421        18.250           0.906
  20756961.987   -18680056.699 8 -14555875.50623        28.000           3.313
  23722091.714    -3358259.557 5  -2616831.34421         8.500           0.313
  21345536.511     2941709.463 6   2292236.83022        17.750           2.000
  21858545.800   -14011341.237 7 -10783059.81122        20.250           1.500
 91  5 23 19 42 14.9990000  0  5G11G 2G16G19G 6
  23079007.628    -6119022.424 6  -4768065.89021        17.500           0.875
  20752614.987   -18702903.044 8 -14573677.85123        28.000           3.375
  23726246.753    -3336430.791 5  -2599821.95521         8.750           0.469
  21349642.870     2963301.093 6   2309061.45022        18.000           2.000
  21852161.386   -14044899.228 7 -10809208.88122        20.250           1.500
 91  5 23 19 42 29.9990000  0  5G11G 2G16G19G 6
  23082997.511    -6098042.936 6  -4751718.25421        16.750           0.781
  20748283.823   -18725665.390 8 -14591414.72723        28.500           3.375
  23730423.605    -3314506.476 5  -2582738.13921         8.750           0.438
  21353764.886     2984958.646 6   2325937.43722        18.000           1.938
  21845780.995   -14078427.490 7 -10835334.78921        20.500           1.469
 91  5 23 19 42 44.9990000  0  5G11G 2G16G19G 6
  23087017.464    -6076925.552 6  -4735263.16921        17.000           0.875
  20743967.526   -18748346.015 8 -14609087.93423        28.500           3.375
  23734611.862    -3292489.203 5  -2565581.83321         8.750           0.313
  21357897.690     3006679.930 6   2342863.09622        18.000           2.031
  21839405.737   -14111928.156 7 -10861439.20121        20.250           1.469
 91  5 23 19 42 59.9990000  0  5G11G 2G16G19G 6
  23091060.651    -6055677.044 6  -4718705.91621        17.000           0.844
  20739664.612   -18770951.433 8 -14626702.53223        28.500           3.313
  23738812.870    -3270385.966 5  -2548358.57021         8.000           0.406
  21362043.730     3028458.385 6   2359833.30622        17.500           2.031
  21833034.065   -14145407.782 7 -10887527.21521        20.000           1.469
 91  5 23 19 43 14.9990000  0  5G11G 2G16G19G 6
  23095128.315    -6034296.510 6  -4702045.78621        17.000           0.813
  20735378.081   -18793480.616 8 -14644257.72723        28.750           3.344
  23743035.784    -3248195.609 5  -2531067.43021         8.000           0.281
  21366199.565     3050295.150 6   2376848.95022        17.750           2.031
  21826666.292   -14178864.936 6 -10913597.71421        19.750           1.313
 91  5 23 19 43 29.9990000  0  5G11G 2G16G19G 6
  23099224.308    -6012780.451 6  -4685280.04521        17.000           0.813
  20731107.542   -18815929.731 8 -14661750.53923        29.000           3.438
  23747280.745    -3225914.698 5  -2513705.74821         7.500           0.313
  21370368.706     3072193.978 6   2393912.95022        17.000           1.969
  21820305.870   -14212296.058 7 -10939647.93022        20.250           1.500
 91  5 23 19 43 44.9990000  0  5G11G 2G16G19G 6
  23103342.659    -5991131.082 6  -4668410.43521        16.750           0.813
  20726848.784   -18838300.770 8 -14679182.51823        29.000           3.219
  23751536.956    -3203545.760 4  -2496275.45521         7.000           0.375
  21374541.597     3094152.973 6   2411023.83322        17.750           1.906
  21813947.722   -14245702.851 6 -10965679.18621        19.750           1.438
 91  5 23 19 43 59.9990000  0  5G11G 2G16G19G 6
  23107488.050    -5969351.771 6  -4651439.56021        16.750           0.906
  20722607.136   -18860596.993 8 -14696556.18323        28.750           3.344
  23755810.433    -3181092.515 4  -2478779.47421         7.250           0.219
  21378733.003     3116168.933 6   2428179.10622        18.000           2.000
  21807596.198   -14279088.488 7 -10991693.96222        20.000           1.594
 91  5 23 19 44 14.9990000  0  5G11G 2G16G19G 6
  23111658.097    -5947437.422 6  -4634363.46621        16.500           0.844
  20718378.925   -18882813.029 8 -14713867.36423        28.750           3.156
  23760096.105    -3158549.635 5  -2461213.64321         7.500           0.156
  21382935.308     3138247.197 6   2445382.92722        18.000           1.938
  21801247.675   -14312447.520 6 -11017688.00422        19.500           1.563
 91  5 23 19 44 29.9990000  0  5G11G 2G16G19G 6
  23115855.065    -5925389.069 6                        16.750
  20714166.136   -18904949.649 8 -14731116.66523        28.500           3.344
  23764408.698    -3135918.195 5  -2443578.79121         7.500           0.281
  21387148.995     3160386.972 6                        17.000
  21794903.480   -14345780.538 6 -11043661.77822        19.500           1.500
 91  5 23 19 44 44.9990000  0  5G11G 2G16G19G 6
  23120076.792    -5903204.299 6                        17.250
  20709969.284   -18927004.094 8 -14748301.93623        28.750           3.438
  23768730.745    -3113195.924 5  -2425873.19521         7.750           0.313
  21391372.815     3182590.957 6                        18.000
  21788566.792   -14379084.822 6 -11069613.15822        19.750           1.500
 91  5 23 19 44 59.9990000  0  5G11G 2G16G19G 6
  23124324.815    -5880883.301 6                        17.000
  20705788.378   -18948976.388 8 -14765423.19223        28.750           3.250
  23773069.144    -3090382.989 5  -2408096.91821         8.250           0.375
  21395611.722     3204859.111 6                        18.000
  21782235.526   -14412360.407 7 -11095542.17622        20.250           1.688
 91  5 23 19 45 14.9990000  0  5G11G 2G16G19G 6
  23128595.534    -5858426.722 6  -4565004.58621        17.000           0.844
  20701622.550   -18970866.914 8 -14782480.72523        28.750           3.188
  23777430.065    -3067480.454 5  -2390250.84621         9.000           0.344
  21399860.269     3227191.111 6   2514689.79222        17.500           1.906
  21775907.355   -14445607.347 7 -11121448.87222        20.250           1.563
 91  5 23 19 45 29.9990000  0  5G11G 2G16G19G 6
  23132897.206    -5835839.769 6  -4547404.40021        17.500           0.813
  20697470.550   -18992680.760 8 -14799478.50823        28.000           3.156
  23781805.901    -3044493.599 5  -2372339.05621         8.500           0.375
  21404120.323     3249581.920 6   2532137.15022        18.000           1.969
  21769585.011   -14478830.683 7 -11147337.17922        20.250           1.594
 91  5 23 19 45 44.9990000  0  5G11G 2G16G19G 6
  23137220.253    -5813120.613 6  -4529701.19121        16.500           0.750
  20693333.433   -19014415.797 7 -14816414.87923        27.750           3.125
  23786195.925    -3021420.599 5  -2354360.15021         9.500           0.313
  21408393.964     3272033.597 6   2549631.93722        17.750           2.031
  21763268.105   -14512028.168 7 -11173205.33922        20.750           1.625
 91  5 23 19 45 59.9990000  0  5G11G 2G16G19G 6
  23141566.433    -5790259.003 6  -4511886.97621        16.000           0.906
  20689215.706   -19036061.501 8 -14833281.65323        28.250           3.125
  23790609.237    -2998251.083 5  -2336306.02321         9.000           0.375
  21412680.323     3294556.877 6   2567182.51922        18.000           1.938
  21756959.003   -14545189.232 7 -11199045.11322        21.250           1.594
 91  5 23 19 46 14.9990000  0  5G11G 2G16G19G 6
  23145943.073    -5767257.840 6  -4493964.02921        15.250           0.875
  20685113.690   -19057620.671 8 -14850080.99423        28.750           3.156
  23795029.815    -2974988.062 5  -2318179.02321         8.750           0.375
  21416980.245     3317148.852 6   2584786.63222        18.000           1.875
  21750654.792   -14578316.499 7 -11224858.55722        20.750           1.656
 91  5 23 19 46 29.9990000  0  5G11G 2G16G19G 6
  23150351.065    -5744112.142 6  -4475928.44821        15.500           0.844
  20681027.620   -19079087.940 8 -14866808.72923        29.250           3.125
  23799477.097    -2951626.810 5  -2299975.50221         8.750           0.313
  21421294.378     3339814.858 6   2602448.44322        17.500           1.906
  21744358.175   -14611404.490 7 -11250641.39722        20.750           1.563
 91  5 23 19 46 44.9990000  0  5G11G 2G16G19G 6
  23154780.284    -5720832.292 6  -4457788.33021        15.750           0.844
  20676958.636   -19100473.540 8 -14883472.82723        29.500           3.281
  23803941.081    -2928177.627 5  -2281703.46221         9.250           0.438
  21425618.315     3362544.644 6   2620159.94522        18.250           1.938
  21738067.651   -14644463.519 7 -11276401.67022        20.500           1.625
 91  5 23 19 46 59.9990000  0  5G11G 2G16G19G 6
  23159236.706    -5697410.926 6  -4439537.94221        15.750           0.875
  20672906.198   -19121769.660 8 -14900067.20523        29.250           3.219
  23808423.612    -2904633.331 5  -2263357.30921         9.250           0.344
  21429954.769     3385346.057 6   2637927.26322        18.750           1.844
  21731782.855   -14677485.570 7 -11302133.12922        20.500           1.688
 91  5 23 19 47 14.9990000  0  5G11G 2G16G19G 6
  23163718.605    -5673856.639 6                        16.000
  20668870.003   -19142984.906 8 -14916598.56423        29.250           3.188
  23812915.800    -2881002.676 5                         9.000
  21434308.792     3408210.667 6   2655743.82322        18.000           1.969
  21725506.230   -14710479.074 7 -11327842.34022        21.250           1.625
 91  5 23 19 47 29.9990000  0  5G11G 2G16G19G 6
  23168226.886    -5650167.411 6                        16.250
  20664848.269   -19164117.077 8 -14933065.18623        29.250           3.156
  23817428.612    -2857283.511 5                         9.000
  21438672.878     3431140.760 6   2673611.40522        17.750           1.875
  21719231.214   -14743441.677 7 -11353527.47822        20.500           1.688
 91  5 23 19 47 44.9990000  0  5G11G 2G16G19G 6
  23172762.987    -5626344.526 6                        16.250
  20660843.370   -19185167.075 8 -14949467.78023        29.250           3.156
  23821959.495    -2833477.247 5                         9.000
  21443045.753     3454135.440 6   2691529.31622        18.000           1.938
  21712965.417   -14776374.068 7 -11379189.06822        20.500           1.750
 91  5 23 19 47 59.9990000  0  5G11G 2G16G19G 6
  23177321.589    -5602387.527 6                        16.250
  20656852.003   -19206134.354 8 -14965805.91923        29.250           3.281
  23826506.401    -2809583.864 5                         8.250
  21447436.167     3477195.168 6   2709497.90922        18.500           1.906
  21706703.620   -14809275.727 7 -11404826.71622        20.500           1.625
 91  5 23 19 48 14.9990000  0  5G11G 2G16G19G 6
  23181900.511    -5578303.112 6  -4346726.83621        16.000           0.875
  20652877.355   -19227025.257 8 -14982084.54423        29.250           3.313
  23831066.065    -2785609.777 5                         7.750
  21451835.526     3500313.673 6   2727512.30822        18.250           1.844
  21700446.878   -14842152.919 7 -11430445.29822        21.000           1.656
 91  5 23 19 48 29.9990000  0  5G11G 2G16G19G 6
  23186510.722    -5554089.513 6  -4327859.12321        16.000           0.969
  20648916.112   -19247837.925 8 -14998302.20623        29.000           3.313
  23835645.120    -2761553.480 5                         8.250
  21456245.511     3523492.914 6   2745574.03222        18.250           1.906
  21694196.308   -14875003.517 7 -11456043.15322        20.500           1.688
 91  5 23 19 48 44.9990000  0  5G11G 2G16G19G 6
  23191144.901    -5529746.047 6  -4308890.22321        16.500           0.938
  20644970.815   -19268571.412 8 -15014458.16223        29.000           3.313
  23840240.245    -2737414.197 5        -0.03131         9.250           0.250
  21460667.769     3546733.687 6   2763683.70322        18.250           1.813
  21687950.448   -14907826.556 7 -11481619.53522        20.750           1.750
 91  5 23 19 48 59.9990000  0  5G11G 2G16G19G 6
  23195799.526    -5505272.772 6  -4289820.17921        16.250           0.906
  20641042.011   -19289225.320 8 -15030552.10223        29.250           3.438
  23844844.917    -2713192.171 5     18874.25021         8.250           0.156
  21465106.105     3570036.490 6   2781841.71922        17.250           1.813
  21681709.980   -14940621.608 7 -11507174.10722        21.000           1.625
 91  5 23 19 49 14.9990000  0  5G11G 2G16G19G 6
  23200481.230    -5480670.899 6  -4270649.92121        16.000           0.875
  20637124.612   -19309800.703 8 -15046584.86223        29.250           3.344
  23849472.745    -2688888.597 5     37812.05721         8.500           0.313
  21469549.753     3593400.189 6   2800047.17922        18.000           1.813
  21675475.183   -14973389.423 7 -11532707.45422        21.250           1.625
 91  5 23 19 49 29.9990000  0  5G11G 2G16G19G 6
  23205189.362    -5455939.398 6  -4251378.66021        16.000           0.875
  20633224.730   -19330296.356 8 -15062555.49823        29.500           3.156
  23854109.089    -2664502.767 5     56813.96321         7.500           0.313
  21474006.722     3616825.929 6   2818300.97622        17.750           1.844
  21669244.737   -15006128.969 7 -11558218.77322        21.000           1.656
 91  5 23 19 49 44.9990000  0  5G11G 2G16G19G 6
  23209918.480    -5431080.167 6  -4232007.86121        15.750           0.906
  20629339.698   -19350713.844 8 -15078465.22223        29.500           3.219
  23858765.534    -2640036.479 4     75878.53621         7.000           0.250
  21478477.550     3640312.248 6   2836601.98622        17.750           1.781
  21663018.925   -15038841.572 7 -11583709.09922        20.750           1.781
 91  5 23 19 49 59.9990000  0  5G11G 2G16G19G 6
  23214672.542    -5406092.802 6  -4212537.21321        15.500           0.844
  20625470.636   -19371052.527 8 -15094313.54123        29.500           3.125
  23863435.058    -2615489.453 4     95006.04721         7.250           0.094
  21482956.245     3663859.770 6   2854950.69022        17.250           1.781
  21656800.409   -15071526.481 7 -11609177.84522        21.250           1.844
 91  5 23 19 50 14.9990000  0  5G11G 2G16G19G 6
  23219452.214    -5380977.183 6  -4192966.63421        16.000           0.844
  20621614.409   -19391312.090 8 -15110100.21123        29.500           3.219
  23868124.151    -2590861.681 4    114196.47621         7.000           0.250
  21487449.839     3687468.757 6   2873347.28022        17.500           1.750
  21650584.886   -15104183.168 7 -11634624.59822        21.500           1.781
 91  5 23 19 50 29.9990000  0  5G11G 2G16G19G 6
  23224256.659    -5355728.261 6  -4173292.18521        16.000           0.844
  20617775.401   -19411487.246 8 -15125821.10423        28.750           3.313
  23872832.378    -2566148.228 4    133453.66321         7.000           0.219
  21491953.198     3711144.651 6   2891796.00922        17.250           1.844
  21644378.136   -15136806.354 7 -11660045.25122        21.500           1.813
 91  5 23 19 50 44.9990000  0  5G11G 2G16G19G 6
  23229086.589    -5330353.852 6  -4153519.94821        16.000           0.813
  20613950.550   -19431585.686 8 -15141482.21423        29.000           3.344
  23877542.534    -2541356.944 4    152771.48621         6.500           0.188
  21496468.667     3734879.999 6   2910291.06822        17.500           1.656
  21638174.651   -15169403.246 7 -11685445.41222        21.500           1.719
 91  5 23 19 50 59.9990000  0  5G11G 2G16G19G 6
  23233938.456    -5304857.446 6  -4133652.64921        16.000           0.844
  20610141.050   -19451610.786 8 -15157086.17723        29.000           3.281
  23882280.331    -2516491.324 4    172147.25321         7.250           0.188
  21501000.886     3758671.527 6   2928829.89422        17.000           1.750
  21631976.347   -15201977.259 7 -11710827.74422        21.250           1.750
 91  5 23 19 51 14.9990000  0  5G11G 2G16G19G 6
  23238813.987    -5279234.176 6  -4113686.50021        16.250           0.781
  20606343.065   -19471557.197 8 -15172628.82623        29.000           3.313
  23887027.386    -2491546.556 5    191584.69621         7.750           0.125
  21505537.230     3782524.576 6   2947416.66722        17.250           1.688
  21625782.878   -15234522.991 7 -11736188.04022        21.250           1.781
 91  5 23 19 51 29.9990000  0  5G11G 2G16G19G 6
  23243715.347    -5253480.323 6  -4093618.59321        16.500           0.813
  20602562.761   -19491421.158 8 -15188107.23323        28.250           3.250
  23891792.925    -2466519.069 5    211086.57721         7.750           0.125
  21510089.440     3806442.794 6   2966054.22122        17.500           1.688
  21619595.112   -15267036.386 7 -11761523.13322        21.000           1.688
 91  5 23 19 51 44.9990000  0  5G11G 2G16G19G 6
  23248640.065    -5227598.258 6  -4073450.78621        16.500           0.750
  20598799.573   -19511204.609 8 -15203522.90023        28.250           3.313
  23896567.019    -2441411.502 5    230650.85821         7.500           0.125
  21514653.378     3830424.063 6   2984740.89722        17.000           1.719
  21613413.425   -15299519.444 7 -11786834.59822        21.250           1.594
 91  5 23 19 51 59.9990000  0  5G11G 2G16G19G 6
  23253589.073    -5201589.557 6  -4053184.29321        16.250           0.719
  20595049.901   -19530908.888 8 -15218876.88223        28.250           3.281
  23901361.339    -2416225.471 4    250276.29021         7.250           0.250
  21519227.776     3854467.145 6   3003475.75122        17.000           1.688
  21607238.089   -15331973.447 7 -11812123.41622        21.750           1.594
 91  5 23 19 52 14.9990000  0  5G11G 2G16G19G 6
  23258562.831    -5175451.930 6  -4032817.35321        16.500           0.813
  20591317.081   -19550531.447 8 -15234167.18523        28.250           3.375
  23906169.253    -2390958.636 5    269964.67521         7.500           0.188
  21523816.167     3878574.688 6   3022260.82822        17.000           1.656
  21601069.597   -15364395.608 7 -11837387.42022        21.750           1.625
 91  5 23 19 52 29.9990000  0  5G11G 2G16G19G 6
  23263561.948    -5149183.817 6  -4012348.71921        16.000           0.875
  20587598.206   -19570070.397 8 -15249392.34523        29.000           3.281
  23910994.792    -2365609.359 5    289717.31421         8.250           0.344
  21528414.581     3902748.463 6   3041097.51222        17.000           1.625
  21594905.862   -15396783.914 7 -11862625.04422        21.250           1.531
 91  5 23 19 52 44.9990000  0  5G11G 2G16G19G 6
  23268582.472    -5122793.013 6  -3991784.48521        15.750           0.781
  20583893.870   -19589533.382 8 -15264558.30623        29.250           3.219
  23915827.589    -2340185.646 5    309527.95921         8.750           0.250
  21533026.956     3926981.045 6   3059980.01522        17.500           1.719
  21588747.011   -15429145.892 7 -11887842.16122        21.000           1.563
 91  5 23 19 52 59.9990000  0  5G11G 2G16G19G 6
  23273627.862    -5096276.124 6  -3971122.01021        16.000           0.750
  20580204.644   -19608916.646 8 -15279662.14823        29.250           3.250
  23920682.409    -2314684.085 5    329399.24721         8.750           0.344
  21537652.784     3951276.092 6   3078911.20022        16.750           1.781
  21582594.675   -15461477.751 7 -11913035.80522        21.250           1.563
 91  5 23 19 53 14.9990000  0  5G11G 2G16G19G 6
  23278701.261    -5069631.549 6  -3950360.03621        16.000           0.781
  20576532.862   -19628218.349 8 -15294702.42723        29.250           3.219
  23925547.925    -2289103.169 5    349332.38121         8.250           0.344
  21542286.284     3975635.561 6   3097892.57822        17.250           1.781
  21576447.026   -15493777.501 7 -11938204.42922        21.000           1.594
 91  5 23 19 53 29.9990000  0  5G11G 2G16G19G 6
  23283793.065    -5042860.092 6  -3929499.20221        15.750           0.781
  20572873.933   -19647439.113 8 -15309679.64323        29.000           3.313
  23930432.948    -2263444.023 5    369326.49821         7.500           0.219
  21546932.230     4000058.670 6   3116923.54322        16.750           1.719
  21570307.605   -15526045.604 7 -11963348.39622        21.250           1.594
 91  5 23 19 53 44.9990000  0  5G11G 2G16G19G 6
  23288910.253    -5015971.837 6  -3908547.34621        15.250           0.844
  20569230.386   -19666588.933 8 -15324601.57623        29.000           3.250
  23935328.362    -2237716.617 5    389373.75521         8.000           0.313
  21551591.026     4024535.676 6   3135996.49922        17.000           1.719
  21564171.534   -15558291.794 7 -11988475.27822        21.250           1.625
 91  5 23 19 53 59.9990000  0  5G11G 2G16G19G 6
  23294053.737    -4988959.160 6  -3887498.54721        15.750           0.813
  20565601.612   -19685659.821 8 -15339462.00223        29.250           3.281
  23940240.886    -2211913.325 5    409480.16821         8.000           0.313
  21556259.151     4049074.445 6   3155117.59522        17.250           1.750
  21558040.050   -15590508.040 7 -12013578.83122        21.250           1.500
 91  5 23 19 54 14.9990000  0  4G11G 2G19G 6
  23299215.675    -4961820.472 6  -3866351.54621        15.500           0.781
  20561987.558   -19704649.897 8 -15354259.46423        29.250           3.219
  21560942.355     4073676.759 6   3174288.21522        17.500           1.656
  21551915.753   -15622692.273 7 -12038657.44522        22.250           1.719
 91  5 23 19 54 29.9990000  0  4G11G 2G19G 6
  23304402.425    -4934559.299 6  -3845109.11721        15.500           0.719
  20558388.019   -19723562.500 8 -15368996.55923        28.000           3.313
  21565633.972     4098339.452 6   3193505.87322        17.500           1.750
  21545798.019   -15654847.709 7 -12063713.62622        21.750           1.594
 91  5 23 19 54 44.9990000  0  4G11G 2G19G 6
  23309614.878    -4907175.468 6  -3823771.10221        15.750           0.656
  20554804.440   -19742397.033 7 -15383672.81223        27.750           3.219
  21570339.206     4123063.147 6   3212771.05722        17.250           1.750
  21539684.573   -15686973.723 7 -12088746.87922        22.000           1.719
 91  5 23 19 54 59.9990000  0  4G11G 2G19G 6
  23314849.370    -4879659.615 6  -3802330.21821        15.250           0.844
  20551237.433   -19761143.846 8 -15398280.72023        28.000           3.438
  21575058.690     4147857.440 6   3232091.25922        17.250           1.719
  21533578.636   -15719060.556 7 -12113749.59822        22.250           1.719
 91  5 23 19 55 14.9990000  0  4G11G 2G19G 6
  23320113.355    -4852008.483 6  -3780783.92621        16.000           0.719
  20547687.644   -19779799.441 8 -15412817.54623        28.000           3.406
  21579790.136     4172725.885 6   3251469.25022        17.000           1.719
  21527479.909   -15751104.547 7 -12138718.92922        22.500           1.813
 91  5 23 19 55 29.9990000  0  4G11G 2G19G 6
  23325400.112    -4824228.753 6  -3759137.42821        15.250           0.781
  20544153.542   -19798370.392 8 -15427288.41823        28.500           3.313
  21584537.894     4197661.933 6   3270899.91822        16.750           1.688
  21521389.526   -15783111.872 7 -12163659.68922        22.000           1.719
 91  5 23 19 55 44.9990000  0  4G11G 2G19G 6
  23330709.331    -4796321.643 6  -3737391.66721        15.500           0.781
  20540635.042   -19816857.598 8 -15441694.03123        28.500           3.469
  21589294.448     4222664.788 6   3290382.64122        17.500           1.656
  21515306.956   -15815083.384 7 -12188572.54022        22.250           1.906
 91  5 23 19 55 59.9990000  0  4G11G 2G19G 6
  23336044.651    -4768284.843 6  -3715544.85321        15.000           0.750
  20537134.175   -19835258.590 8 -15456032.46023        29.000           3.344
  21594068.026     4247736.881 6   3309919.31122        16.750           1.813
  21509228.933   -15847016.452 7 -12213455.44522        22.250           1.844
 91  5 23 19 56 14.9990000  0  4G11G 2G19G 6
  23341406.933    -4740121.243 6  -3693599.23121        15.250           0.719
  20533648.855   -19853575.954 8 -15470305.72823        29.250           3.313
  21598849.659     4272875.732 6   3329507.99722        17.250           1.813
  21503159.136   -15878913.608 7 -12238310.35522        22.000           1.906
 91  5 23 19 56 29.9990000  0  4G11G 2G19G 6
  23346790.308    -4711824.722 6  -3671550.03221        15.250           0.781
  20530179.355   -19871803.283 8 -15484508.83623        28.750           3.219
  21603645.440     4298087.680 6   3349153.63622        18.000           1.719
  21497095.667   -15910768.359 7 -12263132.23422        21.750           1.906
 91  5 23 19 56 44.9990000  0  4G11G 2G19G 6
  23352201.401    -4683395.439 6  -3649397.38821        15.000           0.719
  20526728.144   -19889940.660 8 -15498641.84523        29.000           3.281
  21608456.433     4323372.889 6   3368856.36522        17.500           1.719
  21491043.386   -15942580.485 7 -12287920.90022        21.500           1.969
 91  5 23 19 56 59.9990000  0  4G11G 2G19G 6
  23357633.487    -4654835.120 6  -3627142.63521        14.750           0.719
  20523293.284   -19907989.399 8 -15512705.78923        29.250           3.344
  21613284.347     4348729.816 6   3388614.98322        17.000           1.750
  21484998.987   -15974351.273 7 -12312677.34922        21.750           2.000
 91  5 23 19 57 14.9990000  0  4G11G 2G19G 6
  23363092.065    -4626150.099 6  -3604790.72521        14.750           0.781
  20519875.511   -19925955.428 8 -15526705.28223        29.500           3.188
  21618120.534     4374152.537 6   3408424.86522        17.500           1.781
  21478959.198   -16006086.580 7 -12337406.15122        21.250           2.000
 91  5 23 19 57 29.9990000  0  4G11G 2G19G 6
  23368572.722    -4597342.134 6  -3582342.99421        15.000           0.781
  20516471.737   -19943840.394 8 -15540641.61123        29.750           3.344
  21622971.401     4399639.435 6   3428284.75822        17.500           1.750
  21472925.730   -16037787.804 7 -12362108.39422        21.500           2.063
 91  5 23 19 57 44.9990000  0  4G11G 2G19G 6
  23374079.120    -4568409.182 6  -3559797.89821        14.750           0.719
  20513083.175   -19961642.027 8 -15554513.00823        29.750           3.281
  21627833.870     4425192.964 6   3448196.56822        17.500           1.750
  21466899.878   -16069452.434 7 -12386782.12122        21.500           2.094
 91  5 23 19 57 59.9990000  0  4G11G 2G19G 6
  23379608.253    -4539354.116 6  -3537157.61421        14.250           0.719
  20509711.870   -19979362.986 8 -15568321.54823        29.000           3.281
  21632709.222     4450810.621 6   3468158.35122        17.500           1.625
  21460881.940   -16101083.082 7 -12411429.37322        21.500           2.000
 91  5 23 19 58 14.9990000  0  4G11G 2G19G 6
  23385163.472    -4510171.713 6  -3514418.13021        14.750           0.750
  20506355.831   -19996997.611 8 -15582062.81623        29.250           3.375
  21637595.495     4476497.863 6   3488174.36022        17.250           1.656
  21454869.362   -16132673.877 7 -12436045.56622        21.250           1.969
 91  5 23 19 58 29.9990000  0  4G11G 2G19G 6
  23390737.722    -4480867.170 6  -3491583.46321        15.000           0.750
  20503015.472   -20014550.784 8 -15595740.60723        29.000           3.250
  21642496.722     4502249.707 6   3508240.70522        17.500           1.594
  21448864.331   -16164229.617 7 -12460634.44622        21.250           2.000
 91  5 23 19 58 44.9990000  0  4G11G 2G19G 6
  23396336.675    -4451444.955 6  -3468657.11921        15.250           0.688
  20499691.042   -20032026.972 8 -15609358.40723        29.500           3.313
  21647409.394     4528061.959 6   3528354.12022        16.500           1.625
  21442865.448   -16195754.579 7 -12485199.34422        21.500           2.063
 91  5 23 19 58 59.9990000  0  4G11G 2G19G 6
  23401961.042    -4421897.476 6  -3445633.16421        15.250           0.750
  20496380.190   -20049418.273 8 -15622910.05923        28.750           3.344
  21652336.925     4553942.514 6   3548520.75222        16.500           1.625
  21436874.253   -16227240.648 7 -12509733.93622        21.250           1.969
 91  5 23 19 59 14.9990000  0  4G11G 2G19G 6
  23407601.456    -4392237.266 6  -3422521.34621        14.250           0.750
  20493086.112   -20066736.790 8 -15636404.99324        29.000           3.500
  21657271.362     4579879.350 6   3568731.25222        17.250           1.656
  21430887.487   -16258699.832 7 -12534247.58122        22.000           2.188
 91  5 23 19 59 29.9990000  0  4G11G 2G19G 6
  23413271.089    -4362465.188 6  -3399322.37321        14.500           0.688
  20489803.519   -20083983.159 8 -15649843.71123        29.000           3.469
  21662213.378     4605871.798 6   3588985.07322        18.000           1.656
  21424906.534   -16290132.710 7 -12558740.72622        20.750           2.031
 91  5 23 19 59 44.9990000  0  4G11G 2G19G 6
  23418959.542    -4332575.884 6  -3376032.04521        15.500           0.781
  20486536.558   -20101151.994 8 -15663222.01523        28.500           3.344
  21667175.136     4631925.321 6   3609286.48522        17.750           1.594
  21418930.323   -16321533.475 7 -12583208.85122        20.500           2.063
 91  5 23 19 59 59.9990000  0  4G11G 2G19G 6
  23424668.698    -4302570.121 6  -3352650.96121        15.500           0.656
  20483283.855   -20118243.531 8 -15676540.08923        28.000           3.406
  21672144.183     4658039.448 6   3629635.12222        17.750           1.594
  21412961.417   -16352902.479 7 -12607652.22322        21.000           2.125
 91  5 23 20  0 14.9990000  0  4G11G 2G19G 6
  23430398.901    -4272447.738 6  -3329179.02121        15.750           0.625
  20480045.753   -20135257.443 8 -15689797.67723        28.000           3.344
  21677124.667     4684214.565 6   3650031.29521        18.000           1.469
  21406996.925   -16384239.093 7 -12632070.35022        21.000           2.031
 91  5 23 20  0 29.9990000  0  4G11G 2G19G 6
  23436156.003    -4242207.797 6  -3305615.46821        15.000           0.719
  20476821.269   -20152192.355 8 -15702993.71123        28.000           3.406
  21682118.151     4710451.958 6   3670475.97821        18.000           1.438
  21401042.253   -16415542.006 7 -12656462.22122        21.250           2.156
 91  5 23 20  0 44.9990000  0  4G11G 2G19G 6
  23441932.644    -4211851.067 6  -3281960.91221        15.000           0.625
  20473615.839   -20169048.862 8 -15716128.64523        28.500           3.281
  21687121.417     4736751.433 6   3690969.04122        18.250           1.500
  21395092.690   -16446811.424 7 -12680827.99022        21.250           2.281
 91  5 23 20  0 59.9990000  0  4G11G 2G19G 6
  23447727.972    -4181384.906 6  -3258221.09021        15.000           0.625
  20470420.589   -20185834.106 8 -15729208.05723        28.750           3.469
  21692138.792     4763105.732 6   3711504.82022        17.750           1.563
  21389145.847   -16478054.303 7 -12705173.08222        20.750           2.094
 91  5 23 20  1 14.9990000  0  4G11G 2G19G 6
  23453546.355    -4150806.725 6  -3234393.97321        14.750           0.688
  20467241.386   -20202545.249 8 -15742229.73123        29.000           3.375
  21697163.175     4789517.541 6   3732085.41722        18.250           1.500
  21383206.339   -16509267.713 7 -12729495.20722        20.750           2.094
 91  5 23 20  1 29.9990000  0  4G11G 2G19G 6
  23459388.448    -4120115.123 6  -3210478.47521        15.000           0.688
  20464075.245   -20219180.671 8 -15755192.40423        28.750           3.344
  21702202.862     4815988.637 6   3752712.21022        16.750           1.531
  21377271.378   -16540449.929 7 -12753793.01422        20.250           2.031
 91  5 23 20  1 44.9990000  0  4G11G 2G19G 6
  23465252.964    -4089308.813 6  -3186473.59721        15.000           0.719
  20460925.144   -20235738.703 8 -15768094.76423        28.750           3.375
  21707248.995     4842520.747 6   3773386.55322        17.500           1.563
  21371343.823   -16571599.098 7 -12778065.07722        20.500           2.094
 91  5 23 20  1 59.9990000  0  4G11G 2G19G 6
  23471131.925    -4058389.930 6  -3162380.99921        14.500           0.719
  20457787.909   -20252221.134 8 -15780938.21623        29.000           3.438
  21712310.440     4869112.127 6   3794107.07921        17.250           1.438
  21365421.534   -16602716.992 7 -12802312.77622        20.500           2.031
 91  5 23 20  2 14.9990000  0  4G11G 2G19G 6
  23477036.433    -4027358.308 6  -3138200.55921        14.250           0.688
  20454666.472   -20268627.675 8 -15793722.53023        29.000           3.344
  21717380.050     4895763.133 6   3814874.06622        17.250           1.500
  21359507.753   -16633802.830 7 -12826535.49522        20.750           2.188
 91  5 23 20  2 29.9990000  0  4G11G 2G19G 6
  23482966.417    -3996218.218 6  -3113935.57921        14.500           0.656
  20451558.167   -20284962.287 8 -15806450.79323        29.000           3.375
  21722464.253     4922469.808 6   3835684.42222        17.250           1.500
  21353597.253   -16664860.621 7 -12850736.35422        21.000           2.063
 91  5 23 20  2 44.9990000  0  4G11G 2G19G 6
  23488912.995    -3964964.793 6  -3089582.29721        14.500           0.625
  20448463.909   -20301219.843 8 -15819119.01623        29.000           3.375
  21727556.300     4949237.155 6   3856542.05822        17.750           1.625
  21347692.042   -16695884.914 7 -12874911.10622        21.000           2.094
 91  5 23 20  2 59.9990000  0  4G11G 2G19G 6
  23494882.480    -3933599.387 6  -3065141.75821        14.500           0.656
  20445384.519   -20317401.458 8 -15831728.05323        29.000           3.313
  21732662.800     4976064.012 6   3877446.07321        17.250           1.438
  21341796.519   -16726876.841 7 -12899060.64422        21.750           2.063
 91  5 23 20  3 14.9990000  0  4G11G 2G19G 6
  23500869.855    -3902117.906 6  -3040610.77021        14.000           0.719
  20442322.073   -20333502.721 8 -15844274.48723        29.250           3.469
  21737777.558     5002954.980 6   3898400.03921        17.250           1.375
  21335906.292   -16757831.842 7 -12923181.40722        22.000           2.094
 91  5 23 20  3 29.9990000  0  4G11G 2G19G 6
  23506885.370    -3870526.609 6  -3015994.21221        14.250           0.656
  20439270.933   -20349529.545 8 -15856762.91423        29.250           3.469
  21742910.136     5029904.180 6   3919399.38521        15.750           1.406
  21330022.425   -16788755.555 7 -12947277.79722        22.500           2.094
 91  5 23 20  3 44.9990000  0  4G11G 2G19G 6
  23512915.011    -3838822.515 6  -2991289.77321        13.750           0.656
  20436236.042   -20365478.840 8 -15869190.92823        29.000           3.375
  21748044.636     5056914.790 6   3940446.58321        16.750           1.406
  21324144.214   -16819644.689 7 -12971347.24222        22.750           2.125
 91  5 23 20  3 59.9990000  0  4G11G 2G19G 6
  23518970.550    -3807004.455 6  -2966496.53221        13.500           0.656
  20433215.659   -20381348.862 8 -15881557.17123        29.250           3.406
  21753199.956     5083988.323 6   3961542.80321        16.750           1.406
  21318273.159   -16850497.474 7 -12995388.36822        22.500           2.031
 91  5 23 20  4 14.9990000  0  4G11G 2G19G 6
  23525047.565    -3775083.543 6  -2941623.12421        13.750           0.750
  20430209.675   -20397150.676 8 -15893870.26723        29.250           3.406
  21758358.815     5111113.926 6   3982679.60621        16.500           1.406
  21312405.894   -16881324.724 7 -13019409.59222        22.750           2.188
 91  5 23 20  4 29.9990000  0  4G11G 2G19G 6
  23531140.058    -3743053.106 6  -2916664.38121        13.750           0.625
  20427215.948   -20412877.259 8 -15906124.73923        29.250           3.438
  21763535.120     5138298.701 6   4003862.51321        16.000           1.406
  21306546.401   -16912119.202 7 -13043405.28022        22.500           2.156
 91  5 23 20  4 44.9990000  0  4G11G 2G19G 6
  23537256.925    -3710911.533 6  -2891619.04421        13.500           0.656
  20424238.714   -20428526.849 8 -15918319.22323        29.250           3.375
  21768717.675     5165544.524 6   4025092.99321        16.500           1.406
  21300691.573   -16942878.902 7 -13067373.87322        22.500           2.063
 91  5 23 20  4 59.9990000  0  4G11G 2G19G 6
  23543396.667    -3678663.551 6  -2866490.77021        13.500           0.781
  20421273.925   -20444103.652 8 -15930456.99124        29.000           3.500
  21773913.292     5192846.820 6   4046367.47321        16.000           1.406
  21294843.628   -16973608.054 7 -13091318.66222        23.000           2.063
 91  5 23 20  5 14.9990000  0  4G11G 2G19G 6
  23549551.862    -3646306.050 6  -2841277.18221        13.250           0.656
  20418324.980   -20459604.404 8 -15942535.49824        29.250           3.625
  21779121.370     5220209.067 6   4067688.67821        17.000           1.469
  21289004.659   -17004303.077 7 -13115236.85622        23.500           2.031
 91  5 23 20  5 29.9990000  0  4G11G 2G19G 6
  23555731.065    -3613839.654 6  -2815978.74221        13.000           0.813
  20415388.987   -20475029.634 8 -15954555.14624        29.500           3.531
  21784342.534     5247630.852 6   4089056.27222        15.750           1.500
  21283169.425   -17034964.296 7 -13139128.70622        23.250           2.094
 91  5 23 20  5 44.9990000  0  4G11G 2G19G 6
  23561927.144    -3581264.526 6  -2790595.55621        13.000           0.688
  20412468.745   -20490379.090 8 -15966515.76823        29.250           3.438
  21789569.237     5275112.448 6   4110470.46621        17.000           1.375
  21277340.378   -17065591.356 7 -13162993.94322        23.250           2.125
 91  5 23 20  5 59.9990000  0  4G11G 2G19G 6
  23568146.940    -3548582.230 6  -2765128.87921        13.250           0.688
  20409562.237   -20505654.094 8 -15978418.36323        29.250           3.469
  21794809.948     5302652.619 6   4131930.30221        16.000           1.406
  21271520.417   -17096185.442 7 -13186833.48722        23.500           2.031
 91  5 23 20  6 14.9990000  0  4G11G 2G19G 6
  23574387.644    -3515787.594 6  -2739574.65221        13.500           0.719
  20406671.276   -20520849.218 8 -15990258.72023        29.250           3.406
  21800063.698     5330256.875 6   4153440.07521        16.500           1.344
  21265704.683   -17126740.804 7 -13210642.84922        23.000           2.188
 91  5 23 20  6 29.9990000  0  4G11G 2G19G 6
  23580651.253    -3482887.846 6  -2713938.52821        14.000           0.688
  20403791.894   -20535971.263 8 -16002042.13023        29.250           3.344
  21805328.237     5357918.331 6   4174994.43421        16.000           1.250
  21259895.269   -17157264.229 7 -13234427.32422        22.750           2.031
 91  5 23 20  6 44.9990000  0  4G11G 2G19G 6
  23586926.784    -3449880.172 6  -2688218.31421        13.750           0.688
  20400929.808   -20551017.230 8 -16013766.26123        29.000           3.406
  21810601.440     5385639.978 6   4196595.67821        16.500           1.313
  21254095.245   -17187752.421 7 -13258184.34522        22.750           2.219
 91  5 23 20  6 59.9990000  0  4G11G 2G19G 6
  23593230.886    -3416765.640 6  -2662414.82721        14.250           0.563
  20398081.980   -20565987.830 8 -16025431.65623        29.500           3.344
  21815888.073     5413421.029 6   4218243.21621        15.750           1.313
  21248297.855   -17218206.004 7 -13281914.39622        22.250           2.188
 91  5 23 20  7 14.9990000  0  4G11G 2G19G 6
  23599550.417    -3383540.982 6  -2636525.52921        13.750           0.656
  20395246.784   -20580879.568 8 -16037035.60823        29.750           3.375
  21821185.448     5441264.976 6   4239939.76421        15.750           1.313
  21242511.245   -17248621.391 7 -13305614.68222        22.750           2.094
 91  5 23 20  7 29.9990000  0  4G11G 2G19G 6
  23605896.472    -3350208.414 6  -2610552.15321        14.000           0.719
  20392428.605   -20595694.342 8 -16048579.58423        30.000           3.313
  21826498.058     5469170.089 6   4261683.97621        15.250           1.344
  21236731.042   -17279000.184 7 -13329286.45622        22.750           2.250
 91  5 23 20  7 44.9990000  0  4G11G 2G19G 6
  23612261.034    -3316762.992 6  -2584490.82621        14.250           0.563
  20389623.112   -20610427.046 8 -16060059.60723        30.000           3.313
  21831818.933     5497141.551 6   4283479.88421        15.750           1.375
  21230957.558   -17309337.042 7 -13352925.55522        22.500           2.156
 91  5 23 20  7 59.9990000  0  4G11G 2G19G 6
  23618646.972    -3283200.059 6  -2558337.93721        14.750           0.531
  20386836.355   -20625072.688 8 -16071471.78823        29.750           3.469
  21837155.839     5525184.245 6   4305331.29921        14.500           1.375
  21225194.386   -17339626.753 7 -13376527.90922        22.500           2.219
 91  5 23 20  8 14.9990000  0  4G11G 2G19G 6
  23625056.128    -3249526.041 6  -2532098.50521        14.750           0.563
  20384064.714   -20639637.388 8 -16082820.90823        29.000           3.469
  21842504.964     5553292.105 6   4327233.48221        15.500           1.219
  21219437.690   -17369875.312 7 -13400098.19922        22.500           2.344
 91  5 23 20  8 29.9990000  0  4G11G 2G19G 6
  23631484.151    -3215743.259 6  -2505774.30021        14.500           0.531
  20381308.378   -20654123.322 8 -16094108.64523        29.250           3.469
  21847868.409     5581463.018 6   4349184.80721        14.250           1.406
  21213689.440   -17400084.667 7 -13423637.93422        23.000           2.375
 91  5 23 20  8 44.9990000  0  4G11G 2G19G 6
  23637933.987    -3181852.210 6  -2479365.74621        14.500           0.563
  20378566.917   -20668530.628 8 -16105335.11723        29.500           3.469
  21853238.042     5609696.839 6   4371185.15821        15.500           1.344
  21207947.308   -17430254.862 7 -13447147.16622        23.000           2.438
 91  5 23 20  8 59.9990000  0  4G11G 2G19G 6
  23644403.784    -3147854.719 6  -2452874.23721        14.000           0.625
  20375839.589   -20682860.818 8 -16116501.49523        29.500           3.469
  21858622.667     5637992.110 6   4393233.37821        15.500           1.250
  21202214.651   -17460387.153 7 -13470626.85422        22.750           2.406
 91  5 23 20  9 14.9990000  0  4G11G 2G19G 6
  23650895.401    -3113744.638 6  -2426295.02021        13.750           0.563
  20373128.065   -20697107.362 8 -16127602.69623        29.250           3.469
  21864019.136     5666355.312 6   4415334.53521        15.500           1.188
  21196488.198   -17490474.934 7 -13494071.86422        23.250           2.406
 91  5 23 20  9 29.9990000  0  4G11G 2G19G 6
  23657408.511    -3079517.011 6  -2399624.19121        14.000           0.656
  20370434.675   -20711265.052 8 -16138634.66123        29.750           3.438
  21869432.987     5694791.733 6   4437492.75121        14.750           1.313
  21190772.636   -17520512.873 7 -13517478.04222        23.250           2.344
 91  5 23 20  9 44.9990000  0  4G11G 2G19G 6
  23663944.347    -3045178.958 6  -2372867.31021        13.750           0.594
  20367757.112   -20725340.586 8 -16149602.60923        29.250           3.375
  21874854.222     5723294.611 6   4459702.75221        15.750           1.250
  21185065.808   -17550507.424 7 -13540850.40222        23.750           2.250
 91  5 23 20  9 59.9990000  0  4G11G 2G19G 6
  23670498.878    -3010731.349 6  -2346025.06521        13.750           0.625
  20365093.612   -20739334.529 8 -16160506.97923        29.500           3.469
  21880292.136     5751863.272 6   4481964.00921        15.250           1.313
  21179364.511   -17580459.107 7 -13564189.36622        23.000           2.313
 91  5 23 20 10 14.9990000  0  4G11G 2G19G 6
  23677075.050    -2976171.684 6  -2319095.48821        13.750           0.563
  20362446.620   -20753244.243 8 -16171345.71524        29.500           3.500
  21885743.019     5780500.626 6   4504278.79021        16.250           1.250
  21173673.026   -17610364.819 7 -13587492.51122        22.750           2.125
 91  5 23 20 10 29.9990000  0  4G11G 2G19G 6
  23683671.940    -2941511.201 6  -2292087.35821        13.750           0.531
  20359813.550   -20767080.759 8 -16182127.41823        29.250           3.375
  21891202.745     5809195.712 6   4526638.56821        16.000           1.250
  21167990.565   -17640235.393 7 -13610768.27422        23.000           2.344
 91  5 23 20 10 44.9990000  0  4G11G 2G19G 6
  23690287.065    -2906744.865 6  -2264996.74121        13.500           0.500
  20357196.019   -20780838.916 8 -16192848.06523        28.750           3.406
  21896673.605     5837953.694 6   4549047.35221        15.750           1.281
  21162313.987   -17670065.396 7 -13634012.42322        23.250           2.125
 91  5 23 20 10 59.9990000  0  4G11G 2G19G 6
  23696923.831    -2871875.818 6  -2237826.09221        13.500           0.563
  20354591.190   -20794521.518 8 -16203509.82623        28.500           3.344
  21902158.011     5866771.687 6   4571502.88921        15.750           1.250
  21156645.558   -17699857.577 7 -13657227.10122        23.500           2.219
 91  5 23 20 11 14.9990000  0  4G11G 2G19G 6
  23703579.433    -2836901.925 6  -2210573.75721        13.750           0.594
  20352004.003   -20808125.972 8 -16214110.70423        28.750           3.406
  21907651.644     5895652.153 6   4594007.11421        16.000           1.281
  21150982.683   -17729609.312 7 -13680410.26422        23.000           2.313
 91  5 23 20 11 29.9990000  0  4G11G 2G19G 6
  23710252.464    -2801828.436 6  -2183243.80721        13.250           0.563
  20349428.230   -20821657.207 8 -16224654.52723        28.750           3.313
  21913164.870     5924590.345 6   4616556.31821        15.000           1.344
  21145327.480   -17759325.158 7 -13703565.46822        23.500           2.250
 91  5 23 20 11 44.9990000  0  4G11G 2G19G 6
  23716946.964    -2766653.533 6  -2155834.86021        13.000           0.625
  20346868.120   -20835113.086 8 -16235139.62523        28.000           3.281
  21918677.355     5953588.354 6   4639152.13321        15.750           1.250
  21139680.839   -17789002.892 7 -13726690.97222        23.750           2.344
 91  5 23 20 11 59.9990000  0  4G11G 2G19G 6
  23723656.776    -2731378.385 6  -2128347.78021        12.750           0.656
  20344321.651   -20848494.530 8 -16245566.72623        28.750           3.250
  21924206.605     5982645.378 6   4661793.93521        16.000           1.250
  21134039.980   -17818643.126 7 -13749787.25822        23.500           2.313
 91  5 23 20 12 14.9990000  0  4G11G 2G19G 6
  23730385.589    -2696002.087 6  -2100781.89021        12.000           0.688
  20341789.323   -20861800.345 8 -16255934.90123        28.750           3.281
  21929747.105     6011762.596 6   4684482.63621        16.250           1.281
  21128407.417   -17848244.596 7 -13772853.33422        23.500           2.406
 91  5 23 20 12 29.9990000  0  4G11G 2G19G 6
  23737141.355    -2660530.255 6  -2073141.56021        12.500           0.688
  20339269.995   -20875035.928 8 -16266248.34223        28.750           3.219
  21935301.933     6040934.639 6   4707214.06221        15.750           1.281
  21122781.261   -17877812.336 7 -13795893.12722        23.000           2.281
 91  5 23 20 12 44.9990000  0  4G11G 2G19G 6
  23743906.714    -2624948.672 6  -2045415.71621        12.000           0.625
  20336768.378   -20888186.798 8 -16276495.77523        29.000           3.313
  21940863.542     6070176.041 6   4729999.53621        16.000           1.344
  21117164.120   -17907331.737 7 -13818895.26022        23.250           2.406
 91  5 23 20 12 59.9990000  0  4G11G 2G19G 6
  23750699.987    -2589268.140 6  -2017612.75421        12.250           0.656
  20334279.120   -20901263.439 8 -16286685.36523        29.250           3.188
  21946442.183     6099476.368 6   4752830.92021        15.750           1.344
  21111554.401   -17936813.101 7 -13841867.74522        22.750           2.438
 91  5 23 20 13 14.9990000  0  4G11G 2G19G 6
  23757512.550    -2553489.936 6  -1989733.70121        12.750           0.688
  20331805.245   -20914266.990 8 -16296817.99823        29.250           3.250
  21952027.065     6128834.513 6   4775707.36021        16.000           1.375
  21105950.065   -17966257.314 7 -13864811.28322        23.000           2.344
 91  5 23 20 13 29.9990000  0  4G11G 2G19G 6
  23764336.581    -2517609.001 6  -1961774.58121        12.500           0.625
  20329346.370   -20927191.985 8 -16306889.42523        29.250           3.375
  21957626.089     6158255.955 6   4798633.12721        15.750           1.188
  21100355.323   -17995658.806 7 -13887721.53122        22.750           2.469
 91  5 23 20 13 44.9990000  0  4G11G 2G19G 6
  23771180.409    -2481627.961 6  -1933737.46621        12.250           0.656
  20326901.300   -20940040.505 8 -16316901.25423        29.750           3.188
  21963236.448     6187738.539 6   4821606.53021        16.250           1.313
  21094766.198   -18025019.517 7 -13910600.00322        22.250           2.281
 91  5 23 20 13 59.9990000  0  4G11G 2G19G 6
  23778050.620    -2445541.521 6  -1905618.23521        12.750           0.594
  20324471.034   -20952807.115 8 -16326849.27023        29.500           3.188
  21968863.276     6217287.784 6   4844631.87821        15.000           1.219
  21089189.917   -18054333.719 7 -13933442.23222        22.750           2.313
 91  5 23 20 14 14.9990000  0  4G11G 2G19G 6
  23784938.222    -2409353.494 6  -1877419.82421        12.500           0.563
  20322056.972   -20965495.518 8 -16336736.33723        29.250           3.250
  21974494.753     6246900.086 6   4867706.36721        15.750           1.188
  21083620.503   -18083604.865 7 -13956250.91122        23.000           2.281
 91  5 23 20 14 29.9990000  0  4G11G 2G19G 6
  23791845.675    -2373060.020 6  -1849139.25021        12.250           0.563
  20319658.815   -20978101.586 8 -16346559.24423        29.750           3.406
  21980143.737     6276579.595 6   4890833.22021        15.000           1.156
  21078059.800   -18112828.486 7 -13979022.55522        23.500           2.281
 91  5 23 20 14 44.9990000  0  4G11G 2G19G 6
  23798768.831    -2336668.803 6  -1820782.50321        12.000           0.563
  20317273.878   -20990632.667 8 -16356323.71823        29.750           3.375
  21985799.276     6306318.849 6   4914006.63121        15.250           1.188
  21072505.034   -18142011.872 7 -14001762.84322        23.000           2.375
 91  5 23 20 14 59.9990000  0  4G11G 2G19G 6
  23805711.308    -2300181.821 6  -1792351.14721        12.250           0.594
  20314903.323   -21003090.288 8 -16366030.94723        29.500           3.344
  21991473.628     6336116.337 6   4937225.41621        14.500           1.156
  21066958.784   -18171156.452 7 -14024472.89022        23.500           2.406
 91  5 23 20 15 14.9990000  0  4G11G 2G19G 6
  23812672.644    -2263599.669 6  -1763845.65421        12.250           0.531
  20312545.581   -21015474.916 8 -16375681.30123        29.750           3.406
  21997152.206     6365971.730 6   4960489.32821        14.500           1.219
  21061420.011   -18200262.399 7 -14047152.83422        23.750           2.438
 91  5 23 20 15 29.9990000  0  4G11G 2G19G 6
  23819653.808    -2226916.317 6  -1735261.28421        12.750           0.656
  20310206.175   -21027779.922 8 -16385269.61823        30.250           3.438
  22002846.675     6395891.432 6   4983803.34621        13.750           1.219
  21055890.230   -18229323.016 7 -14069797.45622        23.500           2.375
 91  5 23 20 15 44.9990000  0  4G11G 2G19G 6
  23826653.628    -2190139.339 6  -1706603.95921        13.000           0.594
  20307876.503   -21040012.742 8 -16394801.68223        30.500           3.406
  22008548.151     6425868.100 6   5007161.75121        14.250           1.281
  21050368.105   -18258345.430 7 -14092412.30822        23.250           2.250
 91  5 23 20 15 59.9990000  0  4G11G 2G19G 6
  23833669.026    -2153262.601 6  -1677868.89821        13.250           0.625
  20305564.394   -21052166.846 8 -16404272.41223        30.250           3.313
  22014271.276     6455908.198 6   5030569.58121        13.750           1.188
  21044853.534   -18287323.008 7 -14114992.23122        23.250           2.344
 91  5 23 20 16 14.9990000  0  4G11G 2G19G 6
  23840705.573    -2116287.650 6  -1649057.30721        13.500           0.594
  20303264.456   -21064243.672 8 -16413682.92823        29.500           3.313
  22019994.198     6486010.355 6   5054025.77521        14.250           1.219
  21039346.909   -18316256.895 7 -14137538.11622        23.250           2.313
 91  5 23 20 16 29.9990000  0  4G11G 2G19G 6
  23847761.292    -2079213.227 6  -1620168.20521        13.250           0.594
  20300981.175   -21076241.798 8 -16423032.11323        29.000           3.250
  22025735.065     6516176.224 6   5077531.60821        14.250           1.219
  21033851.331   -18345145.388 7 -14160048.61922        23.750           2.219
 91  5 23 20 16 44.9990000  0  4G11G 2G19G 6
  23854834.940    -2042040.650 6  -1591202.62021        12.750           0.594
  20298713.448   -21088162.040 8 -16432320.60223        29.250           3.406
  22031487.526     6546404.900 6   5101086.38921        14.250           1.125
  21028363.394   -18373989.210 7 -14182524.31622        24.000           2.344
 91  5 23 20 16 59.9990000  0  4G11G 2G19G 6
  23861924.886    -2004774.310 6  -1562163.97321        12.500           0.500
  20296459.565   -21100008.566 8 -16441551.65423        30.000           3.438
  22037250.339     6576692.213 6   5124686.85821        13.750           1.156
  21022880.894   -18402792.225 7 -14204968.21422        24.000           2.406
 91  5 23 20 17 14.9990000  0  4G11G 2G19G 6
  23869036.628    -1967413.360 6  -1533051.59221        13.250           0.563
  20294219.034   -21111780.112 8 -16450724.28223        30.250           3.469
  22043024.878     6607039.420 6   5148334.00621        14.500           1.094
  21017408.339   -18431553.023 7 -14227379.22022        23.750           2.375
 91  5 23 20 17 29.9990000  0  4G11G 2G19G 6
  23876164.683    -1929955.825 6  -1503863.96721        12.750           0.500
  20291993.831   -21123474.609 8 -16459836.87623        30.000           3.469
  22048815.190     6637448.720 6   5172029.52921        14.250           1.125
  21011942.659   -18460269.223 7 -14249755.46722        24.000           2.469
 91  5 23 20 17 44.9990000  0  4G11G 2G19G 6
  23883309.956    -1892412.072 6  -1474609.15721        12.750           0.656
  20289779.995   -21135102.189 8 -16468897.32023        29.750           3.375
  22054608.120     6667910.035 6   5195765.59121        15.000           1.094
  21006485.409   -18488950.796 7 -14272104.73323        23.750           2.563
 91  5 23 20 17 59.9990000  0  4G11G 2G19G 6
  23890474.112    -1854768.627 6  -1445276.67421        12.500           0.500
  20287584.362   -21146649.071 8 -16477894.88823        29.500           3.281
  22060422.784     6698437.140 6   5219552.91721        14.500           1.156
  21001035.933   -18517583.694 7 -14294416.06722        23.250           2.438
 91  5 23 20 18 14.9990000  0  4G11G 2G19G 6
  23897652.808    -1817025.036 6  -1415866.13621        12.250           0.594
  20285400.839   -21158114.385 8 -16486828.90023        29.750           3.375
  22066239.440     6729030.740 6   5243392.04821        15.000           1.156
  20995594.776   -18546166.981 7 -14316688.74822        23.750           2.438
 91  5 23 20 18 29.9990000  0  4G11G 2G19G 6
  23904854.315    -1779187.602 6  -1386382.48821        12.500           0.500
  20283235.972   -21169504.105 8 -16495704.00923        30.250           3.188
  22072074.737     6759684.997 6   5267278.44021        14.500           1.000
  20990165.847   -18574706.198 7 -14338927.08723        23.750           2.531
 91  5 23 20 18 44.9990000  0  4G11G 2G19G 6
  23912067.284    -1741260.369 6  -1356828.85921        12.750           0.594
  20281081.901   -21180822.141 8 -16504523.25823        29.750           3.156
  22077918.690     6790396.002 6   5291209.07121        14.750           1.188
  20984742.355   -18603205.204 7 -14361134.09223        24.000           2.750
 91  5 23 20 18 59.9990000  0  4G11G 2G19G 6
  23919310.050    -1703240.512 6  -1327203.06121        13.750           0.531
  20278941.058   -21192065.193 8 -16513284.07823        29.500           3.250
  22083774.190     6821167.239 6   5315186.62621        13.750           1.094
  20979327.675   -18631660.420 7 -14383306.97523        24.000           2.531
 91  5 23 20 19 14.9990000  0  4G11G 2G19G 6
  23926561.597    -1665131.716 6  -1297507.96721        13.250           0.500
  20276816.276   -21203236.704 8 -16521989.15323        29.500           3.188
  22089640.847     6851995.211 6   5339208.38221        14.500           1.094
  20973920.089   -18660075.190 7 -14405448.34323        24.250           2.656
 91  5 23 20 19 29.9990000  0  4G11G 2G19G 6
  23933831.605    -1626930.019 6  -1267740.46921        13.000           0.438
  20274705.261   -21214332.543 8 -16530635.26623        29.250           3.219
  22095520.808     6882883.981 6   5363277.51721        14.000           1.063
  20968522.222   -18688444.937 7 -14427554.63023        24.500           2.656
 91  5 23 20 19 44.9990000  0  4G11G 2G19G 6
  23941114.558    -1588642.306 6  -1237905.93921        12.500           0.531
  20272607.722   -21225359.053 8 -16539227.35423        30.000           3.156
  22101408.050     6913827.303 6   5387389.15321        14.500           1.094
  20963128.847   -18716776.014 7 -14449630.78623        23.750           2.500
 91  5 23 20 19 59.9990000  0  4G11G 2G19G 6
  23948419.909    -1550259.051 6  -1207996.97121        12.000           0.438
  20270522.683   -21236306.403 8 -16547757.76523        29.750           3.156
  22107309.370     6944834.816 6   5411550.81421        14.000           1.063
  20957749.448   -18745058.387 7 -14471668.98823        24.000           2.625
 91  5 23 20 20 14.9990000  0  4G11G 2G19G 6
  23955740.487    -1511789.402 5  -1178020.69521        11.750           0.438
  20268453.073   -21247183.585 8 -16556233.49423        29.750           3.125
  22113217.605     6975897.663 6   5435755.58221        15.000           1.031
  20952375.761   -18773300.790 7 -14493676.04823        24.250           2.719
 91  5 23 20 20 29.9990000  0  4G11G 2G19G 6
  23963074.503    -1473229.507 5  -1147974.07321        11.250           0.438
  20266397.089   -21257986.393 8 -16564651.26823        30.000           3.156
  22119143.269     7007020.085 6   5460006.78721        14.250           0.969
  20947007.792   -18801498.841 7 -14515648.54723        23.750           2.625
 91  5 23 20 20 44.9990000  0  4G11G 2G19G 6
  23970430.230    -1434575.421 5  -1117854.07121        11.250           0.531
  20264357.058   -21268710.680 8 -16573007.86023        29.500           3.125
  22125075.784     7038206.280 6   5484307.68021        15.250           1.031
  20941651.995   -18829648.111 7 -14537583.03623        24.250           2.750
 91  5 23 20 20 59.9990000  0  4G11G 2G19G 6
  23977806.331    -1395830.973 5  -1087663.65521        11.250           0.469
  20262329.847   -21279359.960 8 -16581306.00123        29.250           3.063
  22131027.636     7069452.655 6   5508655.46821        14.250           1.094
  20936304.222   -18857751.755 7 -14559481.97723        24.250           2.625
 91  5 23 20 21 14.9990000  0  4G11G 2G19G 6
  23985193.464    -1357002.313 5  -1057407.61721        11.250           0.500
  20260317.175   -21289939.912 8 -16589550.12223        29.500           3.156
  22136977.667     7100753.441 6   5533045.64921        15.250           1.000
  20930963.894   -18885815.532 7 -14581349.85223        24.000           2.719
 91  5 23 20 21 29.9990000  0  4G11G 2G19G 6
  23992596.995    -1318083.901 5  -1027081.65321        11.250           0.531
  20258318.769   -21300444.671 8 -16597735.64523        29.750           3.156
  22142948.831     7132114.593 6   5557482.87021        15.500           1.063
  20925631.839   -18913833.315 7 -14603181.88723        24.000           2.719
 91  5 23 20 21 44.9990000  0  4G11G 2G19G 6
  24000020.737    -1279086.278 5   -996693.95421        11.250           0.563
  20256331.190   -21310884.508 8 -16605870.59223        30.250           3.250
  22148921.308     7163525.914 6   5581959.18221        15.000           1.063
  20920307.831   -18941815.042 7 -14624985.82723        23.750           2.906
 91  5 23 20 21 59.9990000  0  4G11G 2G19G 6
  24007461.034    -1239998.954 5   -966236.37621        11.250           0.594
  20254360.456   -21321248.867 8 -16613946.71923        30.000           3.313
  22154916.526     7194998.019 6   5606482.86221        14.500           1.031
  20914991.753   -18969749.847 7 -14646753.21223        23.500           2.781
 91  5 23 20 22 14.9990000  0  4G11G 2G19G 6
  24014912.534    -1200827.758 5   -935713.42221        11.000           0.625
  20252399.386   -21331543.207 8 -16621968.28523        29.000           3.281
  22160911.245     7226525.567 6   5631049.73021        15.250           1.000
  20909685.019   -18997643.093 7 -14668488.21223        24.250           2.875
 91  5 23 20 22 29.9990000  0  4G11G 2G19G 6
  24022382.159    -1161562.292 5   -905117.02821        10.500           0.625
  20250456.409   -21341756.766 8 -16629926.90523        29.000           3.125
  22166926.097     7258119.124 6   5655668.04721        14.750           1.031
  20904384.847   -19025483.698 7 -14690182.19423        24.000           2.844
 91  5 23 20 22 44.9990000  0  4G11G 2G19G 6
  24029875.144    -1122208.972 5   -874452.17921        11.000           0.531
  20248527.534   -21351895.768 8 -16637827.43123        29.000           3.125
  22172946.003     7289772.620 6   5680333.06121        14.750           1.094
  20899097.761   -19053277.578 7 -14711839.76723        24.000           2.844
 91  5 23 20 22 59.9990000  0  4G11G 2G19G 6
  24037378.339    -1082772.156 5   -843722.26021        10.250           0.656
  20246610.089   -21361964.187 8 -16645672.95623        28.750           3.156
  22178980.792     7321482.020 6   5705041.64121        14.750           1.063
  20893815.761   -19081028.656 7 -14733463.98423        24.000           2.750
 91  5 23 20 23 14.9990000  0  4G11G 2G19G 6
  24044898.722    -1043252.249 5   -812927.62221        10.250           0.563
  20244708.917   -21371962.176 8 -16653463.59823        29.500           3.281
  22185027.370     7353247.313 6   5729793.77121        15.000           1.000
  20888542.815   -19108736.783 7 -14755054.73023        23.750           2.688
 91  5 23 20 23 29.9990000  0  4G11G 2G19G 6
  24052438.753    -1003648.702 5   -782067.79521        10.750           0.500
  20242820.855   -21381888.752 8 -16661198.58623        29.250           3.219
  22191081.339     7385069.272 6   5754590.05921        14.500           1.000
  20883279.550   -19136400.877 7 -14776611.17123        24.000           2.750
 91  5 23 20 23 44.9990000  0  4G11G 2G19G 6
  24059987.409     -963962.611 5   -751143.62421        10.750           0.594
  20240944.612   -21391744.726 8 -16668878.56523        29.250           3.344
  22197150.573     7416947.133 6   5779429.90321        15.000           0.969
  20878023.214   -19164021.502 7 -14798133.73123        24.250           2.688
 91  5 23 20 23 59.9990000  0  4G11G 2G19G 6
  24067554.690     -924187.971 5   -720150.47721        10.750           0.438
  20239082.472   -21401523.835 8 -16676498.64923        28.750           3.250
  22203228.394     7448887.236 6   5804318.25621        13.500           0.875
  20872775.690   -19191592.117 7 -14819617.32823        24.000           2.719
 91  5 23 20 24 14.9990000  0  4G11G 2G19G 6
  24075139.855     -884330.970 5   -689093.14221        11.250           0.313
  20237236.269   -21411231.911 8 -16684063.38623        29.000           3.313
  22209316.042     7480883.613 6   5829250.44721        14.250           0.938
  20867540.190   -19219118.456 7 -14841066.41723        24.000           2.594
 91  5 23 20 24 29.9990000  0  4G11G 2G19G 6
  24082740.026     -844385.855 5   -657967.13121        11.750           0.438
  20235403.706   -21420863.126 8 -16691568.23023        28.750           3.281
  22215415.183     7512942.264 6   5854231.17021        14.250           0.969
  20862307.292   -19246594.243 7 -14862476.12523        23.500           2.594
 91  5 23 20 24 44.9990000  0  4G11G 2G19G 6
  24090356.823     -804360.146 5   -626778.32821        11.250           0.344
  20233583.839   -21430424.606 8 -16699018.73823        29.750           3.344
  22221525.425     7545056.101 6   5879254.90221        14.000           0.938
  20857089.237   -19274026.370 7 -14883851.80223        23.000           2.594
 91  5 23 20 24 59.9990000  0  4G11G 2G19G 6
  24097993.144     -764249.258 5   -595523.16021        11.750           0.313
  20231779.362   -21439911.408 8 -16706411.05723        29.500           3.281
  22227649.995     7577230.009 6   5904325.43121        13.250           0.969
  20851877.901   -19301409.720 7 -14905189.47123        23.250           2.688
